<?xml version='1.0' encoding='UTF-8'?>
<gpx version="1.1" creator="https://www.komoot.de" xmlns="http://www.topografix.com/GPX/1/1" xmlns:xsi="http://www.w3.org/2001/XMLSchema-instance" xsi:schemaLocation="http://www.topografix.com/GPX/1/1 http://www.topografix.com/GPX/1/1/gpx.xsd">
  <metadata>
    <name>67_750Rothberg</name>
    <author>
      <link href="https://www.komoot.de">
        <text>komoot</text>
        <type>text/html</type>
      </link>
    </author>
  </metadata>
  <trk>
    <name>67_750Rothberg</name>
    <trkseg>
      <trkpt lat="47.542039" lon="7.871556">
        <ele>344.001232</ele>
        <time>2021-11-19T06:44:12.615Z</time>
      </trkpt>
      <trkpt lat="47.542067" lon="7.871664">
        <ele>344.001232</ele>
        <time>2021-11-19T06:44:14.379Z</time>
      </trkpt>
      <trkpt lat="47.542091" lon="7.871721">
        <ele>344.001232</ele>
        <time>2021-11-19T06:44:15.047Z</time>
      </trkpt>
      <trkpt lat="47.542218" lon="7.871866">
        <ele>344.001232</ele>
        <time>2021-11-19T06:44:20.388Z</time>
      </trkpt>
      <trkpt lat="47.542394" lon="7.872341">
        <ele>344.001232</ele>
        <time>2021-11-19T06:44:30.929Z</time>
      </trkpt>
      <trkpt lat="47.542436" lon="7.872494">
        <ele>344.001232</ele>
        <time>2021-11-19T06:44:34.417Z</time>
      </trkpt>
      <trkpt lat="47.542537" lon="7.872430">
        <ele>344.001232</ele>
        <time>2021-11-19T06:44:36.662Z</time>
      </trkpt>
      <trkpt lat="47.542714" lon="7.872334">
        <ele>344.887196</ele>
        <time>2021-11-19T06:44:43.609Z</time>
      </trkpt>
      <trkpt lat="47.542814" lon="7.872280">
        <ele>345.476276</ele>
        <time>2021-11-19T06:44:46.657Z</time>
      </trkpt>
      <trkpt lat="47.542919" lon="7.872226">
        <ele>346.091427</ele>
        <time>2021-11-19T06:44:50.521Z</time>
      </trkpt>
      <trkpt lat="47.543013" lon="7.872182">
        <ele>346.637029</ele>
        <time>2021-11-19T06:44:53.955Z</time>
      </trkpt>
      <trkpt lat="47.543233" lon="7.872082">
        <ele>347.910659</ele>
        <time>2021-11-19T06:45:01.119Z</time>
      </trkpt>
      <trkpt lat="47.543251" lon="7.872152">
        <ele>348.190512</ele>
        <time>2021-11-19T06:45:04.492Z</time>
      </trkpt>
      <trkpt lat="47.543332" lon="7.872237">
        <ele>348.739891</ele>
        <time>2021-11-19T06:45:07.797Z</time>
      </trkpt>
      <trkpt lat="47.544390" lon="7.872423">
        <ele>354.802191</ele>
        <time>2021-11-19T06:45:49.517Z</time>
      </trkpt>
      <trkpt lat="47.544883" lon="7.872555">
        <ele>358.249771</ele>
        <time>2021-11-19T06:46:11.926Z</time>
      </trkpt>
      <trkpt lat="47.545131" lon="7.872664">
        <ele>360.029925</ele>
        <time>2021-11-19T06:46:22.930Z</time>
      </trkpt>
      <trkpt lat="47.545375" lon="7.872836">
        <ele>361.889422</ele>
        <time>2021-11-19T06:46:33.871Z</time>
      </trkpt>
      <trkpt lat="47.545478" lon="7.872968">
        <ele>362.826629</ele>
        <time>2021-11-19T06:46:40.678Z</time>
      </trkpt>
      <trkpt lat="47.545515" lon="7.873015">
        <ele>363.162030</ele>
        <time>2021-11-19T06:46:42.635Z</time>
      </trkpt>
      <trkpt lat="47.545746" lon="7.873302">
        <ele>365.236693</ele>
        <time>2021-11-19T06:46:55.834Z</time>
      </trkpt>
      <trkpt lat="47.545934" lon="7.873549">
        <ele>366.818461</ele>
        <time>2021-11-19T06:47:05.935Z</time>
      </trkpt>
      <trkpt lat="47.546077" lon="7.873763">
        <ele>367.891159</ele>
        <time>2021-11-19T06:47:15.131Z</time>
      </trkpt>
      <trkpt lat="47.546135" lon="7.873859">
        <ele>368.350117</ele>
        <time>2021-11-19T06:47:18.370Z</time>
      </trkpt>
      <trkpt lat="47.546309" lon="7.874154">
        <ele>369.745667</ele>
        <time>2021-11-19T06:47:29.484Z</time>
      </trkpt>
      <trkpt lat="47.547126" lon="7.875801">
        <ele>376.146444</ele>
        <time>2021-11-19T06:48:15.246Z</time>
      </trkpt>
      <trkpt lat="47.547574" lon="7.876801">
        <ele>377.288321</ele>
        <time>2021-11-19T06:48:34.240Z</time>
      </trkpt>
      <trkpt lat="47.547992" lon="7.877974">
        <ele>377.936147</ele>
        <time>2021-11-19T06:48:47.042Z</time>
      </trkpt>
      <trkpt lat="47.548234" lon="7.878638">
        <ele>376.325841</ele>
        <time>2021-11-19T06:48:52.354Z</time>
      </trkpt>
      <trkpt lat="47.548422" lon="7.878959">
        <ele>375.418929</ele>
        <time>2021-11-19T06:48:55.197Z</time>
      </trkpt>
      <trkpt lat="47.548718" lon="7.879258">
        <ele>374.286299</ele>
        <time>2021-11-19T06:48:58.735Z</time>
      </trkpt>
      <trkpt lat="47.549140" lon="7.879391">
        <ele>372.922277</ele>
        <time>2021-11-19T06:49:02.922Z</time>
      </trkpt>
      <trkpt lat="47.549318" lon="7.879398">
        <ele>372.267645</ele>
        <time>2021-11-19T06:49:04.549Z</time>
      </trkpt>
      <trkpt lat="47.549327" lon="7.879547">
        <ele>371.855544</ele>
        <time>2021-11-19T06:49:05.535Z</time>
      </trkpt>
      <trkpt lat="47.549726" lon="7.880786">
        <ele>368.073811</ele>
        <time>2021-11-19T06:49:14.470Z</time>
      </trkpt>
      <trkpt lat="47.549927" lon="7.881490">
        <ele>365.968098</ele>
        <time>2021-11-19T06:49:19.502Z</time>
      </trkpt>
      <trkpt lat="47.550234" lon="7.883221">
        <ele>361.491736</ele>
        <time>2021-11-19T06:49:31.903Z</time>
      </trkpt>
      <trkpt lat="47.550332" lon="7.884727">
        <ele>357.354023</ele>
        <time>2021-11-19T06:49:41.747Z</time>
      </trkpt>
      <trkpt lat="47.550391" lon="7.885109">
        <ele>355.993996</ele>
        <time>2021-11-19T06:49:44.279Z</time>
      </trkpt>
      <trkpt lat="47.550548" lon="7.885799">
        <ele>353.466891</ele>
        <time>2021-11-19T06:49:48.884Z</time>
      </trkpt>
      <trkpt lat="47.550677" lon="7.886476">
        <ele>351.025488</ele>
        <time>2021-11-19T06:49:53.314Z</time>
      </trkpt>
      <trkpt lat="47.550758" lon="7.887295">
        <ele>347.892423</ele>
        <time>2021-11-19T06:49:58.456Z</time>
      </trkpt>
      <trkpt lat="47.550789" lon="7.887816">
        <ele>345.731516</ele>
        <time>2021-11-19T06:50:01.688Z</time>
      </trkpt>
      <trkpt lat="47.550831" lon="7.888611">
        <ele>342.436858</ele>
        <time>2021-11-19T06:50:06.644Z</time>
      </trkpt>
      <trkpt lat="47.550833" lon="7.889069">
        <ele>340.544552</ele>
        <time>2021-11-19T06:50:09.454Z</time>
      </trkpt>
      <trkpt lat="47.550915" lon="7.890600">
        <ele>334.559835</ele>
        <time>2021-11-19T06:50:18.847Z</time>
      </trkpt>
      <trkpt lat="47.550904" lon="7.891725">
        <ele>330.300263</ele>
        <time>2021-11-19T06:50:25.851Z</time>
      </trkpt>
      <trkpt lat="47.550892" lon="7.893176">
        <ele>327.041844</ele>
        <time>2021-11-19T06:50:35.463Z</time>
      </trkpt>
      <trkpt lat="47.550908" lon="7.894308">
        <ele>325.406858</ele>
        <time>2021-11-19T06:50:44.668Z</time>
      </trkpt>
      <trkpt lat="47.550878" lon="7.895158">
        <ele>324.272385</ele>
        <time>2021-11-19T06:50:51.853Z</time>
      </trkpt>
      <trkpt lat="47.550838" lon="7.895509">
        <ele>323.881737</ele>
        <time>2021-11-19T06:50:55.017Z</time>
      </trkpt>
      <trkpt lat="47.550660" lon="7.896255">
        <ele>323.013405</ele>
        <time>2021-11-19T06:51:01.505Z</time>
      </trkpt>
      <trkpt lat="47.550639" lon="7.896345">
        <ele>322.908901</ele>
        <time>2021-11-19T06:51:02.693Z</time>
      </trkpt>
      <trkpt lat="47.550648" lon="7.896481">
        <ele>322.758935</ele>
        <time>2021-11-19T06:51:03.648Z</time>
      </trkpt>
      <trkpt lat="47.550819" lon="7.898109">
        <ele>319.975489</ele>
        <time>2021-11-19T06:51:15.396Z</time>
      </trkpt>
      <trkpt lat="47.550801" lon="7.900244">
        <ele>314.350438</ele>
        <time>2021-11-19T06:51:29.233Z</time>
      </trkpt>
      <trkpt lat="47.550769" lon="7.901362">
        <ele>311.390140</ele>
        <time>2021-11-19T06:51:36.505Z</time>
      </trkpt>
      <trkpt lat="47.550757" lon="7.901591">
        <ele>310.782504</ele>
        <time>2021-11-19T06:51:38.641Z</time>
      </trkpt>
      <trkpt lat="47.550688" lon="7.902451">
        <ele>308.491376</ele>
        <time>2021-11-19T06:51:47.075Z</time>
      </trkpt>
      <trkpt lat="47.550498" lon="7.903445">
        <ele>305.800078</ele>
        <time>2021-11-19T06:51:57.325Z</time>
      </trkpt>
      <trkpt lat="47.550302" lon="7.904164">
        <ele>303.795724</ele>
        <time>2021-11-19T06:52:04.585Z</time>
      </trkpt>
      <trkpt lat="47.550025" lon="7.904774">
        <ele>301.895326</ele>
        <time>2021-11-19T06:52:11.510Z</time>
      </trkpt>
      <trkpt lat="47.549868" lon="7.905010">
        <ele>301.038792</ele>
        <time>2021-11-19T06:52:14.642Z</time>
      </trkpt>
      <trkpt lat="47.549867" lon="7.905155">
        <ele>300.670163</ele>
        <time>2021-11-19T06:52:16.038Z</time>
      </trkpt>
      <trkpt lat="47.550067" lon="7.905245">
        <ele>300.059571</ele>
        <time>2021-11-19T06:52:18.964Z</time>
      </trkpt>
      <trkpt lat="47.550283" lon="7.905413">
        <ele>299.346934</ele>
        <time>2021-11-19T06:52:22.414Z</time>
      </trkpt>
      <trkpt lat="47.550497" lon="7.905558">
        <ele>298.659529</ele>
        <time>2021-11-19T06:52:25.772Z</time>
      </trkpt>
      <trkpt lat="47.549539" lon="7.908625">
        <ele>293.227660</ele>
        <time>2021-11-19T06:52:50.219Z</time>
      </trkpt>
      <trkpt lat="47.549520" lon="7.908678">
        <ele>293.151695</ele>
        <time>2021-11-19T06:52:50.715Z</time>
      </trkpt>
      <trkpt lat="47.549350" lon="7.909241">
        <ele>292.370969</ele>
        <time>2021-11-19T06:52:55.745Z</time>
      </trkpt>
      <trkpt lat="47.549261" lon="7.909535">
        <ele>292.001164</ele>
        <time>2021-11-19T06:52:58.389Z</time>
      </trkpt>
      <trkpt lat="47.549195" lon="7.909756">
        <ele>291.812203</ele>
        <time>2021-11-19T06:53:00.346Z</time>
      </trkpt>
      <trkpt lat="47.549102" lon="7.910058">
        <ele>291.552650</ele>
        <time>2021-11-19T06:53:03.063Z</time>
      </trkpt>
      <trkpt lat="47.549012" lon="7.910340">
        <ele>291.308743</ele>
        <time>2021-11-19T06:53:05.568Z</time>
      </trkpt>
      <trkpt lat="47.548412" lon="7.912168">
        <ele>289.804811</ele>
        <time>2021-11-19T06:53:21.899Z</time>
      </trkpt>
      <trkpt lat="47.548027" lon="7.913334">
        <ele>289.123874</ele>
        <time>2021-11-19T06:53:32.660Z</time>
      </trkpt>
      <trkpt lat="47.547994" lon="7.913433">
        <ele>289.065952</ele>
        <time>2021-11-19T06:53:33.580Z</time>
      </trkpt>
      <trkpt lat="47.547423" lon="7.915080">
        <ele>288.676934</ele>
        <time>2021-11-19T06:53:51.057Z</time>
      </trkpt>
      <trkpt lat="47.547113" lon="7.915971">
        <ele>288.780522</ele>
        <time>2021-11-19T06:54:01.504Z</time>
      </trkpt>
      <trkpt lat="47.547091" lon="7.916039">
        <ele>288.788315</ele>
        <time>2021-11-19T06:54:02.529Z</time>
      </trkpt>
      <trkpt lat="47.547032" lon="7.916218">
        <ele>288.808900</ele>
        <time>2021-11-19T06:54:04.731Z</time>
      </trkpt>
      <trkpt lat="47.546821" lon="7.916867">
        <ele>288.946128</ele>
        <time>2021-11-19T06:54:12.840Z</time>
      </trkpt>
      <trkpt lat="47.546262" lon="7.919081">
        <ele>289.761317</ele>
        <time>2021-11-19T06:54:40.352Z</time>
      </trkpt>
      <trkpt lat="47.546128" lon="7.919617">
        <ele>289.976216</ele>
        <time>2021-11-19T06:54:45.820Z</time>
      </trkpt>
      <trkpt lat="47.545973" lon="7.920313">
        <ele>290.253526</ele>
        <time>2021-11-19T06:54:54.283Z</time>
      </trkpt>
      <trkpt lat="47.545913" lon="7.920765">
        <ele>290.427826</ele>
        <time>2021-11-19T06:54:58.457Z</time>
      </trkpt>
      <trkpt lat="47.545881" lon="7.921096">
        <ele>290.554345</ele>
        <time>2021-11-19T06:55:02.473Z</time>
      </trkpt>
      <trkpt lat="47.545810" lon="7.921755">
        <ele>290.887163</ele>
        <time>2021-11-19T06:55:11.382Z</time>
      </trkpt>
      <trkpt lat="47.545778" lon="7.921947">
        <ele>291.221165</ele>
        <time>2021-11-19T06:55:14.991Z</time>
      </trkpt>
      <trkpt lat="47.545714" lon="7.922249">
        <ele>291.755752</ele>
        <time>2021-11-19T06:55:18.190Z</time>
      </trkpt>
      <trkpt lat="47.545699" lon="7.922325">
        <ele>291.889481</ele>
        <time>2021-11-19T06:55:19.387Z</time>
      </trkpt>
      <trkpt lat="47.545690" lon="7.922369">
        <ele>291.967128</ele>
        <time>2021-11-19T06:55:21.485Z</time>
      </trkpt>
      <trkpt lat="47.545641" lon="7.922610">
        <ele>292.392211</ele>
        <time>2021-11-19T06:55:23.839Z</time>
      </trkpt>
      <trkpt lat="47.545587" lon="7.922895">
        <ele>292.892145</ele>
        <time>2021-11-19T06:55:29.635Z</time>
      </trkpt>
      <trkpt lat="47.545553" lon="7.923142">
        <ele>293.317884</ele>
        <time>2021-11-19T06:55:32.282Z</time>
      </trkpt>
      <trkpt lat="47.545536" lon="7.923407">
        <ele>293.767454</ele>
        <time>2021-11-19T06:55:38.172Z</time>
      </trkpt>
      <trkpt lat="47.545521" lon="7.923709">
        <ele>294.278875</ele>
        <time>2021-11-19T06:55:42.325Z</time>
      </trkpt>
      <trkpt lat="47.545481" lon="7.924396">
        <ele>295.511417</ele>
        <time>2021-11-19T06:55:56.928Z</time>
      </trkpt>
      <trkpt lat="47.545466" lon="7.924880">
        <ele>296.678359</ele>
        <time>2021-11-19T06:56:08.235Z</time>
      </trkpt>
      <trkpt lat="47.545446" lon="7.925350">
        <ele>297.812602</ele>
        <time>2021-11-19T06:56:18.610Z</time>
      </trkpt>
      <trkpt lat="47.545417" lon="7.925848">
        <ele>299.016491</ele>
        <time>2021-11-19T06:56:29.089Z</time>
      </trkpt>
      <trkpt lat="47.545409" lon="7.926773">
        <ele>301.244539</ele>
        <time>2021-11-19T06:56:46.290Z</time>
      </trkpt>
      <trkpt lat="47.545407" lon="7.927001">
        <ele>301.707692</ele>
        <time>2021-11-19T06:56:50.099Z</time>
      </trkpt>
      <trkpt lat="47.545406" lon="7.927306">
        <ele>301.755498</ele>
        <time>2021-11-19T06:56:54.703Z</time>
      </trkpt>
      <trkpt lat="47.545421" lon="7.927686">
        <ele>301.815161</ele>
        <time>2021-11-19T06:57:00.239Z</time>
      </trkpt>
      <trkpt lat="47.545475" lon="7.928419">
        <ele>301.930734</ele>
        <time>2021-11-19T06:57:09.556Z</time>
      </trkpt>
      <trkpt lat="47.545563" lon="7.929641">
        <ele>302.086060</ele>
        <time>2021-11-19T06:57:19.436Z</time>
      </trkpt>
      <trkpt lat="47.545661" lon="7.930955">
        <ele>300.360421</ele>
        <time>2021-11-19T06:57:28.832Z</time>
      </trkpt>
      <trkpt lat="47.545696" lon="7.931497">
        <ele>299.649704</ele>
        <time>2021-11-19T06:57:32.800Z</time>
      </trkpt>
      <trkpt lat="47.545721" lon="7.931992">
        <ele>299.001761</ele>
        <time>2021-11-19T06:57:36.591Z</time>
      </trkpt>
      <trkpt lat="47.545724" lon="7.932758">
        <ele>298.636441</ele>
        <time>2021-11-19T06:57:42.803Z</time>
      </trkpt>
      <trkpt lat="47.545702" lon="7.933290">
        <ele>298.631345</ele>
        <time>2021-11-19T06:57:47.446Z</time>
      </trkpt>
      <trkpt lat="47.545686" lon="7.933484">
        <ele>298.629476</ele>
        <time>2021-11-19T06:57:49.260Z</time>
      </trkpt>
      <trkpt lat="47.545674" lon="7.933625">
        <ele>298.628118</ele>
        <time>2021-11-19T06:57:50.650Z</time>
      </trkpt>
      <trkpt lat="47.545457" lon="7.935110">
        <ele>298.837104</ele>
        <time>2021-11-19T06:58:08.772Z</time>
      </trkpt>
      <trkpt lat="47.545074" lon="7.936484">
        <ele>300.368021</ele>
        <time>2021-11-19T06:58:30.313Z</time>
      </trkpt>
      <trkpt lat="47.544903" lon="7.936917">
        <ele>300.884660</ele>
        <time>2021-11-19T06:58:37.629Z</time>
      </trkpt>
      <trkpt lat="47.544705" lon="7.937395">
        <ele>301.484499</ele>
        <time>2021-11-19T06:58:45.813Z</time>
      </trkpt>
      <trkpt lat="47.544472" lon="7.937932">
        <ele>302.284876</ele>
        <time>2021-11-19T06:58:55.220Z</time>
      </trkpt>
      <trkpt lat="47.543826" lon="7.939433">
        <ele>304.516789</ele>
        <time>2021-11-19T06:59:22.609Z</time>
      </trkpt>
      <trkpt lat="47.543435" lon="7.940670">
        <ele>305.767204</ele>
        <time>2021-11-19T06:59:42.430Z</time>
      </trkpt>
      <trkpt lat="47.543429" lon="7.940700">
        <ele>305.794575</ele>
        <time>2021-11-19T06:59:43.205Z</time>
      </trkpt>
      <trkpt lat="47.543161" lon="7.942213">
        <ele>306.972490</ele>
        <time>2021-11-19T07:00:03.281Z</time>
      </trkpt>
      <trkpt lat="47.543007" lon="7.943867">
        <ele>306.317071</ele>
        <time>2021-11-19T07:00:18.636Z</time>
      </trkpt>
      <trkpt lat="47.542913" lon="7.945267">
        <ele>305.293521</ele>
        <time>2021-11-19T07:00:29.511Z</time>
      </trkpt>
      <trkpt lat="47.542872" lon="7.945781">
        <ele>304.656564</ele>
        <time>2021-11-19T07:00:33.327Z</time>
      </trkpt>
      <trkpt lat="47.542875" lon="7.946089">
        <ele>304.277484</ele>
        <time>2021-11-19T07:00:35.561Z</time>
      </trkpt>
      <trkpt lat="47.542902" lon="7.946514">
        <ele>303.752145</ele>
        <time>2021-11-19T07:00:38.655Z</time>
      </trkpt>
      <trkpt lat="47.542943" lon="7.946806">
        <ele>303.385102</ele>
        <time>2021-11-19T07:00:40.866Z</time>
      </trkpt>
      <trkpt lat="47.542974" lon="7.946965">
        <ele>303.181431</ele>
        <time>2021-11-19T07:00:42.174Z</time>
      </trkpt>
      <trkpt lat="47.542979" lon="7.946989">
        <ele>303.150520</ele>
        <time>2021-11-19T07:00:42.331Z</time>
      </trkpt>
      <trkpt lat="47.542989" lon="7.947104">
        <ele>303.007826</ele>
        <time>2021-11-19T07:00:43.202Z</time>
      </trkpt>
      <trkpt lat="47.542984" lon="7.947304">
        <ele>302.761527</ele>
        <time>2021-11-19T07:00:44.777Z</time>
      </trkpt>
      <trkpt lat="47.542979" lon="7.947370">
        <ele>302.692127</ele>
        <time>2021-11-19T07:00:45.278Z</time>
      </trkpt>
      <trkpt lat="47.542935" lon="7.947564">
        <ele>302.556837</ele>
        <time>2021-11-19T07:00:46.845Z</time>
      </trkpt>
      <trkpt lat="47.542892" lon="7.947789">
        <ele>302.402254</ele>
        <time>2021-11-19T07:00:48.763Z</time>
      </trkpt>
      <trkpt lat="47.542875" lon="7.948001">
        <ele>302.261124</ele>
        <time>2021-11-19T07:00:50.579Z</time>
      </trkpt>
      <trkpt lat="47.542838" lon="7.948225">
        <ele>302.108679</ele>
        <time>2021-11-19T07:00:52.364Z</time>
      </trkpt>
      <trkpt lat="47.542826" lon="7.948298">
        <ele>302.059012</ele>
        <time>2021-11-19T07:00:52.985Z</time>
      </trkpt>
      <trkpt lat="47.542719" lon="7.949175">
        <ele>301.469871</ele>
        <time>2021-11-19T07:01:00.210Z</time>
      </trkpt>
      <trkpt lat="47.542609" lon="7.949914">
        <ele>300.969613</ele>
        <time>2021-11-19T07:01:06.984Z</time>
      </trkpt>
      <trkpt lat="47.542560" lon="7.950202">
        <ele>300.898045</ele>
        <time>2021-11-19T07:01:09.853Z</time>
      </trkpt>
      <trkpt lat="47.542554" lon="7.950231">
        <ele>300.892558</ele>
        <time>2021-11-19T07:01:10.128Z</time>
      </trkpt>
      <trkpt lat="47.542546" lon="7.950274">
        <ele>300.884489</ele>
        <time>2021-11-19T07:01:10.533Z</time>
      </trkpt>
      <trkpt lat="47.542444" lon="7.950687">
        <ele>300.804934</ele>
        <time>2021-11-19T07:01:14.996Z</time>
      </trkpt>
      <trkpt lat="47.542357" lon="7.951037">
        <ele>300.737463</ele>
        <time>2021-11-19T07:01:18.640Z</time>
      </trkpt>
      <trkpt lat="47.542192" lon="7.951713">
        <ele>300.607426</ele>
        <time>2021-11-19T07:01:25.587Z</time>
      </trkpt>
      <trkpt lat="47.542169" lon="7.951815">
        <ele>300.587972</ele>
        <time>2021-11-19T07:01:26.515Z</time>
      </trkpt>
      <trkpt lat="47.541991" lon="7.952667">
        <ele>300.450461</ele>
        <time>2021-11-19T07:01:34.796Z</time>
      </trkpt>
      <trkpt lat="47.541791" lon="7.953601">
        <ele>300.389195</ele>
        <time>2021-11-19T07:01:43.847Z</time>
      </trkpt>
      <trkpt lat="47.541773" lon="7.953695">
        <ele>300.383086</ele>
        <time>2021-11-19T07:01:44.784Z</time>
      </trkpt>
      <trkpt lat="47.541735" lon="7.953892">
        <ele>300.370276</ele>
        <time>2021-11-19T07:01:46.666Z</time>
      </trkpt>
      <trkpt lat="47.541660" lon="7.954250">
        <ele>300.346839</ele>
        <time>2021-11-19T07:01:50.425Z</time>
      </trkpt>
      <trkpt lat="47.541530" lon="7.954936">
        <ele>300.302289</ele>
        <time>2021-11-19T07:01:57.646Z</time>
      </trkpt>
      <trkpt lat="47.541482" lon="7.955294">
        <ele>300.295895</ele>
        <time>2021-11-19T07:02:01.694Z</time>
      </trkpt>
      <trkpt lat="47.541465" lon="7.955512">
        <ele>300.295444</ele>
        <time>2021-11-19T07:02:04.030Z</time>
      </trkpt>
      <trkpt lat="47.541442" lon="7.955866">
        <ele>300.294714</ele>
        <time>2021-11-19T07:02:08.215Z</time>
      </trkpt>
      <trkpt lat="47.541410" lon="7.956569">
        <ele>300.293266</ele>
        <time>2021-11-19T07:02:15.191Z</time>
      </trkpt>
      <trkpt lat="47.541404" lon="7.956677">
        <ele>300.293043</ele>
        <time>2021-11-19T07:02:16.885Z</time>
      </trkpt>
      <trkpt lat="47.541280" lon="7.957569">
        <ele>300.291172</ele>
        <time>2021-11-19T07:02:24.923Z</time>
      </trkpt>
      <trkpt lat="47.541237" lon="7.957756">
        <ele>300.263279</ele>
        <time>2021-11-19T07:02:27.480Z</time>
      </trkpt>
      <trkpt lat="47.541305" lon="7.957787">
        <ele>300.235085</ele>
        <time>2021-11-19T07:02:28.652Z</time>
      </trkpt>
      <trkpt lat="47.541539" lon="7.957892">
        <ele>300.138197</ele>
        <time>2021-11-19T07:02:33.208Z</time>
      </trkpt>
      <trkpt lat="47.541700" lon="7.957963">
        <ele>300.071630</ele>
        <time>2021-11-19T07:02:36.205Z</time>
      </trkpt>
      <trkpt lat="47.541830" lon="7.958033">
        <ele>300.016817</ele>
        <time>2021-11-19T07:02:38.596Z</time>
      </trkpt>
      <trkpt lat="47.542259" lon="7.958287">
        <ele>299.833741</ele>
        <time>2021-11-19T07:02:47.677Z</time>
      </trkpt>
      <trkpt lat="47.542441" lon="7.958428">
        <ele>299.752353</ele>
        <time>2021-11-19T07:02:51.200Z</time>
      </trkpt>
      <trkpt lat="47.542693" lon="7.958608">
        <ele>299.641490</ele>
        <time>2021-11-19T07:02:56.642Z</time>
      </trkpt>
      <trkpt lat="47.543178" lon="7.959043">
        <ele>299.902614</ele>
        <time>2021-11-19T07:03:07.372Z</time>
      </trkpt>
      <trkpt lat="47.543322" lon="7.959242">
        <ele>300.059444</ele>
        <time>2021-11-19T07:03:11.717Z</time>
      </trkpt>
      <trkpt lat="47.543374" lon="7.959437">
        <ele>300.172156</ele>
        <time>2021-11-19T07:03:14.938Z</time>
      </trkpt>
      <trkpt lat="47.543357" lon="7.959668">
        <ele>300.297074</ele>
        <time>2021-11-19T07:03:18.862Z</time>
      </trkpt>
      <trkpt lat="47.543170" lon="7.960060">
        <ele>300.555117</ele>
        <time>2021-11-19T07:03:26.970Z</time>
      </trkpt>
      <trkpt lat="47.542960" lon="7.960501">
        <ele>300.845245</ele>
        <time>2021-11-19T07:03:36.503Z</time>
      </trkpt>
      <trkpt lat="47.542861" lon="7.960776">
        <ele>301.014513</ele>
        <time>2021-11-19T07:03:42.330Z</time>
      </trkpt>
      <trkpt lat="47.542800" lon="7.960973">
        <ele>301.224099</ele>
        <time>2021-11-19T07:03:46.225Z</time>
      </trkpt>
      <trkpt lat="47.542731" lon="7.961265">
        <ele>301.523267</ele>
        <time>2021-11-19T07:03:51.868Z</time>
      </trkpt>
      <trkpt lat="47.542689" lon="7.961423">
        <ele>301.687474</ele>
        <time>2021-11-19T07:03:54.820Z</time>
      </trkpt>
      <trkpt lat="47.542619" lon="7.961728">
        <ele>301.998993</ele>
        <time>2021-11-19T07:04:00.635Z</time>
      </trkpt>
      <trkpt lat="47.542513" lon="7.962471">
        <ele>302.733354</ele>
        <time>2021-11-19T07:04:13.204Z</time>
      </trkpt>
      <trkpt lat="47.542516" lon="7.962915">
        <ele>303.162730</ele>
        <time>2021-11-19T07:04:20.714Z</time>
      </trkpt>
      <trkpt lat="47.542511" lon="7.963476">
        <ele>303.754240</ele>
        <time>2021-11-19T07:04:30.129Z</time>
      </trkpt>
      <trkpt lat="47.542495" lon="7.963580">
        <ele>303.900178</ele>
        <time>2021-11-19T07:04:32.000Z</time>
      </trkpt>
      <trkpt lat="47.542253" lon="7.965169">
        <ele>306.128847</ele>
        <time>2021-11-19T07:05:04.145Z</time>
      </trkpt>
      <trkpt lat="47.542271" lon="7.965269">
        <ele>306.270445</ele>
        <time>2021-11-19T07:05:06.120Z</time>
      </trkpt>
      <trkpt lat="47.542210" lon="7.965313">
        <ele>306.407956</ele>
        <time>2021-11-19T07:05:08.121Z</time>
      </trkpt>
      <trkpt lat="47.541714" lon="7.965522">
        <ele>307.462184</ele>
        <time>2021-11-19T07:05:20.018Z</time>
      </trkpt>
      <trkpt lat="47.541593" lon="7.965571">
        <ele>307.726877</ele>
        <time>2021-11-19T07:05:22.944Z</time>
      </trkpt>
      <trkpt lat="47.541502" lon="7.965586">
        <ele>307.920082</ele>
        <time>2021-11-19T07:05:25.257Z</time>
      </trkpt>
      <trkpt lat="47.541122" lon="7.967754">
        <ele>311.082139</ele>
        <time>2021-11-19T07:06:01.433Z</time>
      </trkpt>
      <trkpt lat="47.540988" lon="7.968696">
        <ele>311.979599</ele>
        <time>2021-11-19T07:06:13.454Z</time>
      </trkpt>
      <trkpt lat="47.540930" lon="7.969589">
        <ele>312.815939</ele>
        <time>2021-11-19T07:06:25.736Z</time>
      </trkpt>
      <trkpt lat="47.541007" lon="7.971034">
        <ele>313.946903</ele>
        <time>2021-11-19T07:06:45.846Z</time>
      </trkpt>
      <trkpt lat="47.541050" lon="7.971427">
        <ele>314.193267</ele>
        <time>2021-11-19T07:06:51.218Z</time>
      </trkpt>
      <trkpt lat="47.541111" lon="7.971844">
        <ele>314.457298</ele>
        <time>2021-11-19T07:06:56.702Z</time>
      </trkpt>
      <trkpt lat="47.541444" lon="7.973570">
        <ele>314.884763</ele>
        <time>2021-11-19T07:07:16.905Z</time>
      </trkpt>
      <trkpt lat="47.541613" lon="7.974143">
        <ele>314.622717</ele>
        <time>2021-11-19T07:07:22.492Z</time>
      </trkpt>
      <trkpt lat="47.542030" lon="7.976464">
        <ele>312.995196</ele>
        <time>2021-11-19T07:07:41.735Z</time>
      </trkpt>
      <trkpt lat="47.542119" lon="7.977479">
        <ele>311.943779</ele>
        <time>2021-11-19T07:07:49.532Z</time>
      </trkpt>
      <trkpt lat="47.542153" lon="7.979253">
        <ele>310.304773</ele>
        <time>2021-11-19T07:08:03.106Z</time>
      </trkpt>
      <trkpt lat="47.542138" lon="7.980233">
        <ele>309.454048</ele>
        <time>2021-11-19T07:08:10.824Z</time>
      </trkpt>
      <trkpt lat="47.542122" lon="7.980765">
        <ele>308.995091</ele>
        <time>2021-11-19T07:08:15.229Z</time>
      </trkpt>
      <trkpt lat="47.542087" lon="7.982565">
        <ele>309.255203</ele>
        <time>2021-11-19T07:08:32.472Z</time>
      </trkpt>
      <trkpt lat="47.542080" lon="7.982849">
        <ele>309.296254</ele>
        <time>2021-11-19T07:08:36.078Z</time>
      </trkpt>
      <trkpt lat="47.542076" lon="7.983000">
        <ele>309.318082</ele>
        <time>2021-11-19T07:08:38.000Z</time>
      </trkpt>
      <trkpt lat="47.542068" lon="7.983338">
        <ele>309.366935</ele>
        <time>2021-11-19T07:08:42.576Z</time>
      </trkpt>
      <trkpt lat="47.542145" lon="7.983983">
        <ele>310.182826</ele>
        <time>2021-11-19T07:08:51.755Z</time>
      </trkpt>
      <trkpt lat="47.542208" lon="7.984399">
        <ele>310.785828</ele>
        <time>2021-11-19T07:08:57.905Z</time>
      </trkpt>
      <trkpt lat="47.542126" lon="7.984398">
        <ele>310.957642</ele>
        <time>2021-11-19T07:08:59.755Z</time>
      </trkpt>
      <trkpt lat="47.541734" lon="7.984406">
        <ele>311.779044</ele>
        <time>2021-11-19T07:09:11.204Z</time>
      </trkpt>
      <trkpt lat="47.541183" lon="7.984395">
        <ele>312.933612</ele>
        <time>2021-11-19T07:09:28.367Z</time>
      </trkpt>
      <trkpt lat="47.540750" lon="7.984343">
        <ele>313.914201</ele>
        <time>2021-11-19T07:09:42.124Z</time>
      </trkpt>
      <trkpt lat="47.540609" lon="7.984254">
        <ele>314.267814</ele>
        <time>2021-11-19T07:09:47.209Z</time>
      </trkpt>
      <trkpt lat="47.540570" lon="7.984220">
        <ele>314.372220</ele>
        <time>2021-11-19T07:09:48.783Z</time>
      </trkpt>
      <trkpt lat="47.540197" lon="7.983795">
        <ele>315.457923</ele>
        <time>2021-11-19T07:10:02.998Z</time>
      </trkpt>
      <trkpt lat="47.540009" lon="7.983581">
        <ele>316.004943</ele>
        <time>2021-11-19T07:10:09.870Z</time>
      </trkpt>
      <trkpt lat="47.539746" lon="7.983424">
        <ele>316.659148</ele>
        <time>2021-11-19T07:10:17.585Z</time>
      </trkpt>
      <trkpt lat="47.539359" lon="7.983508">
        <ele>317.287928</ele>
        <time>2021-11-19T07:10:28.143Z</time>
      </trkpt>
      <trkpt lat="47.539266" lon="7.983513">
        <ele>317.279867</ele>
        <time>2021-11-19T07:10:30.952Z</time>
      </trkpt>
      <trkpt lat="47.539141" lon="7.984006">
        <ele>317.249075</ele>
        <time>2021-11-19T07:10:38.046Z</time>
      </trkpt>
      <trkpt lat="47.538988" lon="7.984674">
        <ele>317.207829</ele>
        <time>2021-11-19T07:10:44.883Z</time>
      </trkpt>
      <trkpt lat="47.538891" lon="7.984830">
        <ele>317.195427</ele>
        <time>2021-11-19T07:10:46.435Z</time>
      </trkpt>
      <trkpt lat="47.538208" lon="7.985592">
        <ele>317.021416</ele>
        <time>2021-11-19T07:10:56.471Z</time>
      </trkpt>
      <trkpt lat="47.537884" lon="7.985939">
        <ele>316.819358</ele>
        <time>2021-11-19T07:11:01.306Z</time>
      </trkpt>
      <trkpt lat="47.537812" lon="7.986127">
        <ele>316.745613</ele>
        <time>2021-11-19T07:11:03.729Z</time>
      </trkpt>
      <trkpt lat="47.537815" lon="7.986191">
        <ele>316.723725</ele>
        <time>2021-11-19T07:11:04.143Z</time>
      </trkpt>
      <trkpt lat="47.537821" lon="7.986433">
        <ele>316.641103</ele>
        <time>2021-11-19T07:11:06.315Z</time>
      </trkpt>
      <trkpt lat="47.537409" lon="7.986449">
        <ele>316.432816</ele>
        <time>2021-11-19T07:11:12.096Z</time>
      </trkpt>
      <trkpt lat="47.537167" lon="7.986470">
        <ele>316.310305</ele>
        <time>2021-11-19T07:11:15.324Z</time>
      </trkpt>
      <trkpt lat="47.536796" lon="7.986519">
        <ele>316.582885</ele>
        <time>2021-11-19T07:11:21.450Z</time>
      </trkpt>
      <trkpt lat="47.536685" lon="7.986543">
        <ele>316.761589</ele>
        <time>2021-11-19T07:11:23.911Z</time>
      </trkpt>
      <trkpt lat="47.536465" lon="7.986660">
        <ele>317.133969</ele>
        <time>2021-11-19T07:11:28.226Z</time>
      </trkpt>
      <trkpt lat="47.536140" lon="7.986963">
        <ele>317.745737</ele>
        <time>2021-11-19T07:11:37.357Z</time>
      </trkpt>
      <trkpt lat="47.535935" lon="7.987272">
        <ele>318.211677</ele>
        <time>2021-11-19T07:11:45.014Z</time>
      </trkpt>
      <trkpt lat="47.535862" lon="7.987408">
        <ele>318.398545</ele>
        <time>2021-11-19T07:11:47.605Z</time>
      </trkpt>
      <trkpt lat="47.535735" lon="7.987639">
        <ele>318.718949</ele>
        <time>2021-11-19T07:11:52.549Z</time>
      </trkpt>
      <trkpt lat="47.535393" lon="7.988043">
        <ele>319.149410</ele>
        <time>2021-11-19T07:12:01.772Z</time>
      </trkpt>
      <trkpt lat="47.535196" lon="7.988134">
        <ele>319.202236</ele>
        <time>2021-11-19T07:12:05.926Z</time>
      </trkpt>
      <trkpt lat="47.534985" lon="7.988144">
        <ele>319.256277</ele>
        <time>2021-11-19T07:12:09.549Z</time>
      </trkpt>
      <trkpt lat="47.534795" lon="7.988078">
        <ele>319.306234</ele>
        <time>2021-11-19T07:12:13.655Z</time>
      </trkpt>
      <trkpt lat="47.534771" lon="7.988562">
        <ele>319.390109</ele>
        <time>2021-11-19T07:12:20.678Z</time>
      </trkpt>
      <trkpt lat="47.534723" lon="7.989575">
        <ele>319.533573</ele>
        <time>2021-11-19T07:12:32.490Z</time>
      </trkpt>
      <trkpt lat="47.534609" lon="7.990394">
        <ele>318.995013</ele>
        <time>2021-11-19T07:12:41.866Z</time>
      </trkpt>
      <trkpt lat="47.534606" lon="7.990590">
        <ele>318.868749</ele>
        <time>2021-11-19T07:12:44.001Z</time>
      </trkpt>
      <trkpt lat="47.534644" lon="7.990797">
        <ele>318.730593</ele>
        <time>2021-11-19T07:12:46.596Z</time>
      </trkpt>
      <trkpt lat="47.534860" lon="7.991148">
        <ele>318.424721</ele>
        <time>2021-11-19T07:12:52.166Z</time>
      </trkpt>
      <trkpt lat="47.535110" lon="7.991631">
        <ele>318.032756</ele>
        <time>2021-11-19T07:12:59.559Z</time>
      </trkpt>
      <trkpt lat="47.535497" lon="7.992318">
        <ele>318.039582</ele>
        <time>2021-11-19T07:13:10.513Z</time>
      </trkpt>
      <trkpt lat="47.535603" lon="7.992576">
        <ele>318.138470</ele>
        <time>2021-11-19T07:13:15.177Z</time>
      </trkpt>
      <trkpt lat="47.535601" lon="7.992617">
        <ele>318.151929</ele>
        <time>2021-11-19T07:13:16.241Z</time>
      </trkpt>
      <trkpt lat="47.535530" lon="7.992828">
        <ele>318.229121</ele>
        <time>2021-11-19T07:13:19.130Z</time>
      </trkpt>
      <trkpt lat="47.535091" lon="7.993681">
        <ele>318.580309</ele>
        <time>2021-11-19T07:13:37.535Z</time>
      </trkpt>
      <trkpt lat="47.534115" lon="7.996823">
        <ele>320.326944</ele>
        <time>2021-11-19T07:14:33.574Z</time>
      </trkpt>
      <trkpt lat="47.532880" lon="7.998728">
        <ele>320.322011</ele>
        <time>2021-11-19T07:15:08.235Z</time>
      </trkpt>
      <trkpt lat="47.532745" lon="7.998891">
        <ele>320.304099</ele>
        <time>2021-11-19T07:15:11.578Z</time>
      </trkpt>
      <trkpt lat="47.532616" lon="7.998942">
        <ele>320.290369</ele>
        <time>2021-11-19T07:15:14.006Z</time>
      </trkpt>
      <trkpt lat="47.532314" lon="7.998991">
        <ele>320.259126</ele>
        <time>2021-11-19T07:15:19.764Z</time>
      </trkpt>
      <trkpt lat="47.532321" lon="7.999312">
        <ele>320.236826</ele>
        <time>2021-11-19T07:15:24.097Z</time>
      </trkpt>
      <trkpt lat="47.532283" lon="7.999633">
        <ele>320.214198</ele>
        <time>2021-11-19T07:15:28.274Z</time>
      </trkpt>
      <trkpt lat="47.532176" lon="8.000088">
        <ele>320.180745</ele>
        <time>2021-11-19T07:15:34.543Z</time>
      </trkpt>
      <trkpt lat="47.531789" lon="8.001140">
        <ele>321.117693</ele>
        <time>2021-11-19T07:15:52.899Z</time>
      </trkpt>
      <trkpt lat="47.531407" lon="8.001793">
        <ele>322.007860</ele>
        <time>2021-11-19T07:16:09.159Z</time>
      </trkpt>
      <trkpt lat="47.531127" lon="8.002157">
        <ele>322.576360</ele>
        <time>2021-11-19T07:16:20.136Z</time>
      </trkpt>
      <trkpt lat="47.530077" lon="8.003471">
        <ele>325.666355</ele>
        <time>2021-11-19T07:17:01.016Z</time>
      </trkpt>
      <trkpt lat="47.529391" lon="8.004422">
        <ele>327.763884</ele>
        <time>2021-11-19T07:17:29.704Z</time>
      </trkpt>
      <trkpt lat="47.529337" lon="8.004498">
        <ele>327.906189</ele>
        <time>2021-11-19T07:17:31.906Z</time>
      </trkpt>
      <trkpt lat="47.528852" lon="8.005150">
        <ele>329.157442</ele>
        <time>2021-11-19T07:17:49.178Z</time>
      </trkpt>
      <trkpt lat="47.528699" lon="8.005292">
        <ele>329.502364</ele>
        <time>2021-11-19T07:17:53.902Z</time>
      </trkpt>
      <trkpt lat="47.528598" lon="8.005386">
        <ele>329.730237</ele>
        <time>2021-11-19T07:17:56.906Z</time>
      </trkpt>
      <trkpt lat="47.527466" lon="8.006442">
        <ele>332.215433</ele>
        <time>2021-11-19T07:18:34.620Z</time>
      </trkpt>
      <trkpt lat="47.526398" lon="8.007517">
        <ele>334.308083</ele>
        <time>2021-11-19T07:19:09.742Z</time>
      </trkpt>
      <trkpt lat="47.525704" lon="8.008036">
        <ele>335.149375</ele>
        <time>2021-11-19T07:19:29.629Z</time>
      </trkpt>
      <trkpt lat="47.525125" lon="8.008474">
        <ele>335.852918</ele>
        <time>2021-11-19T07:19:44.606Z</time>
      </trkpt>
      <trkpt lat="47.523750" lon="8.009595">
        <ele>335.533383</ele>
        <time>2021-11-19T07:20:15.088Z</time>
      </trkpt>
      <trkpt lat="47.523475" lon="8.009886">
        <ele>335.418643</ele>
        <time>2021-11-19T07:20:21.286Z</time>
      </trkpt>
      <trkpt lat="47.522752" lon="8.010942">
        <ele>334.759495</ele>
        <time>2021-11-19T07:20:39.186Z</time>
      </trkpt>
      <trkpt lat="47.522135" lon="8.011541">
        <ele>334.314309</ele>
        <time>2021-11-19T07:20:52.423Z</time>
      </trkpt>
      <trkpt lat="47.521999" lon="8.011997">
        <ele>334.309499</ele>
        <time>2021-11-19T07:20:59.033Z</time>
      </trkpt>
      <trkpt lat="47.521884" lon="8.013019">
        <ele>334.299501</ele>
        <time>2021-11-19T07:21:13.727Z</time>
      </trkpt>
      <trkpt lat="47.521867" lon="8.013168">
        <ele>334.298043</ele>
        <time>2021-11-19T07:21:16.261Z</time>
      </trkpt>
      <trkpt lat="47.521857" lon="8.013314">
        <ele>334.296627</ele>
        <time>2021-11-19T07:21:17.762Z</time>
      </trkpt>
      <trkpt lat="47.521782" lon="8.013652">
        <ele>334.293194</ele>
        <time>2021-11-19T07:21:21.250Z</time>
      </trkpt>
      <trkpt lat="47.521611" lon="8.013949">
        <ele>334.289428</ele>
        <time>2021-11-19T07:21:24.865Z</time>
      </trkpt>
      <trkpt lat="47.521532" lon="8.014046">
        <ele>334.275232</ele>
        <time>2021-11-19T07:21:26.800Z</time>
      </trkpt>
      <trkpt lat="47.521508" lon="8.014076">
        <ele>334.270718</ele>
        <time>2021-11-19T07:21:27.275Z</time>
      </trkpt>
      <trkpt lat="47.521454" lon="8.014134">
        <ele>334.261130</ele>
        <time>2021-11-19T07:21:28.327Z</time>
      </trkpt>
      <trkpt lat="47.521292" lon="8.014319">
        <ele>334.231726</ele>
        <time>2021-11-19T07:21:31.202Z</time>
      </trkpt>
      <trkpt lat="47.521150" lon="8.014447">
        <ele>334.207833</ele>
        <time>2021-11-19T07:21:34.004Z</time>
      </trkpt>
      <trkpt lat="47.520953" lon="8.014530">
        <ele>334.178395</ele>
        <time>2021-11-19T07:21:36.893Z</time>
      </trkpt>
      <trkpt lat="47.520848" lon="8.014542">
        <ele>334.163259</ele>
        <time>2021-11-19T07:21:38.561Z</time>
      </trkpt>
      <trkpt lat="47.520539" lon="8.014558">
        <ele>334.118820</ele>
        <time>2021-11-19T07:21:42.604Z</time>
      </trkpt>
      <trkpt lat="47.520115" lon="8.014648">
        <ele>334.057256</ele>
        <time>2021-11-19T07:21:48.965Z</time>
      </trkpt>
      <trkpt lat="47.519666" lon="8.015011">
        <ele>334.161432</ele>
        <time>2021-11-19T07:21:56.186Z</time>
      </trkpt>
      <trkpt lat="47.519564" lon="8.015041">
        <ele>334.202850</ele>
        <time>2021-11-19T07:21:57.287Z</time>
      </trkpt>
      <trkpt lat="47.519570" lon="8.014933">
        <ele>334.231998</ele>
        <time>2021-11-19T07:21:58.008Z</time>
      </trkpt>
      <trkpt lat="47.519567" lon="8.014689">
        <ele>334.297638</ele>
        <time>2021-11-19T07:22:01.088Z</time>
      </trkpt>
      <trkpt lat="47.519560" lon="8.014397">
        <ele>334.376227</ele>
        <time>2021-11-19T07:22:03.467Z</time>
      </trkpt>
      <trkpt lat="47.519550" lon="8.014167">
        <ele>334.438219</ele>
        <time>2021-11-19T07:22:06.652Z</time>
      </trkpt>
      <trkpt lat="47.519542" lon="8.014115">
        <ele>334.452564</ele>
        <time>2021-11-19T07:22:09.042Z</time>
      </trkpt>
      <trkpt lat="47.519506" lon="8.013880">
        <ele>334.517379</ele>
        <time>2021-11-19T07:22:10.741Z</time>
      </trkpt>
      <trkpt lat="47.519407" lon="8.013567">
        <ele>334.610343</ele>
        <time>2021-11-19T07:22:16.728Z</time>
      </trkpt>
      <trkpt lat="47.519283" lon="8.013313">
        <ele>334.694644</ele>
        <time>2021-11-19T07:22:19.655Z</time>
      </trkpt>
      <trkpt lat="47.519066" lon="8.012986">
        <ele>335.033711</ele>
        <time>2021-11-19T07:22:26.083Z</time>
      </trkpt>
      <trkpt lat="47.518762" lon="8.012505">
        <ele>335.751347</ele>
        <time>2021-11-19T07:22:36.489Z</time>
      </trkpt>
      <trkpt lat="47.518672" lon="8.012356">
        <ele>335.969109</ele>
        <time>2021-11-19T07:22:40.551Z</time>
      </trkpt>
      <trkpt lat="47.518031" lon="8.011413">
        <ele>337.426611</ele>
        <time>2021-11-19T07:22:58.581Z</time>
      </trkpt>
      <trkpt lat="47.518005" lon="8.011373">
        <ele>337.487089</ele>
        <time>2021-11-19T07:22:59.409Z</time>
      </trkpt>
      <trkpt lat="47.517842" lon="8.011140">
        <ele>337.772206</ele>
        <time>2021-11-19T07:23:04.457Z</time>
      </trkpt>
      <trkpt lat="47.517559" lon="8.011519">
        <ele>338.145426</ele>
        <time>2021-11-19T07:23:12.364Z</time>
      </trkpt>
      <trkpt lat="47.517220" lon="8.011958">
        <ele>338.585916</ele>
        <time>2021-11-19T07:23:20.790Z</time>
      </trkpt>
      <trkpt lat="47.516968" lon="8.012240">
        <ele>338.894868</ele>
        <time>2021-11-19T07:23:26.208Z</time>
      </trkpt>
      <trkpt lat="47.515686" lon="8.013458">
        <ele>340.283405</ele>
        <time>2021-11-19T07:23:52.569Z</time>
      </trkpt>
      <trkpt lat="47.515654" lon="8.013483">
        <ele>340.315124</ele>
        <time>2021-11-19T07:23:53.351Z</time>
      </trkpt>
      <trkpt lat="47.515613" lon="8.013424">
        <ele>340.365247</ele>
        <time>2021-11-19T07:23:54.497Z</time>
      </trkpt>
      <trkpt lat="47.515541" lon="8.013407">
        <ele>340.429165</ele>
        <time>2021-11-19T07:23:55.852Z</time>
      </trkpt>
      <trkpt lat="47.515502" lon="8.013432">
        <ele>340.466422</ele>
        <time>2021-11-19T07:23:56.762Z</time>
      </trkpt>
      <trkpt lat="47.515475" lon="8.013469">
        <ele>340.498674</ele>
        <time>2021-11-19T07:23:57.433Z</time>
      </trkpt>
      <trkpt lat="47.515457" lon="8.013608">
        <ele>340.582475</ele>
        <time>2021-11-19T07:23:59.159Z</time>
      </trkpt>
      <trkpt lat="47.515468" lon="8.013643">
        <ele>340.605332</ele>
        <time>2021-11-19T07:23:59.621Z</time>
      </trkpt>
      <trkpt lat="47.515263" lon="8.013836">
        <ele>340.818304</ele>
        <time>2021-11-19T07:24:04.530Z</time>
      </trkpt>
      <trkpt lat="47.515054" lon="8.014017">
        <ele>341.056276</ele>
        <time>2021-11-19T07:24:09.280Z</time>
      </trkpt>
      <trkpt lat="47.514746" lon="8.014292">
        <ele>341.547518</ele>
        <time>2021-11-19T07:24:16.484Z</time>
      </trkpt>
      <trkpt lat="47.514628" lon="8.014407">
        <ele>341.740465</ele>
        <time>2021-11-19T07:24:19.355Z</time>
      </trkpt>
      <trkpt lat="47.514464" lon="8.014550">
        <ele>342.000417</ele>
        <time>2021-11-19T07:24:23.265Z</time>
      </trkpt>
      <trkpt lat="47.514283" lon="8.014708">
        <ele>342.287399</ele>
        <time>2021-11-19T07:24:27.503Z</time>
      </trkpt>
      <trkpt lat="47.514162" lon="8.014813">
        <ele>342.478956</ele>
        <time>2021-11-19T07:24:30.287Z</time>
      </trkpt>
      <trkpt lat="47.514036" lon="8.014936">
        <ele>342.685089</ele>
        <time>2021-11-19T07:24:33.560Z</time>
      </trkpt>
      <trkpt lat="47.513919" lon="8.015052">
        <ele>342.877409</ele>
        <time>2021-11-19T07:24:36.449Z</time>
      </trkpt>
      <trkpt lat="47.513872" lon="8.015092">
        <ele>342.951453</ele>
        <time>2021-11-19T07:24:37.521Z</time>
      </trkpt>
      <trkpt lat="47.513615" lon="8.015346">
        <ele>343.373489</ele>
        <time>2021-11-19T07:24:44.136Z</time>
      </trkpt>
      <trkpt lat="47.512943" lon="8.015998">
        <ele>344.006804</ele>
        <time>2021-11-19T07:24:59.947Z</time>
      </trkpt>
      <trkpt lat="47.512748" lon="8.016153">
        <ele>344.172869</ele>
        <time>2021-11-19T07:25:03.801Z</time>
      </trkpt>
      <trkpt lat="47.512572" lon="8.016270">
        <ele>344.317627</ele>
        <time>2021-11-19T07:25:06.976Z</time>
      </trkpt>
      <trkpt lat="47.512292" lon="8.016407">
        <ele>344.538892</ele>
        <time>2021-11-19T07:25:11.942Z</time>
      </trkpt>
      <trkpt lat="47.511937" lon="8.016578">
        <ele>344.780188</ele>
        <time>2021-11-19T07:25:17.892Z</time>
      </trkpt>
      <trkpt lat="47.511835" lon="8.016624">
        <ele>344.750544</ele>
        <time>2021-11-19T07:25:19.387Z</time>
      </trkpt>
      <trkpt lat="47.511079" lon="8.016999">
        <ele>344.528882</ele>
        <time>2021-11-19T07:25:30.977Z</time>
      </trkpt>
      <trkpt lat="47.510624" lon="8.017217">
        <ele>344.395926</ele>
        <time>2021-11-19T07:25:37.344Z</time>
      </trkpt>
      <trkpt lat="47.510117" lon="8.017458">
        <ele>344.213532</ele>
        <time>2021-11-19T07:25:44.087Z</time>
      </trkpt>
      <trkpt lat="47.509872" lon="8.017541">
        <ele>344.087502</ele>
        <time>2021-11-19T07:25:47.250Z</time>
      </trkpt>
      <trkpt lat="47.509728" lon="8.017576">
        <ele>344.014327</ele>
        <time>2021-11-19T07:25:49.206Z</time>
      </trkpt>
      <trkpt lat="47.509596" lon="8.017609">
        <ele>343.947199</ele>
        <time>2021-11-19T07:25:50.862Z</time>
      </trkpt>
      <trkpt lat="47.509437" lon="8.017668">
        <ele>343.865002</ele>
        <time>2021-11-19T07:25:52.986Z</time>
      </trkpt>
      <trkpt lat="47.509253" lon="8.017765">
        <ele>343.767061</ele>
        <time>2021-11-19T07:25:55.498Z</time>
      </trkpt>
      <trkpt lat="47.509105" lon="8.017861">
        <ele>343.686035</ele>
        <time>2021-11-19T07:25:57.602Z</time>
      </trkpt>
      <trkpt lat="47.508988" lon="8.017959">
        <ele>343.618627</ele>
        <time>2021-11-19T07:25:59.376Z</time>
      </trkpt>
      <trkpt lat="47.508896" lon="8.018035">
        <ele>343.565797</ele>
        <time>2021-11-19T07:26:00.683Z</time>
      </trkpt>
      <trkpt lat="47.508805" lon="8.018141">
        <ele>343.507734</ele>
        <time>2021-11-19T07:26:02.320Z</time>
      </trkpt>
      <trkpt lat="47.508699" lon="8.018304">
        <ele>343.431095</ele>
        <time>2021-11-19T07:26:04.437Z</time>
      </trkpt>
      <trkpt lat="47.508636" lon="8.018423">
        <ele>343.405630</ele>
        <time>2021-11-19T07:26:05.785Z</time>
      </trkpt>
      <trkpt lat="47.508617" lon="8.018463">
        <ele>343.437398</ele>
        <time>2021-11-19T07:26:06.237Z</time>
      </trkpt>
      <trkpt lat="47.508597" lon="8.018443">
        <ele>343.460610</ele>
        <time>2021-11-19T07:26:06.651Z</time>
      </trkpt>
      <trkpt lat="47.508507" lon="8.018455">
        <ele>343.547519</ele>
        <time>2021-11-19T07:26:08.144Z</time>
      </trkpt>
      <trkpt lat="47.508490" lon="8.018479">
        <ele>343.570111</ele>
        <time>2021-11-19T07:26:08.553Z</time>
      </trkpt>
      <trkpt lat="47.508475" lon="8.018519">
        <ele>343.599833</ele>
        <time>2021-11-19T07:26:08.988Z</time>
      </trkpt>
      <trkpt lat="47.508493" lon="8.018648">
        <ele>343.685408</ele>
        <time>2021-11-19T07:26:10.404Z</time>
      </trkpt>
      <trkpt lat="47.508517" lon="8.018677">
        <ele>343.715202</ele>
        <time>2021-11-19T07:26:10.821Z</time>
      </trkpt>
      <trkpt lat="47.508505" lon="8.018716">
        <ele>343.743044</ele>
        <time>2021-11-19T07:26:11.285Z</time>
      </trkpt>
      <trkpt lat="47.508436" lon="8.018909">
        <ele>343.884905</ele>
        <time>2021-11-19T07:26:13.909Z</time>
      </trkpt>
      <trkpt lat="47.508403" lon="8.018982">
        <ele>343.941970</ele>
        <time>2021-11-19T07:26:14.910Z</time>
      </trkpt>
      <trkpt lat="47.508273" lon="8.019268">
        <ele>344.165921</ele>
        <time>2021-11-19T07:26:19.085Z</time>
      </trkpt>
      <trkpt lat="47.508117" lon="8.019584">
        <ele>344.420194</ele>
        <time>2021-11-19T07:26:24.056Z</time>
      </trkpt>
      <trkpt lat="47.508075" lon="8.019669">
        <ele>344.488612</ele>
        <time>2021-11-19T07:26:25.512Z</time>
      </trkpt>
      <trkpt lat="47.508029" lon="8.019761">
        <ele>344.562973</ele>
        <time>2021-11-19T07:26:27.137Z</time>
      </trkpt>
      <trkpt lat="47.507951" lon="8.019911">
        <ele>344.685952</ele>
        <time>2021-11-19T07:26:29.829Z</time>
      </trkpt>
      <trkpt lat="47.507863" lon="8.020075">
        <ele>344.822021</ele>
        <time>2021-11-19T07:26:32.635Z</time>
      </trkpt>
      <trkpt lat="47.507666" lon="8.020400">
        <ele>345.105707</ele>
        <time>2021-11-19T07:26:39.000Z</time>
      </trkpt>
      <trkpt lat="47.507609" lon="8.020484">
        <ele>345.286411</ele>
        <time>2021-11-19T07:26:40.829Z</time>
      </trkpt>
      <trkpt lat="47.507466" lon="8.020697">
        <ele>345.794192</ele>
        <time>2021-11-19T07:26:45.639Z</time>
      </trkpt>
      <trkpt lat="47.507213" lon="8.021061">
        <ele>346.677302</ele>
        <time>2021-11-19T07:26:54.417Z</time>
      </trkpt>
      <trkpt lat="47.507007" lon="8.021362">
        <ele>347.401825</ele>
        <time>2021-11-19T07:27:01.987Z</time>
      </trkpt>
      <trkpt lat="47.506949" lon="8.021459">
        <ele>347.620867</ele>
        <time>2021-11-19T07:27:04.253Z</time>
      </trkpt>
      <trkpt lat="47.506910" lon="8.021529">
        <ele>347.774294</ele>
        <time>2021-11-19T07:27:05.753Z</time>
      </trkpt>
      <trkpt lat="47.506867" lon="8.021604">
        <ele>347.940631</ele>
        <time>2021-11-19T07:27:07.607Z</time>
      </trkpt>
      <trkpt lat="47.506735" lon="8.021861">
        <ele>348.486542</ele>
        <time>2021-11-19T07:27:13.489Z</time>
      </trkpt>
      <trkpt lat="47.506678" lon="8.022015">
        <ele>348.783467</ele>
        <time>2021-11-19T07:27:16.520Z</time>
      </trkpt>
      <trkpt lat="47.506655" lon="8.022123">
        <ele>348.974944</ele>
        <time>2021-11-19T07:27:18.637Z</time>
      </trkpt>
      <trkpt lat="47.506621" lon="8.022234">
        <ele>349.181029</ele>
        <time>2021-11-19T07:27:20.713Z</time>
      </trkpt>
      <trkpt lat="47.506535" lon="8.022414">
        <ele>349.553827</ele>
        <time>2021-11-19T07:27:24.287Z</time>
      </trkpt>
      <trkpt lat="47.506468" lon="8.022553">
        <ele>349.796162</ele>
        <time>2021-11-19T07:27:27.267Z</time>
      </trkpt>
      <trkpt lat="47.506258" lon="8.022985">
        <ele>350.507749</ele>
        <time>2021-11-19T07:27:35.953Z</time>
      </trkpt>
      <trkpt lat="47.506232" lon="8.023038">
        <ele>350.595324</ele>
        <time>2021-11-19T07:27:36.995Z</time>
      </trkpt>
      <trkpt lat="47.506199" lon="8.023103">
        <ele>350.704037</ele>
        <time>2021-11-19T07:27:38.283Z</time>
      </trkpt>
      <trkpt lat="47.505883" lon="8.023827">
        <ele>351.856503</ele>
        <time>2021-11-19T07:27:51.680Z</time>
      </trkpt>
      <trkpt lat="47.505697" lon="8.024216">
        <ele>352.493704</ele>
        <time>2021-11-19T07:27:58.770Z</time>
      </trkpt>
      <trkpt lat="47.505612" lon="8.024383">
        <ele>352.773271</ele>
        <time>2021-11-19T07:28:01.884Z</time>
      </trkpt>
      <trkpt lat="47.505559" lon="8.024486">
        <ele>352.946386</ele>
        <time>2021-11-19T07:28:03.642Z</time>
      </trkpt>
      <trkpt lat="47.505192" lon="8.025207">
        <ele>353.591195</ele>
        <time>2021-11-19T07:28:15.537Z</time>
      </trkpt>
      <trkpt lat="47.504823" lon="8.026024">
        <ele>354.145634</ele>
        <time>2021-11-19T07:28:27.469Z</time>
      </trkpt>
      <trkpt lat="47.504760" lon="8.026163">
        <ele>354.240066</ele>
        <time>2021-11-19T07:28:29.455Z</time>
      </trkpt>
      <trkpt lat="47.504725" lon="8.026244">
        <ele>354.294311</ele>
        <time>2021-11-19T07:28:30.707Z</time>
      </trkpt>
      <trkpt lat="47.504704" lon="8.026294">
        <ele>354.327526</ele>
        <time>2021-11-19T07:28:31.358Z</time>
      </trkpt>
      <trkpt lat="47.504676" lon="8.026276">
        <ele>354.353020</ele>
        <time>2021-11-19T07:28:31.867Z</time>
      </trkpt>
      <trkpt lat="47.504602" lon="8.026299">
        <ele>354.416167</ele>
        <time>2021-11-19T07:28:33.111Z</time>
      </trkpt>
      <trkpt lat="47.504574" lon="8.026349">
        <ele>354.452806</ele>
        <time>2021-11-19T07:28:33.841Z</time>
      </trkpt>
      <trkpt lat="47.504566" lon="8.026393">
        <ele>354.478513</ele>
        <time>2021-11-19T07:28:34.397Z</time>
      </trkpt>
      <trkpt lat="47.504579" lon="8.026477">
        <ele>354.527129</ele>
        <time>2021-11-19T07:28:35.327Z</time>
      </trkpt>
      <trkpt lat="47.504614" lon="8.026525">
        <ele>354.566975</ele>
        <time>2021-11-19T07:28:36.106Z</time>
      </trkpt>
      <trkpt lat="47.504606" lon="8.026545">
        <ele>354.580088</ele>
        <time>2021-11-19T07:28:36.512Z</time>
      </trkpt>
      <trkpt lat="47.504221" lon="8.027444">
        <ele>354.998070</ele>
        <time>2021-11-19T07:28:48.044Z</time>
      </trkpt>
      <trkpt lat="47.504063" lon="8.027828">
        <ele>355.158700</ele>
        <time>2021-11-19T07:28:52.946Z</time>
      </trkpt>
      <trkpt lat="47.503672" lon="8.028775">
        <ele>355.555209</ele>
        <time>2021-11-19T07:29:05.865Z</time>
      </trkpt>
      <trkpt lat="47.503617" lon="8.028907">
        <ele>355.610616</ele>
        <time>2021-11-19T07:29:07.718Z</time>
      </trkpt>
      <trkpt lat="47.503408" lon="8.029412">
        <ele>356.004462</ele>
        <time>2021-11-19T07:29:15.015Z</time>
      </trkpt>
      <trkpt lat="47.503055" lon="8.030264">
        <ele>356.707572</ele>
        <time>2021-11-19T07:29:27.437Z</time>
      </trkpt>
      <trkpt lat="47.502589" lon="8.031477">
        <ele>357.753439</ele>
        <time>2021-11-19T07:29:46.080Z</time>
      </trkpt>
      <trkpt lat="47.502278" lon="8.032378">
        <ele>358.716209</ele>
        <time>2021-11-19T07:30:00.442Z</time>
      </trkpt>
      <trkpt lat="47.502050" lon="8.032952">
        <ele>359.349816</ele>
        <time>2021-11-19T07:30:10.222Z</time>
      </trkpt>
      <trkpt lat="47.501972" lon="8.033162">
        <ele>359.577853</ele>
        <time>2021-11-19T07:30:13.242Z</time>
      </trkpt>
      <trkpt lat="47.501831" lon="8.033540">
        <ele>359.988729</ele>
        <time>2021-11-19T07:30:19.165Z</time>
      </trkpt>
      <trkpt lat="47.501831" lon="8.033540">
        <ele>359.988729</ele>
        <time>2021-11-19T07:30:19.177Z</time>
      </trkpt>
      <trkpt lat="47.501831" lon="8.033540">
        <ele>359.988729</ele>
        <time>2021-11-19T07:30:19.248Z</time>
      </trkpt>
      <trkpt lat="47.501785" lon="8.033665">
        <ele>360.074766</ele>
        <time>2021-11-19T07:30:20.973Z</time>
      </trkpt>
      <trkpt lat="47.501740" lon="8.033640">
        <ele>360.102456</ele>
        <time>2021-11-19T07:30:21.922Z</time>
      </trkpt>
      <trkpt lat="47.501690" lon="8.033644">
        <ele>360.131302</ele>
        <time>2021-11-19T07:30:22.950Z</time>
      </trkpt>
      <trkpt lat="47.501641" lon="8.033681">
        <ele>360.162991</ele>
        <time>2021-11-19T07:30:24.238Z</time>
      </trkpt>
      <trkpt lat="47.501609" lon="8.033741">
        <ele>360.192742</ele>
        <time>2021-11-19T07:30:25.261Z</time>
      </trkpt>
      <trkpt lat="47.501599" lon="8.033785">
        <ele>360.210809</ele>
        <time>2021-11-19T07:30:25.738Z</time>
      </trkpt>
      <trkpt lat="47.501629" lon="8.033943">
        <ele>360.274684</ele>
        <time>2021-11-19T07:30:27.703Z</time>
      </trkpt>
      <trkpt lat="47.501669" lon="8.033986">
        <ele>360.303163</ele>
        <time>2021-11-19T07:30:28.599Z</time>
      </trkpt>
      <trkpt lat="47.501641" lon="8.034168">
        <ele>360.375808</ele>
        <time>2021-11-19T07:30:31.351Z</time>
      </trkpt>
      <trkpt lat="47.501430" lon="8.035235">
        <ele>360.808497</ele>
        <time>2021-11-19T07:30:44.728Z</time>
      </trkpt>
      <trkpt lat="47.501342" lon="8.036045">
        <ele>361.048576</ele>
        <time>2021-11-19T07:30:52.496Z</time>
      </trkpt>
      <trkpt lat="47.501269" lon="8.036713">
        <ele>360.903214</ele>
        <time>2021-11-19T07:30:58.336Z</time>
      </trkpt>
      <trkpt lat="47.501181" lon="8.037704">
        <ele>360.688499</ele>
        <time>2021-11-19T07:31:06.802Z</time>
      </trkpt>
      <trkpt lat="47.501141" lon="8.038290">
        <ele>360.561976</ele>
        <time>2021-11-19T07:31:12.500Z</time>
      </trkpt>
      <trkpt lat="47.501117" lon="8.038538">
        <ele>360.508158</ele>
        <time>2021-11-19T07:31:14.981Z</time>
      </trkpt>
      <trkpt lat="47.501107" lon="8.038707">
        <ele>360.658521</ele>
        <time>2021-11-19T07:31:17.083Z</time>
      </trkpt>
      <trkpt lat="47.501072" lon="8.038707">
        <ele>360.710184</ele>
        <time>2021-11-19T07:31:17.781Z</time>
      </trkpt>
      <trkpt lat="47.500988" lon="8.038796">
        <ele>360.862667</ele>
        <time>2021-11-19T07:31:19.524Z</time>
      </trkpt>
      <trkpt lat="47.500977" lon="8.038845">
        <ele>360.914158</ele>
        <time>2021-11-19T07:31:20.182Z</time>
      </trkpt>
      <trkpt lat="47.500977" lon="8.038902">
        <ele>360.970999</ele>
        <time>2021-11-19T07:31:20.769Z</time>
      </trkpt>
      <trkpt lat="47.501046" lon="8.039028">
        <ele>361.132744</ele>
        <time>2021-11-19T07:31:22.387Z</time>
      </trkpt>
      <trkpt lat="47.501083" lon="8.039040">
        <ele>361.188655</ele>
        <time>2021-11-19T07:31:23.452Z</time>
      </trkpt>
      <trkpt lat="47.501026" lon="8.040085">
        <ele>362.234137</ele>
        <time>2021-11-19T07:31:37.400Z</time>
      </trkpt>
      <trkpt lat="47.501026" lon="8.040085">
        <ele>362.234137</ele>
        <time>2021-11-19T07:31:37.524Z</time>
      </trkpt>
      <trkpt lat="47.501009" lon="8.040934">
        <ele>363.081146</ele>
        <time>2021-11-19T07:31:51.401Z</time>
      </trkpt>
      <trkpt lat="47.501065" lon="8.041677">
        <ele>364.141779</ele>
        <time>2021-11-19T07:32:03.955Z</time>
      </trkpt>
      <trkpt lat="47.501123" lon="8.042252">
        <ele>364.995471</ele>
        <time>2021-11-19T07:32:14.498Z</time>
      </trkpt>
      <trkpt lat="47.501234" lon="8.043345">
        <ele>366.618468</ele>
        <time>2021-11-19T07:32:31.483Z</time>
      </trkpt>
      <trkpt lat="47.501358" lon="8.044092">
        <ele>367.444678</ele>
        <time>2021-11-19T07:32:42.065Z</time>
      </trkpt>
      <trkpt lat="47.501515" lon="8.044851">
        <ele>368.089390</ele>
        <time>2021-11-19T07:32:52.168Z</time>
      </trkpt>
      <trkpt lat="47.501759" lon="8.046002">
        <ele>369.069179</ele>
        <time>2021-11-19T07:33:07.371Z</time>
      </trkpt>
      <trkpt lat="47.502029" lon="8.047540">
        <ele>371.054294</ele>
        <time>2021-11-19T07:33:29.918Z</time>
      </trkpt>
      <trkpt lat="47.502044" lon="8.047705">
        <ele>371.272752</ele>
        <time>2021-11-19T07:33:32.600Z</time>
      </trkpt>
      <trkpt lat="47.502090" lon="8.048236">
        <ele>371.975216</ele>
        <time>2021-11-19T07:33:41.022Z</time>
      </trkpt>
      <trkpt lat="47.502094" lon="8.049547">
        <ele>374.376107</ele>
        <time>2021-11-19T07:34:03.757Z</time>
      </trkpt>
      <trkpt lat="47.502020" lon="8.051188">
        <ele>378.048004</ele>
        <time>2021-11-19T07:34:36.303Z</time>
      </trkpt>
      <trkpt lat="47.501923" lon="8.053252">
        <ele>382.137451</ele>
        <time>2021-11-19T07:35:16.823Z</time>
      </trkpt>
      <trkpt lat="47.501857" lon="8.054265">
        <ele>383.788581</ele>
        <time>2021-11-19T07:35:32.079Z</time>
      </trkpt>
      <trkpt lat="47.501851" lon="8.054393">
        <ele>383.755802</ele>
        <time>2021-11-19T07:35:34.105Z</time>
      </trkpt>
      <trkpt lat="47.501806" lon="8.054996">
        <ele>383.600812</ele>
        <time>2021-11-19T07:35:41.227Z</time>
      </trkpt>
      <trkpt lat="47.501784" lon="8.055340">
        <ele>383.512534</ele>
        <time>2021-11-19T07:35:44.425Z</time>
      </trkpt>
      <trkpt lat="47.501751" lon="8.055654">
        <ele>383.431350</ele>
        <time>2021-11-19T07:35:47.320Z</time>
      </trkpt>
      <trkpt lat="47.501717" lon="8.055892">
        <ele>383.369201</ele>
        <time>2021-11-19T07:35:49.193Z</time>
      </trkpt>
      <trkpt lat="47.501459" lon="8.056906">
        <ele>382.998489</ele>
        <time>2021-11-19T07:35:57.299Z</time>
      </trkpt>
      <trkpt lat="47.501356" lon="8.057344">
        <ele>382.671243</ele>
        <time>2021-11-19T07:36:00.677Z</time>
      </trkpt>
      <trkpt lat="47.501329" lon="8.057318">
        <ele>382.637600</ele>
        <time>2021-11-19T07:36:01.256Z</time>
      </trkpt>
      <trkpt lat="47.501221" lon="8.057344">
        <ele>382.523316</ele>
        <time>2021-11-19T07:36:02.605Z</time>
      </trkpt>
      <trkpt lat="47.501197" lon="8.057405">
        <ele>382.473506</ele>
        <time>2021-11-19T07:36:03.339Z</time>
      </trkpt>
      <trkpt lat="47.501190" lon="8.057442">
        <ele>382.446394</ele>
        <time>2021-11-19T07:36:03.570Z</time>
      </trkpt>
      <trkpt lat="47.501236" lon="8.057572">
        <ele>382.342843</ele>
        <time>2021-11-19T07:36:04.686Z</time>
      </trkpt>
      <trkpt lat="47.501265" lon="8.057592">
        <ele>382.309428</ele>
        <time>2021-11-19T07:36:04.984Z</time>
      </trkpt>
      <trkpt lat="47.501139" lon="8.058076">
        <ele>381.943432</ele>
        <time>2021-11-19T07:36:09.194Z</time>
      </trkpt>
      <trkpt lat="47.500919" lon="8.058927">
        <ele>381.300489</ele>
        <time>2021-11-19T07:36:18.022Z</time>
      </trkpt>
      <trkpt lat="47.500708" lon="8.059752">
        <ele>381.754082</ele>
        <time>2021-11-19T07:36:27.521Z</time>
      </trkpt>
      <trkpt lat="47.500604" lon="8.060344">
        <ele>382.110965</ele>
        <time>2021-11-19T07:36:36.103Z</time>
      </trkpt>
      <trkpt lat="47.500588" lon="8.060437">
        <ele>382.166956</ele>
        <time>2021-11-19T07:36:37.631Z</time>
      </trkpt>
      <trkpt lat="47.500573" lon="8.060533">
        <ele>382.224445</ele>
        <time>2021-11-19T07:36:39.097Z</time>
      </trkpt>
      <trkpt lat="47.500538" lon="8.060723">
        <ele>382.339346</ele>
        <time>2021-11-19T07:36:41.239Z</time>
      </trkpt>
      <trkpt lat="47.500438" lon="8.061324">
        <ele>382.700473</ele>
        <time>2021-11-19T07:36:48.759Z</time>
      </trkpt>
      <trkpt lat="47.500421" lon="8.061418">
        <ele>382.757247</ele>
        <time>2021-11-19T07:36:51.407Z</time>
      </trkpt>
      <trkpt lat="47.500357" lon="8.061762">
        <ele>382.942519</ele>
        <time>2021-11-19T07:36:55.023Z</time>
      </trkpt>
      <trkpt lat="47.500321" lon="8.061955">
        <ele>383.040889</ele>
        <time>2021-11-19T07:36:58.231Z</time>
      </trkpt>
      <trkpt lat="47.500111" lon="8.062899">
        <ele>383.529183</ele>
        <time>2021-11-19T07:37:10.154Z</time>
      </trkpt>
      <trkpt lat="47.500065" lon="8.063116">
        <ele>383.640922</ele>
        <time>2021-11-19T07:37:12.293Z</time>
      </trkpt>
      <trkpt lat="47.499972" lon="8.063575">
        <ele>383.876358</ele>
        <time>2021-11-19T07:37:18.144Z</time>
      </trkpt>
      <trkpt lat="47.499921" lon="8.063941">
        <ele>384.059963</ele>
        <time>2021-11-19T07:37:21.568Z</time>
      </trkpt>
      <trkpt lat="47.499832" lon="8.064625">
        <ele>384.856106</ele>
        <time>2021-11-19T07:37:30.208Z</time>
      </trkpt>
      <trkpt lat="47.499809" lon="8.064788">
        <ele>385.073556</ele>
        <time>2021-11-19T07:37:33.671Z</time>
      </trkpt>
      <trkpt lat="47.499770" lon="8.065082">
        <ele>385.464814</ele>
        <time>2021-11-19T07:37:36.152Z</time>
      </trkpt>
      <trkpt lat="47.499682" lon="8.065635">
        <ele>386.206724</ele>
        <time>2021-11-19T07:37:44.243Z</time>
      </trkpt>
      <trkpt lat="47.499668" lon="8.065730">
        <ele>386.333700</ele>
        <time>2021-11-19T07:37:47.536Z</time>
      </trkpt>
      <trkpt lat="47.499610" lon="8.066051">
        <ele>386.767619</ele>
        <time>2021-11-19T07:37:51.067Z</time>
      </trkpt>
      <trkpt lat="47.499591" lon="8.066154">
        <ele>386.907048</ele>
        <time>2021-11-19T07:37:52.777Z</time>
      </trkpt>
      <trkpt lat="47.499531" lon="8.066460">
        <ele>387.323136</ele>
        <time>2021-11-19T07:38:00.560Z</time>
      </trkpt>
      <trkpt lat="47.499519" lon="8.066520">
        <ele>387.404850</ele>
        <time>2021-11-19T07:38:00.935Z</time>
      </trkpt>
      <trkpt lat="47.499201" lon="8.068229">
        <ele>392.247410</ele>
        <time>2021-11-19T07:38:40.021Z</time>
      </trkpt>
      <trkpt lat="47.499148" lon="8.068524">
        <ele>393.122527</ele>
        <time>2021-11-19T07:38:48.858Z</time>
      </trkpt>
      <trkpt lat="47.499104" lon="8.068766">
        <ele>393.840994</ele>
        <time>2021-11-19T07:38:52.854Z</time>
      </trkpt>
      <trkpt lat="47.499075" lon="8.068991">
        <ele>394.497672</ele>
        <time>2021-11-19T07:38:58.232Z</time>
      </trkpt>
      <trkpt lat="47.499075" lon="8.068991">
        <ele>394.497672</ele>
        <time>2021-11-19T07:38:58.381Z</time>
      </trkpt>
      <trkpt lat="47.499026" lon="8.069468">
        <ele>395.581388</ele>
        <time>2021-11-19T07:39:08.414Z</time>
      </trkpt>
      <trkpt lat="47.499016" lon="8.069840">
        <ele>396.151888</ele>
        <time>2021-11-19T07:39:16.436Z</time>
      </trkpt>
      <trkpt lat="47.499170" lon="8.072504">
        <ele>399.159508</ele>
        <time>2021-11-19T07:39:55.121Z</time>
      </trkpt>
      <trkpt lat="47.499138" lon="8.073263">
        <ele>398.962424</ele>
        <time>2021-11-19T07:40:01.175Z</time>
      </trkpt>
      <trkpt lat="47.499051" lon="8.073942">
        <ele>398.783319</ele>
        <time>2021-11-19T07:40:06.860Z</time>
      </trkpt>
      <trkpt lat="47.499013" lon="8.074135">
        <ele>398.731220</ele>
        <time>2021-11-19T07:40:08.340Z</time>
      </trkpt>
      <trkpt lat="47.498960" lon="8.074378">
        <ele>398.665044</ele>
        <time>2021-11-19T07:40:10.590Z</time>
      </trkpt>
      <trkpt lat="47.498924" lon="8.074527">
        <ele>398.628088</ele>
        <time>2021-11-19T07:40:11.876Z</time>
      </trkpt>
      <trkpt lat="47.498880" lon="8.074711">
        <ele>398.642925</ele>
        <time>2021-11-19T07:40:13.373Z</time>
      </trkpt>
      <trkpt lat="47.498775" lon="8.075058">
        <ele>398.671827</ele>
        <time>2021-11-19T07:40:16.626Z</time>
      </trkpt>
      <trkpt lat="47.498061" lon="8.076857">
        <ele>398.838783</ele>
        <time>2021-11-19T07:40:38.822Z</time>
      </trkpt>
      <trkpt lat="47.497745" lon="8.077494">
        <ele>399.463659</ele>
        <time>2021-11-19T07:40:50.853Z</time>
      </trkpt>
      <trkpt lat="47.497325" lon="8.078131">
        <ele>400.167447</ele>
        <time>2021-11-19T07:41:03.010Z</time>
      </trkpt>
      <trkpt lat="47.497208" lon="8.078293">
        <ele>400.354954</ele>
        <time>2021-11-19T07:41:06.458Z</time>
      </trkpt>
      <trkpt lat="47.497084" lon="8.078448">
        <ele>400.544907</ele>
        <time>2021-11-19T07:41:09.181Z</time>
      </trkpt>
      <trkpt lat="47.497112" lon="8.078490">
        <ele>400.591563</ele>
        <time>2021-11-19T07:41:10.284Z</time>
      </trkpt>
      <trkpt lat="47.497125" lon="8.078508">
        <ele>400.612398</ele>
        <time>2021-11-19T07:41:10.922Z</time>
      </trkpt>
      <trkpt lat="47.497038" lon="8.078610">
        <ele>400.742292</ele>
        <time>2021-11-19T07:41:13.748Z</time>
      </trkpt>
      <trkpt lat="47.496793" lon="8.078891">
        <ele>401.001736</ele>
        <time>2021-11-19T07:41:20.989Z</time>
      </trkpt>
      <trkpt lat="47.496446" lon="8.079280">
        <ele>401.202436</ele>
        <time>2021-11-19T07:41:30.759Z</time>
      </trkpt>
      <trkpt lat="47.496380" lon="8.079285">
        <ele>401.232906</ele>
        <time>2021-11-19T07:41:31.611Z</time>
      </trkpt>
      <trkpt lat="47.496040" lon="8.079701">
        <ele>401.436296</ele>
        <time>2021-11-19T07:41:38.753Z</time>
      </trkpt>
      <trkpt lat="47.495859" lon="8.079943">
        <ele>401.548757</ele>
        <time>2021-11-19T07:41:42.873Z</time>
      </trkpt>
      <trkpt lat="47.495681" lon="8.080229">
        <ele>401.669889</ele>
        <time>2021-11-19T07:41:46.837Z</time>
      </trkpt>
      <trkpt lat="47.495562" lon="8.080466">
        <ele>401.761874</ele>
        <time>2021-11-19T07:41:49.890Z</time>
      </trkpt>
      <trkpt lat="47.495515" lon="8.080558">
        <ele>401.844825</ele>
        <time>2021-11-19T07:41:51.127Z</time>
      </trkpt>
      <trkpt lat="47.495384" lon="8.080873">
        <ele>402.119733</ele>
        <time>2021-11-19T07:41:55.188Z</time>
      </trkpt>
      <trkpt lat="47.495292" lon="8.081144">
        <ele>402.345140</ele>
        <time>2021-11-19T07:41:58.958Z</time>
      </trkpt>
      <trkpt lat="47.495281" lon="8.081177">
        <ele>402.372489</ele>
        <time>2021-11-19T07:41:59.480Z</time>
      </trkpt>
      <trkpt lat="47.495207" lon="8.081445">
        <ele>402.587664</ele>
        <time>2021-11-19T07:42:02.871Z</time>
      </trkpt>
      <trkpt lat="47.495162" lon="8.081632">
        <ele>402.735198</ele>
        <time>2021-11-19T07:42:05.590Z</time>
      </trkpt>
      <trkpt lat="47.495132" lon="8.081754">
        <ele>402.831690</ele>
        <time>2021-11-19T07:42:07.283Z</time>
      </trkpt>
      <trkpt lat="47.495088" lon="8.082021">
        <ele>403.035947</ele>
        <time>2021-11-19T07:42:10.803Z</time>
      </trkpt>
      <trkpt lat="47.495034" lon="8.082354">
        <ele>403.290469</ele>
        <time>2021-11-19T07:42:15.487Z</time>
      </trkpt>
      <trkpt lat="47.495018" lon="8.082502">
        <ele>403.401866</ele>
        <time>2021-11-19T07:42:17.491Z</time>
      </trkpt>
      <trkpt lat="47.494982" lon="8.082826">
        <ele>403.645905</ele>
        <time>2021-11-19T07:42:22.245Z</time>
      </trkpt>
      <trkpt lat="47.494963" lon="8.083009">
        <ele>403.818908</ele>
        <time>2021-11-19T07:42:25.017Z</time>
      </trkpt>
      <trkpt lat="47.494933" lon="8.083243">
        <ele>404.148307</ele>
        <time>2021-11-19T07:42:28.905Z</time>
      </trkpt>
      <trkpt lat="47.494898" lon="8.083514">
        <ele>404.529888</ele>
        <time>2021-11-19T07:42:33.201Z</time>
      </trkpt>
      <trkpt lat="47.494822" lon="8.084015">
        <ele>405.240026</ele>
        <time>2021-11-19T07:42:41.754Z</time>
      </trkpt>
      <trkpt lat="47.494749" lon="8.084368">
        <ele>405.750586</ele>
        <time>2021-11-19T07:42:47.958Z</time>
      </trkpt>
      <trkpt lat="47.494666" lon="8.084717">
        <ele>406.262286</ele>
        <time>2021-11-19T07:42:53.888Z</time>
      </trkpt>
      <trkpt lat="47.494652" lon="8.084779">
        <ele>406.352695</ele>
        <time>2021-11-19T07:42:54.948Z</time>
      </trkpt>
      <trkpt lat="47.494640" lon="8.084828">
        <ele>406.424777</ele>
        <time>2021-11-19T07:42:55.739Z</time>
      </trkpt>
      <trkpt lat="47.494445" lon="8.085612">
        <ele>407.547084</ele>
        <time>2021-11-19T07:43:08.106Z</time>
      </trkpt>
      <trkpt lat="47.494237" lon="8.086449">
        <ele>408.518896</ele>
        <time>2021-11-19T07:43:21.023Z</time>
      </trkpt>
      <trkpt lat="47.494042" lon="8.087271">
        <ele>409.468236</ele>
        <time>2021-11-19T07:43:33.724Z</time>
      </trkpt>
      <trkpt lat="47.493891" lon="8.087911">
        <ele>410.206945</ele>
        <time>2021-11-19T07:43:43.179Z</time>
      </trkpt>
      <trkpt lat="47.493802" lon="8.088286">
        <ele>410.604666</ele>
        <time>2021-11-19T07:43:48.739Z</time>
      </trkpt>
      <trkpt lat="47.493532" lon="8.089427">
        <ele>411.774124</ele>
        <time>2021-11-19T07:44:04.115Z</time>
      </trkpt>
      <trkpt lat="47.493523" lon="8.089470">
        <ele>411.817670</ele>
        <time>2021-11-19T07:44:04.673Z</time>
      </trkpt>
      <trkpt lat="47.493453" lon="8.089837">
        <ele>412.186556</ele>
        <time>2021-11-19T07:44:10.092Z</time>
      </trkpt>
      <trkpt lat="47.493381" lon="8.090217">
        <ele>412.568324</ele>
        <time>2021-11-19T07:44:16.154Z</time>
      </trkpt>
      <trkpt lat="47.493362" lon="8.090313">
        <ele>412.665090</ele>
        <time>2021-11-19T07:44:17.596Z</time>
      </trkpt>
      <trkpt lat="47.493318" lon="8.090521">
        <ele>412.875927</ele>
        <time>2021-11-19T07:44:20.407Z</time>
      </trkpt>
      <trkpt lat="47.493278" lon="8.090706">
        <ele>413.135737</ele>
        <time>2021-11-19T07:44:24.029Z</time>
      </trkpt>
      <trkpt lat="47.493199" lon="8.091055">
        <ele>413.648008</ele>
        <time>2021-11-19T07:44:29.311Z</time>
      </trkpt>
      <trkpt lat="47.493176" lon="8.091152">
        <ele>413.791084</ele>
        <time>2021-11-19T07:44:31.316Z</time>
      </trkpt>
      <trkpt lat="47.493111" lon="8.091365">
        <ele>414.116371</ele>
        <time>2021-11-19T07:44:34.890Z</time>
      </trkpt>
      <trkpt lat="47.493013" lon="8.091685">
        <ele>414.605360</ele>
        <time>2021-11-19T07:44:40.688Z</time>
      </trkpt>
      <trkpt lat="47.493004" lon="8.091715">
        <ele>414.651045</ele>
        <time>2021-11-19T07:44:41.244Z</time>
      </trkpt>
      <trkpt lat="47.492943" lon="8.091916">
        <ele>414.957720</ele>
        <time>2021-11-19T07:44:44.315Z</time>
      </trkpt>
      <trkpt lat="47.492908" lon="8.092021">
        <ele>415.120675</ele>
        <time>2021-11-19T07:44:46.029Z</time>
      </trkpt>
      <trkpt lat="47.492785" lon="8.092387">
        <ele>415.689607</ele>
        <time>2021-11-19T07:44:52.743Z</time>
      </trkpt>
      <trkpt lat="47.492561" lon="8.093030">
        <ele>416.685372</ele>
        <time>2021-11-19T07:45:03.956Z</time>
      </trkpt>
      <trkpt lat="47.492222" lon="8.094030">
        <ele>418.053614</ele>
        <time>2021-11-19T07:45:21.797Z</time>
      </trkpt>
      <trkpt lat="47.491531" lon="8.095826">
        <ele>420.489404</ele>
        <time>2021-11-19T07:45:51.186Z</time>
      </trkpt>
      <trkpt lat="47.491186" lon="8.096629">
        <ele>421.505010</ele>
        <time>2021-11-19T07:46:04.288Z</time>
      </trkpt>
      <trkpt lat="47.490966" lon="8.097142">
        <ele>422.153495</ele>
        <time>2021-11-19T07:46:12.784Z</time>
      </trkpt>
      <trkpt lat="47.490321" lon="8.098647">
        <ele>424.973825</ele>
        <time>2021-11-19T07:46:39.987Z</time>
      </trkpt>
      <trkpt lat="47.489995" lon="8.099422">
        <ele>426.608763</ele>
        <time>2021-11-19T07:46:56.009Z</time>
      </trkpt>
      <trkpt lat="47.489912" lon="8.099621">
        <ele>427.027585</ele>
        <time>2021-11-19T07:47:00.285Z</time>
      </trkpt>
      <trkpt lat="47.489698" lon="8.100128">
        <ele>428.725479</ele>
        <time>2021-11-19T07:47:11.915Z</time>
      </trkpt>
      <trkpt lat="47.489550" lon="8.100488">
        <ele>430.231963</ele>
        <time>2021-11-19T07:47:22.005Z</time>
      </trkpt>
      <trkpt lat="47.489497" lon="8.100620">
        <ele>430.780888</ele>
        <time>2021-11-19T07:47:26.020Z</time>
      </trkpt>
      <trkpt lat="47.489406" lon="8.100900">
        <ele>431.891658</ele>
        <time>2021-11-19T07:47:34.854Z</time>
      </trkpt>
      <trkpt lat="47.489218" lon="8.101622">
        <ele>434.657842</ele>
        <time>2021-11-19T07:47:58.940Z</time>
      </trkpt>
      <trkpt lat="47.489160" lon="8.101908">
        <ele>435.725358</ele>
        <time>2021-11-19T07:48:06.247Z</time>
      </trkpt>
      <trkpt lat="47.488961" lon="8.102990">
        <ele>438.383138</ele>
        <time>2021-11-19T07:48:26.840Z</time>
      </trkpt>
      <trkpt lat="47.488863" lon="8.103453">
        <ele>439.265411</ele>
        <time>2021-11-19T07:48:36.578Z</time>
      </trkpt>
      <trkpt lat="47.488766" lon="8.103832">
        <ele>440.002377</ele>
        <time>2021-11-19T07:48:41.416Z</time>
      </trkpt>
      <trkpt lat="47.488623" lon="8.104263">
        <ele>440.875504</ele>
        <time>2021-11-19T07:48:51.472Z</time>
      </trkpt>
      <trkpt lat="47.488025" lon="8.105557">
        <ele>444.621782</ele>
        <time>2021-11-19T07:49:10.836Z</time>
      </trkpt>
      <trkpt lat="47.487723" lon="8.106230">
        <ele>446.782760</ele>
        <time>2021-11-19T07:49:29.547Z</time>
      </trkpt>
      <trkpt lat="47.487526" lon="8.106968">
        <ele>448.905283</ele>
        <time>2021-11-19T07:49:50.712Z</time>
      </trkpt>
      <trkpt lat="47.487493" lon="8.107281">
        <ele>450.618639</ele>
        <time>2021-11-19T07:50:00.121Z</time>
      </trkpt>
      <trkpt lat="47.487488" lon="8.107690">
        <ele>452.885370</ele>
        <time>2021-11-19T07:50:12.165Z</time>
      </trkpt>
      <trkpt lat="47.487522" lon="8.108181">
        <ele>455.620357</ele>
        <time>2021-11-19T07:50:27.327Z</time>
      </trkpt>
      <trkpt lat="47.487592" lon="8.108945">
        <ele>459.892583</ele>
        <time>2021-11-19T07:50:52.704Z</time>
      </trkpt>
      <trkpt lat="47.487704" lon="8.110209">
        <ele>467.651075</ele>
        <time>2021-11-19T07:51:39.150Z</time>
      </trkpt>
      <trkpt lat="47.487750" lon="8.110724">
        <ele>471.142227</ele>
        <time>2021-11-19T07:51:58.356Z</time>
      </trkpt>
      <trkpt lat="47.487784" lon="8.111079">
        <ele>473.551839</ele>
        <time>2021-11-19T07:52:11.798Z</time>
      </trkpt>
      <trkpt lat="47.487816" lon="8.111427">
        <ele>475.912117</ele>
        <time>2021-11-19T07:52:24.907Z</time>
      </trkpt>
      <trkpt lat="47.487873" lon="8.112054">
        <ele>480.163809</ele>
        <time>2021-11-19T07:52:48.714Z</time>
      </trkpt>
      <trkpt lat="47.487928" lon="8.112601">
        <ele>484.080980</ele>
        <time>2021-11-19T07:53:09.193Z</time>
      </trkpt>
      <trkpt lat="47.487946" lon="8.113698">
        <ele>492.099016</ele>
        <time>2021-11-19T07:53:50.374Z</time>
      </trkpt>
      <trkpt lat="47.487880" lon="8.114431">
        <ele>497.502317</ele>
        <time>2021-11-19T07:54:19.567Z</time>
      </trkpt>
      <trkpt lat="47.487657" lon="8.115463">
        <ele>506.018297</ele>
        <time>2021-11-19T07:55:05.934Z</time>
      </trkpt>
      <trkpt lat="47.487583" lon="8.115667">
        <ele>507.941037</ele>
        <time>2021-11-19T07:55:17.284Z</time>
      </trkpt>
      <trkpt lat="47.486845" lon="8.117095">
        <ele>522.870275</ele>
        <time>2021-11-19T07:56:36.568Z</time>
      </trkpt>
      <trkpt lat="47.486571" lon="8.117656">
        <ele>526.442834</ele>
        <time>2021-11-19T07:57:04.975Z</time>
      </trkpt>
      <trkpt lat="47.486268" lon="8.118191">
        <ele>529.940095</ele>
        <time>2021-11-19T07:57:28.560Z</time>
      </trkpt>
      <trkpt lat="47.485564" lon="8.119205">
        <ele>536.554584</ele>
        <time>2021-11-19T07:58:02.654Z</time>
      </trkpt>
      <trkpt lat="47.485363" lon="8.119586">
        <ele>536.828924</ele>
        <time>2021-11-19T07:58:09.110Z</time>
      </trkpt>
      <trkpt lat="47.485011" lon="8.120456">
        <ele>537.404457</ele>
        <time>2021-11-19T07:58:20.048Z</time>
      </trkpt>
      <trkpt lat="47.484889" lon="8.120748">
        <ele>537.599309</ele>
        <time>2021-11-19T07:58:22.985Z</time>
      </trkpt>
      <trkpt lat="47.484812" lon="8.120917">
        <ele>537.714996</ele>
        <time>2021-11-19T07:58:25.597Z</time>
      </trkpt>
      <trkpt lat="47.484688" lon="8.121120">
        <ele>537.870309</ele>
        <time>2021-11-19T07:58:27.850Z</time>
      </trkpt>
      <trkpt lat="47.484520" lon="8.121330">
        <ele>537.965396</ele>
        <time>2021-11-19T07:58:31.083Z</time>
      </trkpt>
      <trkpt lat="47.484367" lon="8.121479">
        <ele>537.936034</ele>
        <time>2021-11-19T07:58:33.284Z</time>
      </trkpt>
      <trkpt lat="47.484058" lon="8.121717">
        <ele>537.880191</ele>
        <time>2021-11-19T07:58:38.093Z</time>
      </trkpt>
      <trkpt lat="47.484027" lon="8.121739">
        <ele>537.874679</ele>
        <time>2021-11-19T07:58:38.784Z</time>
      </trkpt>
      <trkpt lat="47.483946" lon="8.121799">
        <ele>537.860158</ele>
        <time>2021-11-19T07:58:40.317Z</time>
      </trkpt>
      <trkpt lat="47.483830" lon="8.121913">
        <ele>537.837835</ele>
        <time>2021-11-19T07:58:41.990Z</time>
      </trkpt>
      <trkpt lat="47.483747" lon="8.122015">
        <ele>537.820540</ele>
        <time>2021-11-19T07:58:43.257Z</time>
      </trkpt>
      <trkpt lat="47.483715" lon="8.122061">
        <ele>537.813388</ele>
        <time>2021-11-19T07:58:44.343Z</time>
      </trkpt>
      <trkpt lat="47.483395" lon="8.122774">
        <ele>537.720662</ele>
        <time>2021-11-19T07:58:53.124Z</time>
      </trkpt>
      <trkpt lat="47.483204" lon="8.123277">
        <ele>537.664736</ele>
        <time>2021-11-19T07:58:58.975Z</time>
      </trkpt>
      <trkpt lat="47.482968" lon="8.123897">
        <ele>537.602893</ele>
        <time>2021-11-19T07:59:06.517Z</time>
      </trkpt>
      <trkpt lat="47.482747" lon="8.124448">
        <ele>537.547207</ele>
        <time>2021-11-19T07:59:12.448Z</time>
      </trkpt>
      <trkpt lat="47.482507" lon="8.124964">
        <ele>537.492767</ele>
        <time>2021-11-19T07:59:18.096Z</time>
      </trkpt>
      <trkpt lat="47.481997" lon="8.125997">
        <ele>537.945539</ele>
        <time>2021-11-19T07:59:30.286Z</time>
      </trkpt>
      <trkpt lat="47.481879" lon="8.126325">
        <ele>538.145148</ele>
        <time>2021-11-19T07:59:36.001Z</time>
      </trkpt>
      <trkpt lat="47.481779" lon="8.126701">
        <ele>538.362211</ele>
        <time>2021-11-19T07:59:40.981Z</time>
      </trkpt>
      <trkpt lat="47.481722" lon="8.127177">
        <ele>538.621898</ele>
        <time>2021-11-19T07:59:46.594Z</time>
      </trkpt>
      <trkpt lat="47.481690" lon="8.127694">
        <ele>538.927529</ele>
        <time>2021-11-19T07:59:53.738Z</time>
      </trkpt>
      <trkpt lat="47.481655" lon="8.128429">
        <ele>540.287227</ele>
        <time>2021-11-19T08:00:05.007Z</time>
      </trkpt>
      <trkpt lat="47.481607" lon="8.129456">
        <ele>542.186934</ele>
        <time>2021-11-19T08:00:24.062Z</time>
      </trkpt>
      <trkpt lat="47.481589" lon="8.129851">
        <ele>542.917506</ele>
        <time>2021-11-19T08:00:32.024Z</time>
      </trkpt>
      <trkpt lat="47.481509" lon="8.130687">
        <ele>544.908494</ele>
        <time>2021-11-19T08:00:48.039Z</time>
      </trkpt>
      <trkpt lat="47.481421" lon="8.131045">
        <ele>546.062581</ele>
        <time>2021-11-19T08:00:54.317Z</time>
      </trkpt>
      <trkpt lat="47.481323" lon="8.131382">
        <ele>547.174040</ele>
        <time>2021-11-19T08:01:01.484Z</time>
      </trkpt>
      <trkpt lat="47.480899" lon="8.132641">
        <ele>551.435586</ele>
        <time>2021-11-19T08:01:34.287Z</time>
      </trkpt>
      <trkpt lat="47.480724" lon="8.133367">
        <ele>554.603037</ele>
        <time>2021-11-19T08:01:55.958Z</time>
      </trkpt>
      <trkpt lat="47.480608" lon="8.134090">
        <ele>557.836845</ele>
        <time>2021-11-19T08:02:17.314Z</time>
      </trkpt>
      <trkpt lat="47.480460" lon="8.135036">
        <ele>562.062537</ele>
        <time>2021-11-19T08:02:45.191Z</time>
      </trkpt>
      <trkpt lat="47.480431" lon="8.135333">
        <ele>563.368451</ele>
        <time>2021-11-19T08:02:52.248Z</time>
      </trkpt>
      <trkpt lat="47.480428" lon="8.135495">
        <ele>563.818186</ele>
        <time>2021-11-19T08:02:57.853Z</time>
      </trkpt>
      <trkpt lat="47.480445" lon="8.135745">
        <ele>564.466857</ele>
        <time>2021-11-19T08:03:03.763Z</time>
      </trkpt>
      <trkpt lat="47.480497" lon="8.136071">
        <ele>565.331598</ele>
        <time>2021-11-19T08:03:12.712Z</time>
      </trkpt>
      <trkpt lat="47.480611" lon="8.136738">
        <ele>567.107767</ele>
        <time>2021-11-19T08:03:27.559Z</time>
      </trkpt>
      <trkpt lat="47.480729" lon="8.137479">
        <ele>569.073149</ele>
        <time>2021-11-19T08:03:42.926Z</time>
      </trkpt>
      <trkpt lat="47.480849" lon="8.138227">
        <ele>570.616926</ele>
        <time>2021-11-19T08:03:51.206Z</time>
      </trkpt>
      <trkpt lat="47.480926" lon="8.138706">
        <ele>571.132351</ele>
        <time>2021-11-19T08:03:56.476Z</time>
      </trkpt>
      <trkpt lat="47.480931" lon="8.138738">
        <ele>571.166734</ele>
        <time>2021-11-19T08:03:56.666Z</time>
      </trkpt>
      <trkpt lat="47.480997" lon="8.139156">
        <ele>571.616095</ele>
        <time>2021-11-19T08:04:03.625Z</time>
      </trkpt>
      <trkpt lat="47.481047" lon="8.139151">
        <ele>571.693720</ele>
        <time>2021-11-19T08:04:04.139Z</time>
      </trkpt>
      <trkpt lat="47.481211" lon="8.139188">
        <ele>571.950684</ele>
        <time>2021-11-19T08:04:06.835Z</time>
      </trkpt>
      <trkpt lat="47.481334" lon="8.139233">
        <ele>572.146943</ele>
        <time>2021-11-19T08:04:10.629Z</time>
      </trkpt>
      <trkpt lat="47.481570" lon="8.139330">
        <ele>572.526337</ele>
        <time>2021-11-19T08:04:14.462Z</time>
      </trkpt>
      <trkpt lat="47.481795" lon="8.139350">
        <ele>572.875481</ele>
        <time>2021-11-19T08:04:20.856Z</time>
      </trkpt>
      <trkpt lat="47.481930" lon="8.139364">
        <ele>573.085102</ele>
        <time>2021-11-19T08:04:24.343Z</time>
      </trkpt>
      <trkpt lat="47.482269" lon="8.139354">
        <ele>574.104852</ele>
        <time>2021-11-19T08:04:33.854Z</time>
      </trkpt>
      <trkpt lat="47.482314" lon="8.139339">
        <ele>574.245844</ele>
        <time>2021-11-19T08:04:35.120Z</time>
      </trkpt>
      <trkpt lat="47.482382" lon="8.139311">
        <ele>574.461587</ele>
        <time>2021-11-19T08:04:39.310Z</time>
      </trkpt>
      <trkpt lat="47.482938" lon="8.138763">
        <ele>576.503519</ele>
        <time>2021-11-19T08:04:55.123Z</time>
      </trkpt>
      <trkpt lat="47.482993" lon="8.138736">
        <ele>576.680639</ele>
        <time>2021-11-19T08:04:58.473Z</time>
      </trkpt>
      <trkpt lat="47.483055" lon="8.138704">
        <ele>576.881343</ele>
        <time>2021-11-19T08:04:59.904Z</time>
      </trkpt>
      <trkpt lat="47.483799" lon="8.138672">
        <ele>578.772823</ele>
        <time>2021-11-19T08:05:20.799Z</time>
      </trkpt>
      <trkpt lat="47.483932" lon="8.138672">
        <ele>578.899183</ele>
        <time>2021-11-19T08:05:23.418Z</time>
      </trkpt>
      <trkpt lat="47.484101" lon="8.138667">
        <ele>579.059777</ele>
        <time>2021-11-19T08:05:27.229Z</time>
      </trkpt>
      <trkpt lat="47.484611" lon="8.138600">
        <ele>579.546220</ele>
        <time>2021-11-19T08:05:37.195Z</time>
      </trkpt>
      <trkpt lat="47.485087" lon="8.139024">
        <ele>580.074068</ele>
        <time>2021-11-19T08:05:44.810Z</time>
      </trkpt>
      <trkpt lat="47.485614" lon="8.139130">
        <ele>580.182279</ele>
        <time>2021-11-19T08:05:52.020Z</time>
      </trkpt>
      <trkpt lat="47.485679" lon="8.139129">
        <ele>580.153442</ele>
        <time>2021-11-19T08:05:52.780Z</time>
      </trkpt>
      <trkpt lat="47.485769" lon="8.139093">
        <ele>580.112083</ele>
        <time>2021-11-19T08:05:56.587Z</time>
      </trkpt>
      <trkpt lat="47.485914" lon="8.138973">
        <ele>580.038382</ele>
        <time>2021-11-19T08:06:02.443Z</time>
      </trkpt>
      <trkpt lat="47.486150" lon="8.138614">
        <ele>579.888237</ele>
        <time>2021-11-19T08:06:14.447Z</time>
      </trkpt>
      <trkpt lat="47.486244" lon="8.138406">
        <ele>579.813223</ele>
        <time>2021-11-19T08:06:20.415Z</time>
      </trkpt>
      <trkpt lat="47.486385" lon="8.138090">
        <ele>579.699703</ele>
        <time>2021-11-19T08:06:29.264Z</time>
      </trkpt>
      <trkpt lat="47.486480" lon="8.137926">
        <ele>579.634948</ele>
        <time>2021-11-19T08:06:34.860Z</time>
      </trkpt>
      <trkpt lat="47.486500" lon="8.137887">
        <ele>579.620271</ele>
        <time>2021-11-19T08:06:36.014Z</time>
      </trkpt>
      <trkpt lat="47.486625" lon="8.137748">
        <ele>579.550907</ele>
        <time>2021-11-19T08:06:38.052Z</time>
      </trkpt>
      <trkpt lat="47.486647" lon="8.137734">
        <ele>579.540283</ele>
        <time>2021-11-19T08:06:38.288Z</time>
      </trkpt>
      <trkpt lat="47.487129" lon="8.137532">
        <ele>578.949600</ele>
        <time>2021-11-19T08:06:45.143Z</time>
      </trkpt>
      <trkpt lat="47.487220" lon="8.137494">
        <ele>578.827455</ele>
        <time>2021-11-19T08:06:46.304Z</time>
      </trkpt>
      <trkpt lat="47.487735" lon="8.137374">
        <ele>578.153981</ele>
        <time>2021-11-19T08:06:52.268Z</time>
      </trkpt>
      <trkpt lat="47.488213" lon="8.137151">
        <ele>577.506542</ele>
        <time>2021-11-19T08:06:57.844Z</time>
      </trkpt>
      <trkpt lat="47.488465" lon="8.137151">
        <ele>577.183102</ele>
        <time>2021-11-19T08:07:00.696Z</time>
      </trkpt>
      <trkpt lat="47.488649" lon="8.137254">
        <ele>577.013988</ele>
        <time>2021-11-19T08:07:02.951Z</time>
      </trkpt>
      <trkpt lat="47.488837" lon="8.137371">
        <ele>576.838665</ele>
        <time>2021-11-19T08:07:05.263Z</time>
      </trkpt>
      <trkpt lat="47.488954" lon="8.137431">
        <ele>576.732218</ele>
        <time>2021-11-19T08:07:06.736Z</time>
      </trkpt>
      <trkpt lat="47.489423" lon="8.137655">
        <ele>576.308565</ele>
        <time>2021-11-19T08:07:12.709Z</time>
      </trkpt>
      <trkpt lat="47.490265" lon="8.137935">
        <ele>575.708439</ele>
        <time>2021-11-19T08:07:24.230Z</time>
      </trkpt>
      <trkpt lat="47.490479" lon="8.137973">
        <ele>575.876292</ele>
        <time>2021-11-19T08:07:27.665Z</time>
      </trkpt>
      <trkpt lat="47.490906" lon="8.138091">
        <ele>576.214577</ele>
        <time>2021-11-19T08:07:35.613Z</time>
      </trkpt>
      <trkpt lat="47.491438" lon="8.138230">
        <ele>576.635293</ele>
        <time>2021-11-19T08:07:46.632Z</time>
      </trkpt>
      <trkpt lat="47.491600" lon="8.138244">
        <ele>576.761669</ele>
        <time>2021-11-19T08:07:49.787Z</time>
      </trkpt>
      <trkpt lat="47.492088" lon="8.138269">
        <ele>576.940534</ele>
        <time>2021-11-19T08:07:59.152Z</time>
      </trkpt>
      <trkpt lat="47.492211" lon="8.138284">
        <ele>576.843334</ele>
        <time>2021-11-19T08:08:01.544Z</time>
      </trkpt>
      <trkpt lat="47.492313" lon="8.138377">
        <ele>576.748979</ele>
        <time>2021-11-19T08:08:03.630Z</time>
      </trkpt>
      <trkpt lat="47.492359" lon="8.138479">
        <ele>576.683719</ele>
        <time>2021-11-19T08:08:05.019Z</time>
      </trkpt>
      <trkpt lat="47.492379" lon="8.138603">
        <ele>576.615878</ele>
        <time>2021-11-19T08:08:06.710Z</time>
      </trkpt>
      <trkpt lat="47.492651" lon="8.141002">
        <ele>574.011704</ele>
        <time>2021-11-19T08:08:25.792Z</time>
      </trkpt>
      <trkpt lat="47.492634" lon="8.141132">
        <ele>573.637513</ele>
        <time>2021-11-19T08:08:26.638Z</time>
      </trkpt>
      <trkpt lat="47.492604" lon="8.141229">
        <ele>573.336045</ele>
        <time>2021-11-19T08:08:27.325Z</time>
      </trkpt>
      <trkpt lat="47.492178" lon="8.141991">
        <ele>570.541146</ele>
        <time>2021-11-19T08:08:33.719Z</time>
      </trkpt>
      <trkpt lat="47.492091" lon="8.142144">
        <ele>569.976039</ele>
        <time>2021-11-19T08:08:34.975Z</time>
      </trkpt>
      <trkpt lat="47.492031" lon="8.142263">
        <ele>569.556440</ele>
        <time>2021-11-19T08:08:35.916Z</time>
      </trkpt>
      <trkpt lat="47.491977" lon="8.142556">
        <ele>568.698177</ele>
        <time>2021-11-19T08:08:37.792Z</time>
      </trkpt>
      <trkpt lat="47.491957" lon="8.142795">
        <ele>567.992234</ele>
        <time>2021-11-19T08:08:39.307Z</time>
      </trkpt>
      <trkpt lat="47.491953" lon="8.143034">
        <ele>567.115097</ele>
        <time>2021-11-19T08:08:40.762Z</time>
      </trkpt>
      <trkpt lat="47.491965" lon="8.143321">
        <ele>566.060108</ele>
        <time>2021-11-19T08:08:42.550Z</time>
      </trkpt>
      <trkpt lat="47.492011" lon="8.143597">
        <ele>565.017142</ele>
        <time>2021-11-19T08:08:44.358Z</time>
      </trkpt>
      <trkpt lat="47.492053" lon="8.143800">
        <ele>564.238223</ele>
        <time>2021-11-19T08:08:45.663Z</time>
      </trkpt>
      <trkpt lat="47.492087" lon="8.143971">
        <ele>563.584244</ele>
        <time>2021-11-19T08:08:46.812Z</time>
      </trkpt>
      <trkpt lat="47.492087" lon="8.144186">
        <ele>562.795431</ele>
        <time>2021-11-19T08:08:48.154Z</time>
      </trkpt>
      <trkpt lat="47.492088" lon="8.144557">
        <ele>561.434261</ele>
        <time>2021-11-19T08:08:50.460Z</time>
      </trkpt>
      <trkpt lat="47.492088" lon="8.145158">
        <ele>559.229256</ele>
        <time>2021-11-19T08:08:54.225Z</time>
      </trkpt>
      <trkpt lat="47.492088" lon="8.145254">
        <ele>558.877042</ele>
        <time>2021-11-19T08:08:54.843Z</time>
      </trkpt>
      <trkpt lat="47.492082" lon="8.145838">
        <ele>557.499514</ele>
        <time>2021-11-19T08:08:58.624Z</time>
      </trkpt>
      <trkpt lat="47.492079" lon="8.146009">
        <ele>557.171719</ele>
        <time>2021-11-19T08:08:59.782Z</time>
      </trkpt>
      <trkpt lat="47.492088" lon="8.146482">
        <ele>556.264958</ele>
        <time>2021-11-19T08:09:02.961Z</time>
      </trkpt>
      <trkpt lat="47.492125" lon="8.146571">
        <ele>556.064713</ele>
        <time>2021-11-19T08:09:03.688Z</time>
      </trkpt>
      <trkpt lat="47.492241" lon="8.146624">
        <ele>555.720413</ele>
        <time>2021-11-19T08:09:04.874Z</time>
      </trkpt>
      <trkpt lat="47.492464" lon="8.146635">
        <ele>555.087628</ele>
        <time>2021-11-19T08:09:07.275Z</time>
      </trkpt>
      <trkpt lat="47.494351" lon="8.146113">
        <ele>552.324511</ele>
        <time>2021-11-19T08:09:30.221Z</time>
      </trkpt>
      <trkpt lat="47.494476" lon="8.146116">
        <ele>552.234607</ele>
        <time>2021-11-19T08:09:32.186Z</time>
      </trkpt>
      <trkpt lat="47.494550" lon="8.146113">
        <ele>552.181371</ele>
        <time>2021-11-19T08:09:33.375Z</time>
      </trkpt>
      <trkpt lat="47.495167" lon="8.146162">
        <ele>551.940235</ele>
        <time>2021-11-19T08:09:43.001Z</time>
      </trkpt>
      <trkpt lat="47.495291" lon="8.146216">
        <ele>551.939496</ele>
        <time>2021-11-19T08:09:45.286Z</time>
      </trkpt>
      <trkpt lat="47.495330" lon="8.146238">
        <ele>551.939257</ele>
        <time>2021-11-19T08:09:45.931Z</time>
      </trkpt>
      <trkpt lat="47.495531" lon="8.146431">
        <ele>551.937887</ele>
        <time>2021-11-19T08:09:50.258Z</time>
      </trkpt>
      <trkpt lat="47.495811" lon="8.147525">
        <ele>551.933368</ele>
        <time>2021-11-19T08:10:02.702Z</time>
      </trkpt>
      <trkpt lat="47.496048" lon="8.148514">
        <ele>551.407701</ele>
        <time>2021-11-19T08:10:11.395Z</time>
      </trkpt>
      <trkpt lat="47.496081" lon="8.148674">
        <ele>551.258246</ele>
        <time>2021-11-19T08:10:12.694Z</time>
      </trkpt>
      <trkpt lat="47.496114" lon="8.148836">
        <ele>551.107082</ele>
        <time>2021-11-19T08:10:14.050Z</time>
      </trkpt>
      <trkpt lat="47.496100" lon="8.148965">
        <ele>550.990357</ele>
        <time>2021-11-19T08:10:15.033Z</time>
      </trkpt>
      <trkpt lat="47.496064" lon="8.149222">
        <ele>550.755873</ele>
        <time>2021-11-19T08:10:17.022Z</time>
      </trkpt>
      <trkpt lat="47.495916" lon="8.150228">
        <ele>549.836059</ele>
        <time>2021-11-19T08:10:24.918Z</time>
      </trkpt>
      <trkpt lat="47.495907" lon="8.150548">
        <ele>549.551216</ele>
        <time>2021-11-19T08:10:27.497Z</time>
      </trkpt>
      <trkpt lat="47.495926" lon="8.150795">
        <ele>549.415250</ele>
        <time>2021-11-19T08:10:29.370Z</time>
      </trkpt>
      <trkpt lat="47.495980" lon="8.151500">
        <ele>549.027190</ele>
        <time>2021-11-19T08:10:35.193Z</time>
      </trkpt>
      <trkpt lat="47.496013" lon="8.152224">
        <ele>548.630309</ele>
        <time>2021-11-19T08:10:41.352Z</time>
      </trkpt>
      <trkpt lat="47.496031" lon="8.152401">
        <ele>548.532410</ele>
        <time>2021-11-19T08:10:43.073Z</time>
      </trkpt>
      <trkpt lat="47.496043" lon="8.152517">
        <ele>548.468227</ele>
        <time>2021-11-19T08:10:44.539Z</time>
      </trkpt>
      <trkpt lat="47.496252" lon="8.153481">
        <ele>547.625009</ele>
        <time>2021-11-19T08:10:53.766Z</time>
      </trkpt>
      <trkpt lat="47.496295" lon="8.153600">
        <ele>547.434274</ele>
        <time>2021-11-19T08:10:55.514Z</time>
      </trkpt>
      <trkpt lat="47.496354" lon="8.153743">
        <ele>547.197457</ele>
        <time>2021-11-19T08:10:56.736Z</time>
      </trkpt>
      <trkpt lat="47.496607" lon="8.154090">
        <ele>546.475905</ele>
        <time>2021-11-19T08:11:00.851Z</time>
      </trkpt>
      <trkpt lat="47.496673" lon="8.154171">
        <ele>546.296549</ele>
        <time>2021-11-19T08:11:01.852Z</time>
      </trkpt>
      <trkpt lat="47.496872" lon="8.154444">
        <ele>545.728945</ele>
        <time>2021-11-19T08:11:04.757Z</time>
      </trkpt>
      <trkpt lat="47.496872" lon="8.154444">
        <ele>545.728945</ele>
        <time>2021-11-19T08:11:04.762Z</time>
      </trkpt>
      <trkpt lat="47.496927" lon="8.154519">
        <ele>545.572503</ele>
        <time>2021-11-19T08:11:05.539Z</time>
      </trkpt>
      <trkpt lat="47.497011" lon="8.154633">
        <ele>545.334096</ele>
        <time>2021-11-19T08:11:06.706Z</time>
      </trkpt>
      <trkpt lat="47.497059" lon="8.154725">
        <ele>545.169810</ele>
        <time>2021-11-19T08:11:07.518Z</time>
      </trkpt>
      <trkpt lat="47.497215" lon="8.155097">
        <ele>544.551000</ele>
        <time>2021-11-19T08:11:10.422Z</time>
      </trkpt>
      <trkpt lat="47.497351" lon="8.155541">
        <ele>543.591014</ele>
        <time>2021-11-19T08:11:13.663Z</time>
      </trkpt>
      <trkpt lat="47.497376" lon="8.155653">
        <ele>543.328727</ele>
        <time>2021-11-19T08:11:14.431Z</time>
      </trkpt>
      <trkpt lat="47.497382" lon="8.155739">
        <ele>543.136477</ele>
        <time>2021-11-19T08:11:14.990Z</time>
      </trkpt>
      <trkpt lat="47.497390" lon="8.155891">
        <ele>542.797460</ele>
        <time>2021-11-19T08:11:16.089Z</time>
      </trkpt>
      <trkpt lat="47.497388" lon="8.155994">
        <ele>542.568330</ele>
        <time>2021-11-19T08:11:16.739Z</time>
      </trkpt>
      <trkpt lat="47.497386" lon="8.156131">
        <ele>542.263621</ele>
        <time>2021-11-19T08:11:17.651Z</time>
      </trkpt>
      <trkpt lat="47.497390" lon="8.156282">
        <ele>541.927593</ele>
        <time>2021-11-19T08:11:18.645Z</time>
      </trkpt>
      <trkpt lat="47.497395" lon="8.156369">
        <ele>541.733438</ele>
        <time>2021-11-19T08:11:19.261Z</time>
      </trkpt>
      <trkpt lat="47.497401" lon="8.156439">
        <ele>541.576536</ele>
        <time>2021-11-19T08:11:19.759Z</time>
      </trkpt>
      <trkpt lat="47.497410" lon="8.156510">
        <ele>541.415903</ele>
        <time>2021-11-19T08:11:20.213Z</time>
      </trkpt>
      <trkpt lat="47.497515" lon="8.156974">
        <ele>540.327800</ele>
        <time>2021-11-19T08:11:23.568Z</time>
      </trkpt>
      <trkpt lat="47.497556" lon="8.157098">
        <ele>540.020820</ele>
        <time>2021-11-19T08:11:24.469Z</time>
      </trkpt>
      <trkpt lat="47.497620" lon="8.157313">
        <ele>539.498393</ele>
        <time>2021-11-19T08:11:26.086Z</time>
      </trkpt>
      <trkpt lat="47.497677" lon="8.157483">
        <ele>539.076386</ele>
        <time>2021-11-19T08:11:27.449Z</time>
      </trkpt>
      <trkpt lat="47.497717" lon="8.157596">
        <ele>538.792717</ele>
        <time>2021-11-19T08:11:28.323Z</time>
      </trkpt>
      <trkpt lat="47.497827" lon="8.157898">
        <ele>538.210362</ele>
        <time>2021-11-19T08:11:30.824Z</time>
      </trkpt>
      <trkpt lat="47.497875" lon="8.158014">
        <ele>538.049711</ele>
        <time>2021-11-19T08:11:31.721Z</time>
      </trkpt>
      <trkpt lat="47.498196" lon="8.158878">
        <ele>536.885207</ele>
        <time>2021-11-19T08:11:39.577Z</time>
      </trkpt>
      <trkpt lat="47.498560" lon="8.159790">
        <ele>535.634222</ele>
        <time>2021-11-19T08:11:47.944Z</time>
      </trkpt>
      <trkpt lat="47.498722" lon="8.160237">
        <ele>534.978022</ele>
        <time>2021-11-19T08:11:51.765Z</time>
      </trkpt>
      <trkpt lat="47.498784" lon="8.160412">
        <ele>534.688060</ele>
        <time>2021-11-19T08:11:53.265Z</time>
      </trkpt>
      <trkpt lat="47.498832" lon="8.160548">
        <ele>534.462904</ele>
        <time>2021-11-19T08:11:54.336Z</time>
      </trkpt>
      <trkpt lat="47.498881" lon="8.160699">
        <ele>534.217093</ele>
        <time>2021-11-19T08:11:55.597Z</time>
      </trkpt>
      <trkpt lat="47.498981" lon="8.161060">
        <ele>533.644565</ele>
        <time>2021-11-19T08:11:58.407Z</time>
      </trkpt>
      <trkpt lat="47.499088" lon="8.161438">
        <ele>533.043173</ele>
        <time>2021-11-19T08:12:02.840Z</time>
      </trkpt>
      <trkpt lat="47.499203" lon="8.161843">
        <ele>532.398524</ele>
        <time>2021-11-19T08:12:07.459Z</time>
      </trkpt>
      <trkpt lat="47.499263" lon="8.162040">
        <ele>532.081432</ele>
        <time>2021-11-19T08:12:09.602Z</time>
      </trkpt>
      <trkpt lat="47.499391" lon="8.162488">
        <ele>531.367675</ele>
        <time>2021-11-19T08:12:14.771Z</time>
      </trkpt>
      <trkpt lat="47.499404" lon="8.162533">
        <ele>531.264359</ele>
        <time>2021-11-19T08:12:15.223Z</time>
      </trkpt>
      <trkpt lat="47.499421" lon="8.162591">
        <ele>531.128794</ele>
        <time>2021-11-19T08:12:15.922Z</time>
      </trkpt>
      <trkpt lat="47.499529" lon="8.163016">
        <ele>530.155168</ele>
        <time>2021-11-19T08:12:20.429Z</time>
      </trkpt>
      <trkpt lat="47.499561" lon="8.163178">
        <ele>529.793262</ele>
        <time>2021-11-19T08:12:22.213Z</time>
      </trkpt>
      <trkpt lat="47.499570" lon="8.163256">
        <ele>529.623592</ele>
        <time>2021-11-19T08:12:23.055Z</time>
      </trkpt>
      <trkpt lat="47.499593" lon="8.163439">
        <ele>529.224468</ele>
        <time>2021-11-19T08:12:24.861Z</time>
      </trkpt>
      <trkpt lat="47.499606" lon="8.163585">
        <ele>528.908705</ele>
        <time>2021-11-19T08:12:26.249Z</time>
      </trkpt>
      <trkpt lat="47.499674" lon="8.164221">
        <ele>527.528014</ele>
        <time>2021-11-19T08:12:32.701Z</time>
      </trkpt>
      <trkpt lat="47.499702" lon="8.164369">
        <ele>527.198463</ele>
        <time>2021-11-19T08:12:34.308Z</time>
      </trkpt>
      <trkpt lat="47.499759" lon="8.164579">
        <ele>526.713197</ele>
        <time>2021-11-19T08:12:36.421Z</time>
      </trkpt>
      <trkpt lat="47.499842" lon="8.164848">
        <ele>526.079097</ele>
        <time>2021-11-19T08:12:39.447Z</time>
      </trkpt>
      <trkpt lat="47.499926" lon="8.165012">
        <ele>525.628204</ele>
        <time>2021-11-19T08:12:41.356Z</time>
      </trkpt>
      <trkpt lat="47.500134" lon="8.165378">
        <ele>524.048534</ele>
        <time>2021-11-19T08:12:45.949Z</time>
      </trkpt>
      <trkpt lat="47.502034" lon="8.167757">
        <ele>511.090357</ele>
        <time>2021-11-19T08:13:19.281Z</time>
      </trkpt>
      <trkpt lat="47.502350" lon="8.168167">
        <ele>508.709389</ele>
        <time>2021-11-19T08:13:24.801Z</time>
      </trkpt>
      <trkpt lat="47.502442" lon="8.168297">
        <ele>507.988718</ele>
        <time>2021-11-19T08:13:26.446Z</time>
      </trkpt>
      <trkpt lat="47.502592" lon="8.168598">
        <ele>506.548013</ele>
        <time>2021-11-19T08:13:29.854Z</time>
      </trkpt>
      <trkpt lat="47.502673" lon="8.169021">
        <ele>504.732606</ele>
        <time>2021-11-19T08:13:33.668Z</time>
      </trkpt>
      <trkpt lat="47.502683" lon="8.169092">
        <ele>504.433138</ele>
        <time>2021-11-19T08:13:34.275Z</time>
      </trkpt>
      <trkpt lat="47.502671" lon="8.169362">
        <ele>503.315881</ele>
        <time>2021-11-19T08:13:36.584Z</time>
      </trkpt>
      <trkpt lat="47.502484" lon="8.170679">
        <ele>497.759074</ele>
        <time>2021-11-19T08:13:48.411Z</time>
      </trkpt>
      <trkpt lat="47.502485" lon="8.170923">
        <ele>496.751560</ele>
        <time>2021-11-19T08:13:50.559Z</time>
      </trkpt>
      <trkpt lat="47.502508" lon="8.171201">
        <ele>495.650875</ele>
        <time>2021-11-19T08:13:53.109Z</time>
      </trkpt>
      <trkpt lat="47.502619" lon="8.171809">
        <ele>494.813303</ele>
        <time>2021-11-19T08:13:58.966Z</time>
      </trkpt>
      <trkpt lat="47.502811" lon="8.172326">
        <ele>494.028716</ele>
        <time>2021-11-19T08:14:04.839Z</time>
      </trkpt>
      <trkpt lat="47.503046" lon="8.172726">
        <ele>493.323748</ele>
        <time>2021-11-19T08:14:10.441Z</time>
      </trkpt>
      <trkpt lat="47.503241" lon="8.173095">
        <ele>492.700720</ele>
        <time>2021-11-19T08:14:16.047Z</time>
      </trkpt>
      <trkpt lat="47.503578" lon="8.174407">
        <ele>494.138174</ele>
        <time>2021-11-19T08:14:43.960Z</time>
      </trkpt>
      <trkpt lat="47.504359" lon="8.176727">
        <ele>496.856129</ele>
        <time>2021-11-19T08:15:46.612Z</time>
      </trkpt>
      <trkpt lat="47.504903" lon="8.177799">
        <ele>495.792161</ele>
        <time>2021-11-19T08:16:00.733Z</time>
      </trkpt>
      <trkpt lat="47.505251" lon="8.178301">
        <ele>493.500774</ele>
        <time>2021-11-19T08:16:07.008Z</time>
      </trkpt>
      <trkpt lat="47.505832" lon="8.179262">
        <ele>485.239074</ele>
        <time>2021-11-19T08:16:17.769Z</time>
      </trkpt>
      <trkpt lat="47.506131" lon="8.179709">
        <ele>481.209270</ele>
        <time>2021-11-19T08:16:22.918Z</time>
      </trkpt>
      <trkpt lat="47.506365" lon="8.179981">
        <ele>478.383342</ele>
        <time>2021-11-19T08:16:26.416Z</time>
      </trkpt>
      <trkpt lat="47.507430" lon="8.180615">
        <ele>465.023153</ele>
        <time>2021-11-19T08:16:40.120Z</time>
      </trkpt>
      <trkpt lat="47.507553" lon="8.180721">
        <ele>463.366658</ele>
        <time>2021-11-19T08:16:41.863Z</time>
      </trkpt>
      <trkpt lat="47.507652" lon="8.180805">
        <ele>462.038561</ele>
        <time>2021-11-19T08:16:43.214Z</time>
      </trkpt>
      <trkpt lat="47.508201" lon="8.181335">
        <ele>454.740854</ele>
        <time>2021-11-19T08:16:51.179Z</time>
      </trkpt>
      <trkpt lat="47.508585" lon="8.181852">
        <ele>449.351756</ele>
        <time>2021-11-19T08:16:57.404Z</time>
      </trkpt>
      <trkpt lat="47.509183" lon="8.183139">
        <ele>438.479574</ele>
        <time>2021-11-19T08:17:10.262Z</time>
      </trkpt>
      <trkpt lat="47.509381" lon="8.183901">
        <ele>433.935828</ele>
        <time>2021-11-19T08:17:17.098Z</time>
      </trkpt>
      <trkpt lat="47.509617" lon="8.184928">
        <ele>427.898549</ele>
        <time>2021-11-19T08:17:26.268Z</time>
      </trkpt>
      <trkpt lat="47.509786" lon="8.185474">
        <ele>424.556058</ele>
        <time>2021-11-19T08:17:31.420Z</time>
      </trkpt>
      <trkpt lat="47.509919" lon="8.185768">
        <ele>422.840307</ele>
        <time>2021-11-19T08:17:34.521Z</time>
      </trkpt>
      <trkpt lat="47.510052" lon="8.186096">
        <ele>421.098765</ele>
        <time>2021-11-19T08:17:37.929Z</time>
      </trkpt>
      <trkpt lat="47.510128" lon="8.186327">
        <ele>419.929076</ele>
        <time>2021-11-19T08:17:40.172Z</time>
      </trkpt>
      <trkpt lat="47.510377" lon="8.187197">
        <ele>415.627730</ele>
        <time>2021-11-19T08:17:48.396Z</time>
      </trkpt>
      <trkpt lat="47.510603" lon="8.188275">
        <ele>410.618729</ele>
        <time>2021-11-19T08:17:58.226Z</time>
      </trkpt>
      <trkpt lat="47.510767" lon="8.188976">
        <ele>407.560729</ele>
        <time>2021-11-19T08:18:04.693Z</time>
      </trkpt>
      <trkpt lat="47.510882" lon="8.189435">
        <ele>405.542731</ele>
        <time>2021-11-19T08:18:09.035Z</time>
      </trkpt>
      <trkpt lat="47.511047" lon="8.190214">
        <ele>402.177466</ele>
        <time>2021-11-19T08:18:16.297Z</time>
      </trkpt>
      <trkpt lat="47.511107" lon="8.190519">
        <ele>400.872912</ele>
        <time>2021-11-19T08:18:19.110Z</time>
      </trkpt>
      <trkpt lat="47.511195" lon="8.190842">
        <ele>399.982668</ele>
        <time>2021-11-19T08:18:22.235Z</time>
      </trkpt>
      <trkpt lat="47.511480" lon="8.191489">
        <ele>398.008290</ele>
        <time>2021-11-19T08:18:29.485Z</time>
      </trkpt>
      <trkpt lat="47.511503" lon="8.191538">
        <ele>397.855769</ele>
        <time>2021-11-19T08:18:30.031Z</time>
      </trkpt>
      <trkpt lat="47.511286" lon="8.191684">
        <ele>396.953763</ele>
        <time>2021-11-19T08:18:32.406Z</time>
      </trkpt>
      <trkpt lat="47.511186" lon="8.191753">
        <ele>396.536255</ele>
        <time>2021-11-19T08:18:33.533Z</time>
      </trkpt>
      <trkpt lat="47.510727" lon="8.191889">
        <ele>394.764829</ele>
        <time>2021-11-19T08:18:38.286Z</time>
      </trkpt>
      <trkpt lat="47.510727" lon="8.191889">
        <ele>394.764829</ele>
        <time>2021-11-19T08:18:38.291Z</time>
      </trkpt>
      <trkpt lat="47.510696" lon="8.191960">
        <ele>394.548732</ele>
        <time>2021-11-19T08:18:39.157Z</time>
      </trkpt>
      <trkpt lat="47.510685" lon="8.192072">
        <ele>394.259438</ele>
        <time>2021-11-19T08:18:40.366Z</time>
      </trkpt>
      <trkpt lat="47.510331" lon="8.194861">
        <ele>390.964203</ele>
        <time>2021-11-19T08:19:11.474Z</time>
      </trkpt>
      <trkpt lat="47.510011" lon="8.197478">
        <ele>389.540306</ele>
        <time>2021-11-19T08:19:44.169Z</time>
      </trkpt>
      <trkpt lat="47.509922" lon="8.198171">
        <ele>388.987078</ele>
        <time>2021-11-19T08:19:52.847Z</time>
      </trkpt>
      <trkpt lat="47.509914" lon="8.198214">
        <ele>388.952099</ele>
        <time>2021-11-19T08:19:53.351Z</time>
      </trkpt>
      <trkpt lat="47.509681" lon="8.200064">
        <ele>387.441189</ele>
        <time>2021-11-19T08:20:14.562Z</time>
      </trkpt>
      <trkpt lat="47.509592" lon="8.200917">
        <ele>386.321802</ele>
        <time>2021-11-19T08:20:24.000Z</time>
      </trkpt>
      <trkpt lat="47.509353" lon="8.202637">
        <ele>384.017900</ele>
        <time>2021-11-19T08:20:42.753Z</time>
      </trkpt>
      <trkpt lat="47.509269" lon="8.202990">
        <ele>383.129977</ele>
        <time>2021-11-19T08:20:46.594Z</time>
      </trkpt>
      <trkpt lat="47.509150" lon="8.203272">
        <ele>382.341119</ele>
        <time>2021-11-19T08:20:49.884Z</time>
      </trkpt>
      <trkpt lat="47.508866" lon="8.203850">
        <ele>380.645416</ele>
        <time>2021-11-19T08:20:56.976Z</time>
      </trkpt>
      <trkpt lat="47.508829" lon="8.203955">
        <ele>380.364447</ele>
        <time>2021-11-19T08:20:58.128Z</time>
      </trkpt>
      <trkpt lat="47.508821" lon="8.204282">
        <ele>379.588140</ele>
        <time>2021-11-19T08:21:01.147Z</time>
      </trkpt>
      <trkpt lat="47.508917" lon="8.204543">
        <ele>378.883075</ele>
        <time>2021-11-19T08:21:04.050Z</time>
      </trkpt>
      <trkpt lat="47.508985" lon="8.204741">
        <ele>378.356097</ele>
        <time>2021-11-19T08:21:06.030Z</time>
      </trkpt>
      <trkpt lat="47.509021" lon="8.204884">
        <ele>377.994038</ele>
        <time>2021-11-19T08:21:07.519Z</time>
      </trkpt>
      <trkpt lat="47.509032" lon="8.205060">
        <ele>377.516802</ele>
        <time>2021-11-19T08:21:09.142Z</time>
      </trkpt>
      <trkpt lat="47.509149" lon="8.205132">
        <ele>376.931952</ele>
        <time>2021-11-19T08:21:10.303Z</time>
      </trkpt>
      <trkpt lat="47.509289" lon="8.205248">
        <ele>376.191411</ele>
        <time>2021-11-19T08:21:11.900Z</time>
      </trkpt>
      <trkpt lat="47.509425" lon="8.205362">
        <ele>375.470019</ele>
        <time>2021-11-19T08:21:13.352Z</time>
      </trkpt>
      <trkpt lat="47.509576" lon="8.205502">
        <ele>374.647630</ele>
        <time>2021-11-19T08:21:15.045Z</time>
      </trkpt>
      <trkpt lat="47.509781" lon="8.205702">
        <ele>373.514399</ele>
        <time>2021-11-19T08:21:17.312Z</time>
      </trkpt>
      <trkpt lat="47.509957" lon="8.205884">
        <ele>372.523459</ele>
        <time>2021-11-19T08:21:19.375Z</time>
      </trkpt>
      <trkpt lat="47.510110" lon="8.206036">
        <ele>371.672967</ele>
        <time>2021-11-19T08:21:21.103Z</time>
      </trkpt>
      <trkpt lat="47.510310" lon="8.206228">
        <ele>370.572705</ele>
        <time>2021-11-19T08:21:23.365Z</time>
      </trkpt>
      <trkpt lat="47.510696" lon="8.206660">
        <ele>368.982306</ele>
        <time>2021-11-19T08:21:28.139Z</time>
      </trkpt>
      <trkpt lat="47.510746" lon="8.206745">
        <ele>368.833115</ele>
        <time>2021-11-19T08:21:28.892Z</time>
      </trkpt>
      <trkpt lat="47.510799" lon="8.206834">
        <ele>368.676066</ele>
        <time>2021-11-19T08:21:29.751Z</time>
      </trkpt>
      <trkpt lat="47.510868" lon="8.206975">
        <ele>368.445603</ele>
        <time>2021-11-19T08:21:30.925Z</time>
      </trkpt>
      <trkpt lat="47.511087" lon="8.207326">
        <ele>367.813134</ele>
        <time>2021-11-19T08:21:34.434Z</time>
      </trkpt>
      <trkpt lat="47.511287" lon="8.207539">
        <ele>367.330344</ele>
        <time>2021-11-19T08:21:37.182Z</time>
      </trkpt>
      <trkpt lat="47.511545" lon="8.207730">
        <ele>366.765081</ele>
        <time>2021-11-19T08:21:40.721Z</time>
      </trkpt>
      <trkpt lat="47.511830" lon="8.207951">
        <ele>366.134625</ele>
        <time>2021-11-19T08:21:45.014Z</time>
      </trkpt>
      <trkpt lat="47.512289" lon="8.208244">
        <ele>365.743026</ele>
        <time>2021-11-19T08:21:52.036Z</time>
      </trkpt>
      <trkpt lat="47.512464" lon="8.208323">
        <ele>365.655774</ele>
        <time>2021-11-19T08:21:54.548Z</time>
      </trkpt>
      <trkpt lat="47.513508" lon="8.208805">
        <ele>365.134238</ele>
        <time>2021-11-19T08:22:09.077Z</time>
      </trkpt>
      <trkpt lat="47.513709" lon="8.208886">
        <ele>365.010262</ele>
        <time>2021-11-19T08:22:11.828Z</time>
      </trkpt>
      <trkpt lat="47.513775" lon="8.209324">
        <ele>364.775451</ele>
        <time>2021-11-19T08:22:15.662Z</time>
      </trkpt>
      <trkpt lat="47.513828" lon="8.209683">
        <ele>364.583175</ele>
        <time>2021-11-19T08:22:18.831Z</time>
      </trkpt>
      <trkpt lat="47.513875" lon="8.210161">
        <ele>364.330432</ele>
        <time>2021-11-19T08:22:22.962Z</time>
      </trkpt>
      <trkpt lat="47.513886" lon="8.210522">
        <ele>364.141353</ele>
        <time>2021-11-19T08:22:25.998Z</time>
      </trkpt>
      <trkpt lat="47.513892" lon="8.210732">
        <ele>364.031376</ele>
        <time>2021-11-19T08:22:27.741Z</time>
      </trkpt>
      <trkpt lat="47.513892" lon="8.211277">
        <ele>363.746213</ele>
        <time>2021-11-19T08:22:32.179Z</time>
      </trkpt>
      <trkpt lat="47.513868" lon="8.212369">
        <ele>363.392643</ele>
        <time>2021-11-19T08:22:41.797Z</time>
      </trkpt>
      <trkpt lat="47.514119" lon="8.212384">
        <ele>363.281851</ele>
        <time>2021-11-19T08:22:46.664Z</time>
      </trkpt>
      <trkpt lat="47.514469" lon="8.212440">
        <ele>363.126587</ele>
        <time>2021-11-19T08:22:53.462Z</time>
      </trkpt>
      <trkpt lat="47.514567" lon="8.212469">
        <ele>363.082510</ele>
        <time>2021-11-19T08:22:55.278Z</time>
      </trkpt>
      <trkpt lat="47.515044" lon="8.212902">
        <ele>362.818932</ele>
        <time>2021-11-19T08:23:06.254Z</time>
      </trkpt>
      <trkpt lat="47.515199" lon="8.213043">
        <ele>362.712727</ele>
        <time>2021-11-19T08:23:09.681Z</time>
      </trkpt>
      <trkpt lat="47.515439" lon="8.213200">
        <ele>362.559548</ele>
        <time>2021-11-19T08:23:14.550Z</time>
      </trkpt>
      <trkpt lat="47.516357" lon="8.213867">
        <ele>361.962564</ele>
        <time>2021-11-19T08:23:32.934Z</time>
      </trkpt>
      <trkpt lat="47.516450" lon="8.213978">
        <ele>361.892826</ele>
        <time>2021-11-19T08:23:35.067Z</time>
      </trkpt>
      <trkpt lat="47.516592" lon="8.214194">
        <ele>361.737047</ele>
        <time>2021-11-19T08:23:38.829Z</time>
      </trkpt>
      <trkpt lat="47.516853" lon="8.214613">
        <ele>361.381890</ele>
        <time>2021-11-19T08:23:45.738Z</time>
      </trkpt>
      <trkpt lat="47.516927" lon="8.214681">
        <ele>361.301542</ele>
        <time>2021-11-19T08:23:47.180Z</time>
      </trkpt>
      <trkpt lat="47.517061" lon="8.214737">
        <ele>361.173089</ele>
        <time>2021-11-19T08:23:49.658Z</time>
      </trkpt>
      <trkpt lat="47.517598" lon="8.214691">
        <ele>360.676845</ele>
        <time>2021-11-19T08:23:58.864Z</time>
      </trkpt>
      <trkpt lat="47.517727" lon="8.214690">
        <ele>360.557833</ele>
        <time>2021-11-19T08:24:01.055Z</time>
      </trkpt>
      <trkpt lat="47.517865" lon="8.214707">
        <ele>360.430079</ele>
        <time>2021-11-19T08:24:03.434Z</time>
      </trkpt>
      <trkpt lat="47.517918" lon="8.214716">
        <ele>360.380863</ele>
        <time>2021-11-19T08:24:04.363Z</time>
      </trkpt>
      <trkpt lat="47.518033" lon="8.214737">
        <ele>360.273965</ele>
        <time>2021-11-19T08:24:06.234Z</time>
      </trkpt>
      <trkpt lat="47.518146" lon="8.214775">
        <ele>360.171022</ele>
        <time>2021-11-19T08:24:08.353Z</time>
      </trkpt>
      <trkpt lat="47.518581" lon="8.214863">
        <ele>359.909318</ele>
        <time>2021-11-19T08:24:16.403Z</time>
      </trkpt>
      <trkpt lat="47.518727" lon="8.214908">
        <ele>359.820425</ele>
        <time>2021-11-19T08:24:19.189Z</time>
      </trkpt>
      <trkpt lat="47.518955" lon="8.215007">
        <ele>359.678795</ele>
        <time>2021-11-19T08:24:23.714Z</time>
      </trkpt>
      <trkpt lat="47.519148" lon="8.215131">
        <ele>359.553389</ele>
        <time>2021-11-19T08:24:27.654Z</time>
      </trkpt>
      <trkpt lat="47.519391" lon="8.215293">
        <ele>359.394537</ele>
        <time>2021-11-19T08:24:32.609Z</time>
      </trkpt>
      <trkpt lat="47.519670" lon="8.215440">
        <ele>359.218016</ele>
        <time>2021-11-19T08:24:37.990Z</time>
      </trkpt>
      <trkpt lat="47.519944" lon="8.215530">
        <ele>359.036342</ele>
        <time>2021-11-19T08:24:43.133Z</time>
      </trkpt>
      <trkpt lat="47.520124" lon="8.215569">
        <ele>358.899763</ele>
        <time>2021-11-19T08:24:46.466Z</time>
      </trkpt>
      <trkpt lat="47.520146" lon="8.215572">
        <ele>358.883175</ele>
        <time>2021-11-19T08:24:46.913Z</time>
      </trkpt>
      <trkpt lat="47.520315" lon="8.215590">
        <ele>358.755966</ele>
        <time>2021-11-19T08:24:49.889Z</time>
      </trkpt>
      <trkpt lat="47.520540" lon="8.215681">
        <ele>358.580852</ele>
        <time>2021-11-19T08:24:54.222Z</time>
      </trkpt>
      <trkpt lat="47.520786" lon="8.215911">
        <ele>358.362425</ele>
        <time>2021-11-19T08:24:59.431Z</time>
      </trkpt>
      <trkpt lat="47.521086" lon="8.216135">
        <ele>358.110177</ele>
        <time>2021-11-19T08:25:05.293Z</time>
      </trkpt>
      <trkpt lat="47.521196" lon="8.216177">
        <ele>358.024889</ele>
        <time>2021-11-19T08:25:07.335Z</time>
      </trkpt>
      <trkpt lat="47.521239" lon="8.216193">
        <ele>357.991602</ele>
        <time>2021-11-19T08:25:08.010Z</time>
      </trkpt>
      <trkpt lat="47.521527" lon="8.216269">
        <ele>357.771970</ele>
        <time>2021-11-19T08:25:13.323Z</time>
      </trkpt>
      <trkpt lat="47.521586" lon="8.216258">
        <ele>357.751607</ele>
        <time>2021-11-19T08:25:14.263Z</time>
      </trkpt>
      <trkpt lat="47.521743" lon="8.216174">
        <ele>357.733416</ele>
        <time>2021-11-19T08:25:17.283Z</time>
      </trkpt>
      <trkpt lat="47.521761" lon="8.216165">
        <ele>357.731346</ele>
        <time>2021-11-19T08:25:17.589Z</time>
      </trkpt>
      <trkpt lat="47.521839" lon="8.216142">
        <ele>357.722679</ele>
        <time>2021-11-19T08:25:19.105Z</time>
      </trkpt>
      <trkpt lat="47.522226" lon="8.216299">
        <ele>357.678955</ele>
        <time>2021-11-19T08:25:26.429Z</time>
      </trkpt>
      <trkpt lat="47.522326" lon="8.216356">
        <ele>357.667278</ele>
        <time>2021-11-19T08:25:28.221Z</time>
      </trkpt>
      <trkpt lat="47.522426" lon="8.216233">
        <ele>357.653113</ele>
        <time>2021-11-19T08:25:30.041Z</time>
      </trkpt>
      <trkpt lat="47.522589" lon="8.216064">
        <ele>357.631430</ele>
        <time>2021-11-19T08:25:32.725Z</time>
      </trkpt>
      <trkpt lat="47.522953" lon="8.215700">
        <ele>357.583568</ele>
        <time>2021-11-19T08:25:40.027Z</time>
      </trkpt>
      <trkpt lat="47.523040" lon="8.215616">
        <ele>357.572251</ele>
        <time>2021-11-19T08:25:42.044Z</time>
      </trkpt>
      <trkpt lat="47.523184" lon="8.215512">
        <ele>357.661738</ele>
        <time>2021-11-19T08:25:44.999Z</time>
      </trkpt>
      <trkpt lat="47.523252" lon="8.215477">
        <ele>357.823693</ele>
        <time>2021-11-19T08:25:46.318Z</time>
      </trkpt>
      <trkpt lat="47.523295" lon="8.215459">
        <ele>357.924220</ele>
        <time>2021-11-19T08:25:47.248Z</time>
      </trkpt>
      <trkpt lat="47.523322" lon="8.215449">
        <ele>357.986832</ele>
        <time>2021-11-19T08:25:47.816Z</time>
      </trkpt>
      <trkpt lat="47.523463" lon="8.215416">
        <ele>358.307974</ele>
        <time>2021-11-19T08:25:50.879Z</time>
      </trkpt>
      <trkpt lat="47.523628" lon="8.215398">
        <ele>358.680177</ele>
        <time>2021-11-19T08:25:53.946Z</time>
      </trkpt>
      <trkpt lat="47.523967" lon="8.215368">
        <ele>359.444178</ele>
        <time>2021-11-19T08:26:01.284Z</time>
      </trkpt>
      <trkpt lat="47.524496" lon="8.215283">
        <ele>360.641242</ele>
        <time>2021-11-19T08:26:13.785Z</time>
      </trkpt>
      <trkpt lat="47.525397" lon="8.215170">
        <ele>364.735757</ele>
        <time>2021-11-19T08:26:41.530Z</time>
      </trkpt>
      <trkpt lat="47.525630" lon="8.215165">
        <ele>366.270005</ele>
        <time>2021-11-19T08:26:49.415Z</time>
      </trkpt>
      <trkpt lat="47.525749" lon="8.215166">
        <ele>367.053521</ele>
        <time>2021-11-19T08:26:55.517Z</time>
      </trkpt>
      <trkpt lat="47.525837" lon="8.215146">
        <ele>367.639702</ele>
        <time>2021-11-19T08:26:59.474Z</time>
      </trkpt>
      <trkpt lat="47.525912" lon="8.215115">
        <ele>368.152380</ele>
        <time>2021-11-19T08:27:02.295Z</time>
      </trkpt>
      <trkpt lat="47.525955" lon="8.215079">
        <ele>368.477604</ele>
        <time>2021-11-19T08:27:04.126Z</time>
      </trkpt>
      <trkpt lat="47.526002" lon="8.215031">
        <ele>368.853505</ele>
        <time>2021-11-19T08:27:07.729Z</time>
      </trkpt>
      <trkpt lat="47.526053" lon="8.214977">
        <ele>369.266290</ele>
        <time>2021-11-19T08:27:10.646Z</time>
      </trkpt>
      <trkpt lat="47.526124" lon="8.214905">
        <ele>369.832854</ele>
        <time>2021-11-19T08:27:14.420Z</time>
      </trkpt>
      <trkpt lat="47.526245" lon="8.214785">
        <ele>370.791665</ele>
        <time>2021-11-19T08:27:20.657Z</time>
      </trkpt>
      <trkpt lat="47.526233" lon="8.214701">
        <ele>371.173387</ele>
        <time>2021-11-19T08:27:26.273Z</time>
      </trkpt>
      <trkpt lat="47.526337" lon="8.214415">
        <ele>372.617567</ele>
        <time>2021-11-19T08:27:40.966Z</time>
      </trkpt>
      <trkpt lat="47.526452" lon="8.214225">
        <ele>373.860446</ele>
        <time>2021-11-19T08:27:54.054Z</time>
      </trkpt>
      <trkpt lat="47.526668" lon="8.213870">
        <ele>376.744389</ele>
        <time>2021-11-19T08:28:16.803Z</time>
      </trkpt>
      <trkpt lat="47.526721" lon="8.213721">
        <ele>377.760757</ele>
        <time>2021-11-19T08:28:25.684Z</time>
      </trkpt>
      <trkpt lat="47.526750" lon="8.213563">
        <ele>378.748902</ele>
        <time>2021-11-19T08:28:33.447Z</time>
      </trkpt>
      <trkpt lat="47.526819" lon="8.213402">
        <ele>379.899737</ele>
        <time>2021-11-19T08:28:43.381Z</time>
      </trkpt>
      <trkpt lat="47.526966" lon="8.213055">
        <ele>382.371928</ele>
        <time>2021-11-19T08:29:03.295Z</time>
      </trkpt>
      <trkpt lat="47.526996" lon="8.212989">
        <ele>382.852083</ele>
        <time>2021-11-19T08:29:08.258Z</time>
      </trkpt>
      <trkpt lat="47.527086" lon="8.212822">
        <ele>384.141584</ele>
        <time>2021-11-19T08:29:16.678Z</time>
      </trkpt>
      <trkpt lat="47.527174" lon="8.212657">
        <ele>385.410517</ele>
        <time>2021-11-19T08:29:23.430Z</time>
      </trkpt>
      <trkpt lat="47.527492" lon="8.212260">
        <ele>389.127816</ele>
        <time>2021-11-19T08:29:43.610Z</time>
      </trkpt>
      <trkpt lat="47.527568" lon="8.212167">
        <ele>389.803782</ele>
        <time>2021-11-19T08:29:47.651Z</time>
      </trkpt>
      <trkpt lat="47.527628" lon="8.212063">
        <ele>390.279977</ele>
        <time>2021-11-19T08:29:53.646Z</time>
      </trkpt>
      <trkpt lat="47.527792" lon="8.211675">
        <ele>391.873484</ele>
        <time>2021-11-19T08:30:08.247Z</time>
      </trkpt>
      <trkpt lat="47.527904" lon="8.211051">
        <ele>394.121169</ele>
        <time>2021-11-19T08:30:25.527Z</time>
      </trkpt>
      <trkpt lat="47.528109" lon="8.210725">
        <ele>395.671944</ele>
        <time>2021-11-19T08:30:35.126Z</time>
      </trkpt>
      <trkpt lat="47.528294" lon="8.210278">
        <ele>397.497059</ele>
        <time>2021-11-19T08:30:45.376Z</time>
      </trkpt>
      <trkpt lat="47.528477" lon="8.209843">
        <ele>398.769404</ele>
        <time>2021-11-19T08:30:53.533Z</time>
      </trkpt>
      <trkpt lat="47.528988" lon="8.208838">
        <ele>398.519325</ele>
        <time>2021-11-19T08:31:05.789Z</time>
      </trkpt>
      <trkpt lat="47.529201" lon="8.208382">
        <ele>398.409107</ele>
        <time>2021-11-19T08:31:10.218Z</time>
      </trkpt>
      <trkpt lat="47.529330" lon="8.208128">
        <ele>398.345929</ele>
        <time>2021-11-19T08:31:12.763Z</time>
      </trkpt>
      <trkpt lat="47.529351" lon="8.208087">
        <ele>398.335700</ele>
        <time>2021-11-19T08:31:13.071Z</time>
      </trkpt>
      <trkpt lat="47.529530" lon="8.207845">
        <ele>398.290582</ele>
        <time>2021-11-19T08:31:15.659Z</time>
      </trkpt>
      <trkpt lat="47.529704" lon="8.207736">
        <ele>398.691444</ele>
        <time>2021-11-19T08:31:17.765Z</time>
      </trkpt>
      <trkpt lat="47.530081" lon="8.207671">
        <ele>399.496766</ele>
        <time>2021-11-19T08:31:23.074Z</time>
      </trkpt>
      <trkpt lat="47.530570" lon="8.207684">
        <ele>400.534496</ele>
        <time>2021-11-19T08:31:33.277Z</time>
      </trkpt>
      <trkpt lat="47.530748" lon="8.207682">
        <ele>400.912188</ele>
        <time>2021-11-19T08:31:37.365Z</time>
      </trkpt>
      <trkpt lat="47.530948" lon="8.207681">
        <ele>401.336551</ele>
        <time>2021-11-19T08:31:44.041Z</time>
      </trkpt>
      <trkpt lat="47.531043" lon="8.207684">
        <ele>401.538169</ele>
        <time>2021-11-19T08:31:46.950Z</time>
      </trkpt>
      <trkpt lat="47.531300" lon="8.207688">
        <ele>402.083503</ele>
        <time>2021-11-19T08:31:56.458Z</time>
      </trkpt>
      <trkpt lat="47.532270" lon="8.207712">
        <ele>409.406629</ele>
        <time>2021-11-19T08:32:41.939Z</time>
      </trkpt>
      <trkpt lat="47.532597" lon="8.207774">
        <ele>411.895511</ele>
        <time>2021-11-19T08:32:58.348Z</time>
      </trkpt>
      <trkpt lat="47.532835" lon="8.207933">
        <ele>413.866655</ele>
        <time>2021-11-19T08:33:10.080Z</time>
      </trkpt>
      <trkpt lat="47.533120" lon="8.208342">
        <ele>416.931293</ele>
        <time>2021-11-19T08:33:27.281Z</time>
      </trkpt>
      <trkpt lat="47.533191" lon="8.208445">
        <ele>417.724545</ele>
        <time>2021-11-19T08:33:33.479Z</time>
      </trkpt>
      <trkpt lat="47.533279" lon="8.208606">
        <ele>418.840844</ele>
        <time>2021-11-19T08:33:38.826Z</time>
      </trkpt>
      <trkpt lat="47.533949" lon="8.209720">
        <ele>426.880601</ele>
        <time>2021-11-19T08:34:25.624Z</time>
      </trkpt>
      <trkpt lat="47.534400" lon="8.210289">
        <ele>431.869435</ele>
        <time>2021-11-19T08:34:54.306Z</time>
      </trkpt>
      <trkpt lat="47.534948" lon="8.210478">
        <ele>437.095326</ele>
        <time>2021-11-19T08:35:21.754Z</time>
      </trkpt>
      <trkpt lat="47.535970" lon="8.210248">
        <ele>446.696426</ele>
        <time>2021-11-19T08:36:18.824Z</time>
      </trkpt>
      <trkpt lat="47.536563" lon="8.209636">
        <ele>453.511296</ele>
        <time>2021-11-19T08:36:56.973Z</time>
      </trkpt>
      <trkpt lat="47.536687" lon="8.209592">
        <ele>454.713665</ele>
        <time>2021-11-19T08:37:04.581Z</time>
      </trkpt>
      <trkpt lat="47.536874" lon="8.209678">
        <ele>456.560061</ele>
        <time>2021-11-19T08:37:13.636Z</time>
      </trkpt>
      <trkpt lat="47.536921" lon="8.209778">
        <ele>457.335755</ele>
        <time>2021-11-19T08:37:19.234Z</time>
      </trkpt>
      <trkpt lat="47.536956" lon="8.209884">
        <ele>458.086952</ele>
        <time>2021-11-19T08:37:23.425Z</time>
      </trkpt>
      <trkpt lat="47.537043" lon="8.210202">
        <ele>460.271296</ele>
        <time>2021-11-19T08:37:34.299Z</time>
      </trkpt>
      <trkpt lat="47.537143" lon="8.210508">
        <ele>462.435560</ele>
        <time>2021-11-19T08:37:45.333Z</time>
      </trkpt>
      <trkpt lat="47.537267" lon="8.210668">
        <ele>464.010542</ele>
        <time>2021-11-19T08:37:54.623Z</time>
      </trkpt>
      <trkpt lat="47.537388" lon="8.210688">
        <ele>465.251239</ele>
        <time>2021-11-19T08:38:00.450Z</time>
      </trkpt>
      <trkpt lat="47.537432" lon="8.210679">
        <ele>465.703874</ele>
        <time>2021-11-19T08:38:02.320Z</time>
      </trkpt>
      <trkpt lat="47.537481" lon="8.210648">
        <ele>466.246844</ele>
        <time>2021-11-19T08:38:04.978Z</time>
      </trkpt>
      <trkpt lat="47.537542" lon="8.210584">
        <ele>467.008599</ele>
        <time>2021-11-19T08:38:08.515Z</time>
      </trkpt>
      <trkpt lat="47.537582" lon="8.210504">
        <ele>467.693479</ele>
        <time>2021-11-19T08:38:13.594Z</time>
      </trkpt>
      <trkpt lat="47.537624" lon="8.210296">
        <ele>469.187079</ele>
        <time>2021-11-19T08:38:20.780Z</time>
      </trkpt>
      <trkpt lat="47.537525" lon="8.209530">
        <ele>474.552583</ele>
        <time>2021-11-19T08:38:50.028Z</time>
      </trkpt>
      <trkpt lat="47.537541" lon="8.209218">
        <ele>476.705216</ele>
        <time>2021-11-19T08:39:01.885Z</time>
      </trkpt>
      <trkpt lat="47.537630" lon="8.208383">
        <ele>482.450774</ele>
        <time>2021-11-19T08:39:38.088Z</time>
      </trkpt>
      <trkpt lat="47.537696" lon="8.207798">
        <ele>485.966319</ele>
        <time>2021-11-19T08:39:59.477Z</time>
      </trkpt>
      <trkpt lat="47.537822" lon="8.206799">
        <ele>491.990116</ele>
        <time>2021-11-19T08:40:35.293Z</time>
      </trkpt>
      <trkpt lat="47.537847" lon="8.206596">
        <ele>493.213206</ele>
        <time>2021-11-19T08:40:42.109Z</time>
      </trkpt>
      <trkpt lat="47.538192" lon="8.203678">
        <ele>507.720507</ele>
        <time>2021-11-19T08:42:03.733Z</time>
      </trkpt>
      <trkpt lat="47.538311" lon="8.203259">
        <ele>509.780702</ele>
        <time>2021-11-19T08:42:16.512Z</time>
      </trkpt>
      <trkpt lat="47.538542" lon="8.203042">
        <ele>511.898069</ele>
        <time>2021-11-19T08:42:28.210Z</time>
      </trkpt>
      <trkpt lat="47.539057" lon="8.202818">
        <ele>516.084777</ele>
        <time>2021-11-19T08:42:53.691Z</time>
      </trkpt>
      <trkpt lat="47.539686" lon="8.202173">
        <ele>522.052014</ele>
        <time>2021-11-19T08:43:30.741Z</time>
      </trkpt>
      <trkpt lat="47.540161" lon="8.202010">
        <ele>525.595358</ele>
        <time>2021-11-19T08:43:52.484Z</time>
      </trkpt>
      <trkpt lat="47.540245" lon="8.201988">
        <ele>526.171799</ele>
        <time>2021-11-19T08:43:57.680Z</time>
      </trkpt>
      <trkpt lat="47.540267" lon="8.201983">
        <ele>526.322205</ele>
        <time>2021-11-19T08:43:58.979Z</time>
      </trkpt>
      <trkpt lat="47.540495" lon="8.201931">
        <ele>527.881088</ele>
        <time>2021-11-19T08:44:12.607Z</time>
      </trkpt>
      <trkpt lat="47.540724" lon="8.201834">
        <ele>529.490597</ele>
        <time>2021-11-19T08:44:28.363Z</time>
      </trkpt>
      <trkpt lat="47.540817" lon="8.201780">
        <ele>530.165606</ele>
        <time>2021-11-19T08:44:34.017Z</time>
      </trkpt>
      <trkpt lat="47.540912" lon="8.201699">
        <ele>530.906322</ele>
        <time>2021-11-19T08:44:42.165Z</time>
      </trkpt>
      <trkpt lat="47.541150" lon="8.201242">
        <ele>533.539338</ele>
        <time>2021-11-19T08:45:06.914Z</time>
      </trkpt>
      <trkpt lat="47.541246" lon="8.200575">
        <ele>536.627545</ele>
        <time>2021-11-19T08:45:34.980Z</time>
      </trkpt>
      <trkpt lat="47.541339" lon="8.199690">
        <ele>540.553483</ele>
        <time>2021-11-19T08:46:10.038Z</time>
      </trkpt>
      <trkpt lat="47.541371" lon="8.199351">
        <ele>542.053876</ele>
        <time>2021-11-19T08:46:18.451Z</time>
      </trkpt>
      <trkpt lat="47.541424" lon="8.196416">
        <ele>557.029748</ele>
        <time>2021-11-19T08:47:47.076Z</time>
      </trkpt>
      <trkpt lat="47.541449" lon="8.194943">
        <ele>566.022239</ele>
        <time>2021-11-19T08:48:40.716Z</time>
      </trkpt>
      <trkpt lat="47.541450" lon="8.194441">
        <ele>569.586046</ele>
        <time>2021-11-19T08:48:59.938Z</time>
      </trkpt>
      <trkpt lat="47.541411" lon="8.193836">
        <ele>573.900593</ele>
        <time>2021-11-19T08:49:23.548Z</time>
      </trkpt>
      <trkpt lat="47.541049" lon="8.191467">
        <ele>589.852467</ele>
        <time>2021-11-19T08:50:59.420Z</time>
      </trkpt>
      <trkpt lat="47.541065" lon="8.191152">
        <ele>591.786196</ele>
        <time>2021-11-19T08:51:08.542Z</time>
      </trkpt>
      <trkpt lat="47.541095" lon="8.191058">
        <ele>592.422685</ele>
        <time>2021-11-19T08:51:14.356Z</time>
      </trkpt>
      <trkpt lat="47.541136" lon="8.190956">
        <ele>593.149389</ele>
        <time>2021-11-19T08:51:20.128Z</time>
      </trkpt>
      <trkpt lat="47.541254" lon="8.190715">
        <ele>594.971868</ele>
        <time>2021-11-19T08:51:32.693Z</time>
      </trkpt>
      <trkpt lat="47.541303" lon="8.190582">
        <ele>595.899386</ele>
        <time>2021-11-19T08:51:41.476Z</time>
      </trkpt>
      <trkpt lat="47.541314" lon="8.190468">
        <ele>596.604329</ele>
        <time>2021-11-19T08:51:45.993Z</time>
      </trkpt>
      <trkpt lat="47.541134" lon="8.187007">
        <ele>604.726511</ele>
        <time>2021-11-19T08:52:59.379Z</time>
      </trkpt>
      <trkpt lat="47.541144" lon="8.185829">
        <ele>602.485498</ele>
        <time>2021-11-19T08:53:07.650Z</time>
      </trkpt>
      <trkpt lat="47.541253" lon="8.184529">
        <ele>597.785050</ele>
        <time>2021-11-19T08:53:15.576Z</time>
      </trkpt>
      <trkpt lat="47.541337" lon="8.183941">
        <ele>593.239521</ele>
        <time>2021-11-19T08:53:19.035Z</time>
      </trkpt>
      <trkpt lat="47.541372" lon="8.183706">
        <ele>591.419477</ele>
        <time>2021-11-19T08:53:20.404Z</time>
      </trkpt>
      <trkpt lat="47.541456" lon="8.183299">
        <ele>588.200696</ele>
        <time>2021-11-19T08:53:22.852Z</time>
      </trkpt>
      <trkpt lat="47.541555" lon="8.182888">
        <ele>584.900360</ele>
        <time>2021-11-19T08:53:25.339Z</time>
      </trkpt>
      <trkpt lat="47.541775" lon="8.182085">
        <ele>578.054511</ele>
        <time>2021-11-19T08:53:30.225Z</time>
      </trkpt>
      <trkpt lat="47.542275" lon="8.180404">
        <ele>562.351527</ele>
        <time>2021-11-19T08:53:40.611Z</time>
      </trkpt>
      <trkpt lat="47.542393" lon="8.180200">
        <ele>560.055022</ele>
        <time>2021-11-19T08:53:42.150Z</time>
      </trkpt>
      <trkpt lat="47.542427" lon="8.180153">
        <ele>559.466126</ele>
        <time>2021-11-19T08:53:43.199Z</time>
      </trkpt>
      <trkpt lat="47.542849" lon="8.179744">
        <ele>554.448402</ele>
        <time>2021-11-19T08:53:55.971Z</time>
      </trkpt>
      <trkpt lat="47.542924" lon="8.179685">
        <ele>553.684279</ele>
        <time>2021-11-19T08:53:57.968Z</time>
      </trkpt>
      <trkpt lat="47.543118" lon="8.179531">
        <ele>551.703784</ele>
        <time>2021-11-19T08:54:03.339Z</time>
      </trkpt>
      <trkpt lat="47.543176" lon="8.179544">
        <ele>551.175944</ele>
        <time>2021-11-19T08:54:04.078Z</time>
      </trkpt>
      <trkpt lat="47.543293" lon="8.179736">
        <ele>549.604803</ele>
        <time>2021-11-19T08:54:05.545Z</time>
      </trkpt>
      <trkpt lat="47.543305" lon="8.179775">
        <ele>549.344463</ele>
        <time>2021-11-19T08:54:05.781Z</time>
      </trkpt>
      <trkpt lat="47.543357" lon="8.179586">
        <ele>548.104759</ele>
        <time>2021-11-19T08:54:07.102Z</time>
      </trkpt>
      <trkpt lat="47.543396" lon="8.179405">
        <ele>546.950692</ele>
        <time>2021-11-19T08:54:08.191Z</time>
      </trkpt>
      <trkpt lat="47.543458" lon="8.179101">
        <ele>545.021723</ele>
        <time>2021-11-19T08:54:10.057Z</time>
      </trkpt>
      <trkpt lat="47.543472" lon="8.179027">
        <ele>544.554919</ele>
        <time>2021-11-19T08:54:12.922Z</time>
      </trkpt>
      <trkpt lat="47.543492" lon="8.178872">
        <ele>543.596387</ele>
        <time>2021-11-19T08:54:13.822Z</time>
      </trkpt>
      <trkpt lat="47.543620" lon="8.176594">
        <ele>532.596486</ele>
        <time>2021-11-19T08:54:27.845Z</time>
      </trkpt>
      <trkpt lat="47.543596" lon="8.176496">
        <ele>532.116618</ele>
        <time>2021-11-19T08:54:28.512Z</time>
      </trkpt>
      <trkpt lat="47.543542" lon="8.176433">
        <ele>531.647911</ele>
        <time>2021-11-19T08:54:29.080Z</time>
      </trkpt>
      <trkpt lat="47.543498" lon="8.176425">
        <ele>531.345622</ele>
        <time>2021-11-19T08:54:29.489Z</time>
      </trkpt>
      <trkpt lat="47.543322" lon="8.176586">
        <ele>529.935099</ele>
        <time>2021-11-19T08:54:31.499Z</time>
      </trkpt>
      <trkpt lat="47.543074" lon="8.177090">
        <ele>526.530519</ele>
        <time>2021-11-19T08:54:35.211Z</time>
      </trkpt>
      <trkpt lat="47.542588" lon="8.177199">
        <ele>522.398902</ele>
        <time>2021-11-19T08:54:39.552Z</time>
      </trkpt>
      <trkpt lat="47.542522" lon="8.177193">
        <ele>521.843096</ele>
        <time>2021-11-19T08:54:40.171Z</time>
      </trkpt>
      <trkpt lat="47.542435" lon="8.177076">
        <ele>520.855430</ele>
        <time>2021-11-19T08:54:41.180Z</time>
      </trkpt>
      <trkpt lat="47.542415" lon="8.176968">
        <ele>520.219990</ele>
        <time>2021-11-19T08:54:41.820Z</time>
      </trkpt>
      <trkpt lat="47.542461" lon="8.176828">
        <ele>519.336517</ele>
        <time>2021-11-19T08:54:42.750Z</time>
      </trkpt>
      <trkpt lat="47.542728" lon="8.176498">
        <ele>516.413720</ele>
        <time>2021-11-19T08:54:45.784Z</time>
      </trkpt>
      <trkpt lat="47.542789" lon="8.176356">
        <ele>515.458696</ele>
        <time>2021-11-19T08:54:46.799Z</time>
      </trkpt>
      <trkpt lat="47.542818" lon="8.176268">
        <ele>514.903058</ele>
        <time>2021-11-19T08:54:47.352Z</time>
      </trkpt>
      <trkpt lat="47.542897" lon="8.175386">
        <ele>509.981773</ele>
        <time>2021-11-19T08:54:52.578Z</time>
      </trkpt>
      <trkpt lat="47.542928" lon="8.174898">
        <ele>507.281211</ele>
        <time>2021-11-19T08:54:55.426Z</time>
      </trkpt>
      <trkpt lat="47.542958" lon="8.174430">
        <ele>504.691121</ele>
        <time>2021-11-19T08:54:58.163Z</time>
      </trkpt>
      <trkpt lat="47.543005" lon="8.173666">
        <ele>500.464351</ele>
        <time>2021-11-19T08:55:02.827Z</time>
      </trkpt>
      <trkpt lat="47.542942" lon="8.173427">
        <ele>499.257879</ele>
        <time>2021-11-19T08:55:04.408Z</time>
      </trkpt>
      <trkpt lat="47.542804" lon="8.173437">
        <ele>498.589539</ele>
        <time>2021-11-19T08:55:05.774Z</time>
      </trkpt>
      <trkpt lat="47.542515" lon="8.174031">
        <ele>496.198633</ele>
        <time>2021-11-19T08:55:10.865Z</time>
      </trkpt>
      <trkpt lat="47.542421" lon="8.174181">
        <ele>495.530305</ele>
        <time>2021-11-19T08:55:12.121Z</time>
      </trkpt>
      <trkpt lat="47.542299" lon="8.174319">
        <ele>494.787788</ele>
        <time>2021-11-19T08:55:14.012Z</time>
      </trkpt>
      <trkpt lat="47.541677" lon="8.174964">
        <ele>491.115090</ele>
        <time>2021-11-19T08:55:21.205Z</time>
      </trkpt>
      <trkpt lat="47.541506" lon="8.174915">
        <ele>489.779516</ele>
        <time>2021-11-19T08:55:22.710Z</time>
      </trkpt>
      <trkpt lat="47.541486" lon="8.174716">
        <ele>488.569923</ele>
        <time>2021-11-19T08:55:24.019Z</time>
      </trkpt>
      <trkpt lat="47.541498" lon="8.174644">
        <ele>488.124054</ele>
        <time>2021-11-19T08:55:24.890Z</time>
      </trkpt>
      <trkpt lat="47.541583" lon="8.174150">
        <ele>485.059124</ele>
        <time>2021-11-19T08:55:27.918Z</time>
      </trkpt>
      <trkpt lat="47.541630" lon="8.173624">
        <ele>481.869188</ele>
        <time>2021-11-19T08:55:31.063Z</time>
      </trkpt>
      <trkpt lat="47.541680" lon="8.173272">
        <ele>479.706596</ele>
        <time>2021-11-19T08:55:33.113Z</time>
      </trkpt>
      <trkpt lat="47.541911" lon="8.172517">
        <ele>474.723756</ele>
        <time>2021-11-19T08:55:37.926Z</time>
      </trkpt>
      <trkpt lat="47.542048" lon="8.172212">
        <ele>472.534937</ele>
        <time>2021-11-19T08:55:39.993Z</time>
      </trkpt>
      <trkpt lat="47.542269" lon="8.171821">
        <ele>469.488100</ele>
        <time>2021-11-19T08:55:42.926Z</time>
      </trkpt>
      <trkpt lat="47.542400" lon="8.171599">
        <ele>467.726413</ele>
        <time>2021-11-19T08:55:44.696Z</time>
      </trkpt>
      <trkpt lat="47.542454" lon="8.171478">
        <ele>466.859783</ele>
        <time>2021-11-19T08:55:45.517Z</time>
      </trkpt>
      <trkpt lat="47.542881" lon="8.169924">
        <ele>457.469315</ele>
        <time>2021-11-19T08:55:55.694Z</time>
      </trkpt>
      <trkpt lat="47.543071" lon="8.169745">
        <ele>456.082116</ele>
        <time>2021-11-19T08:55:57.799Z</time>
      </trkpt>
      <trkpt lat="47.544202" lon="8.169104">
        <ele>448.621798</ele>
        <time>2021-11-19T08:56:08.985Z</time>
      </trkpt>
      <trkpt lat="47.544678" lon="8.168690">
        <ele>445.065273</ele>
        <time>2021-11-19T08:56:13.945Z</time>
      </trkpt>
      <trkpt lat="47.544873" lon="8.168362">
        <ele>443.139379</ele>
        <time>2021-11-19T08:56:16.597Z</time>
      </trkpt>
      <trkpt lat="47.545042" lon="8.167672">
        <ele>439.905090</ele>
        <time>2021-11-19T08:56:21.142Z</time>
      </trkpt>
      <trkpt lat="47.545100" lon="8.167448">
        <ele>438.847962</ele>
        <time>2021-11-19T08:56:22.578Z</time>
      </trkpt>
      <trkpt lat="47.545201" lon="8.167129">
        <ele>437.295424</ele>
        <time>2021-11-19T08:56:24.762Z</time>
      </trkpt>
      <trkpt lat="47.545260" lon="8.166987">
        <ele>436.560703</ele>
        <time>2021-11-19T08:56:25.751Z</time>
      </trkpt>
      <trkpt lat="47.545348" lon="8.166786">
        <ele>435.587335</ele>
        <time>2021-11-19T08:56:27.269Z</time>
      </trkpt>
      <trkpt lat="47.545453" lon="8.166595">
        <ele>434.652357</ele>
        <time>2021-11-19T08:56:28.745Z</time>
      </trkpt>
      <trkpt lat="47.545577" lon="8.166399">
        <ele>433.632731</ele>
        <time>2021-11-19T08:56:30.409Z</time>
      </trkpt>
      <trkpt lat="47.545768" lon="8.166102">
        <ele>432.075709</ele>
        <time>2021-11-19T08:56:32.896Z</time>
      </trkpt>
      <trkpt lat="47.546032" lon="8.165642">
        <ele>429.783941</ele>
        <time>2021-11-19T08:56:36.650Z</time>
      </trkpt>
      <trkpt lat="47.546204" lon="8.165321">
        <ele>428.228340</ele>
        <time>2021-11-19T08:56:39.304Z</time>
      </trkpt>
      <trkpt lat="47.546387" lon="8.165022">
        <ele>426.696395</ele>
        <time>2021-11-19T08:56:41.972Z</time>
      </trkpt>
      <trkpt lat="47.546441" lon="8.164907">
        <ele>426.164674</ele>
        <time>2021-11-19T08:56:42.858Z</time>
      </trkpt>
      <trkpt lat="47.546613" lon="8.164573">
        <ele>424.907645</ele>
        <time>2021-11-19T08:56:45.605Z</time>
      </trkpt>
      <trkpt lat="47.546850" lon="8.164022">
        <ele>423.019443</ele>
        <time>2021-11-19T08:56:49.817Z</time>
      </trkpt>
      <trkpt lat="47.546862" lon="8.163567">
        <ele>421.703506</ele>
        <time>2021-11-19T08:56:52.774Z</time>
      </trkpt>
      <trkpt lat="47.546835" lon="8.163363">
        <ele>421.102727</ele>
        <time>2021-11-19T08:56:54.101Z</time>
      </trkpt>
      <trkpt lat="47.546797" lon="8.163081">
        <ele>420.271675</ele>
        <time>2021-11-19T08:56:56.035Z</time>
      </trkpt>
      <trkpt lat="47.546790" lon="8.163024">
        <ele>420.104243</ele>
        <time>2021-11-19T08:56:56.407Z</time>
      </trkpt>
      <trkpt lat="47.546769" lon="8.162896">
        <ele>419.723557</ele>
        <time>2021-11-19T08:56:57.239Z</time>
      </trkpt>
      <trkpt lat="47.546748" lon="8.162622">
        <ele>418.926617</ele>
        <time>2021-11-19T08:56:59.094Z</time>
      </trkpt>
      <trkpt lat="47.546819" lon="8.162125">
        <ele>417.749654</ele>
        <time>2021-11-19T08:57:02.464Z</time>
      </trkpt>
      <trkpt lat="47.546981" lon="8.161773">
        <ele>416.952789</ele>
        <time>2021-11-19T08:57:05.285Z</time>
      </trkpt>
      <trkpt lat="47.547108" lon="8.161617">
        <ele>416.495637</ele>
        <time>2021-11-19T08:57:06.926Z</time>
      </trkpt>
      <trkpt lat="47.547207" lon="8.161521">
        <ele>416.167764</ele>
        <time>2021-11-19T08:57:08.057Z</time>
      </trkpt>
      <trkpt lat="47.547349" lon="8.161424">
        <ele>415.734463</ele>
        <time>2021-11-19T08:57:09.760Z</time>
      </trkpt>
      <trkpt lat="47.547470" lon="8.161331">
        <ele>415.356731</ele>
        <time>2021-11-19T08:57:11.120Z</time>
      </trkpt>
      <trkpt lat="47.547496" lon="8.161301">
        <ele>415.265411</ele>
        <time>2021-11-19T08:57:11.462Z</time>
      </trkpt>
      <trkpt lat="47.547517" lon="8.161278">
        <ele>415.193044</ele>
        <time>2021-11-19T08:57:11.721Z</time>
      </trkpt>
      <trkpt lat="47.547553" lon="8.161213">
        <ele>415.035779</ele>
        <time>2021-11-19T08:57:12.421Z</time>
      </trkpt>
      <trkpt lat="47.547597" lon="8.161255">
        <ele>414.890737</ele>
        <time>2021-11-19T08:57:13.002Z</time>
      </trkpt>
      <trkpt lat="47.547713" lon="8.161271">
        <ele>414.567906</ele>
        <time>2021-11-19T08:57:14.243Z</time>
      </trkpt>
      <trkpt lat="47.547763" lon="8.161258">
        <ele>414.427236</ele>
        <time>2021-11-19T08:57:14.764Z</time>
      </trkpt>
      <trkpt lat="47.547978" lon="8.161155">
        <ele>413.801088</ele>
        <time>2021-11-19T08:57:17.414Z</time>
      </trkpt>
      <trkpt lat="47.548340" lon="8.161015">
        <ele>413.105709</ele>
        <time>2021-11-19T08:57:21.914Z</time>
      </trkpt>
      <trkpt lat="47.548497" lon="8.160960">
        <ele>412.943715</ele>
        <time>2021-11-19T08:57:23.842Z</time>
      </trkpt>
      <trkpt lat="47.548672" lon="8.160912">
        <ele>412.765008</ele>
        <time>2021-11-19T08:57:25.909Z</time>
      </trkpt>
      <trkpt lat="47.549490" lon="8.160957">
        <ele>411.943072</ele>
        <time>2021-11-19T08:57:36.400Z</time>
      </trkpt>
      <trkpt lat="47.549617" lon="8.160942">
        <ele>411.815144</ele>
        <time>2021-11-19T08:57:38.846Z</time>
      </trkpt>
      <trkpt lat="47.549732" lon="8.160920">
        <ele>411.698712</ele>
        <time>2021-11-19T08:57:40.172Z</time>
      </trkpt>
      <trkpt lat="47.549905" lon="8.160854">
        <ele>411.519333</ele>
        <time>2021-11-19T08:57:42.568Z</time>
      </trkpt>
      <trkpt lat="47.549984" lon="8.160805">
        <ele>411.321178</ele>
        <time>2021-11-19T08:57:44.090Z</time>
      </trkpt>
      <trkpt lat="47.550099" lon="8.160724">
        <ele>410.955523</ele>
        <time>2021-11-19T08:57:45.414Z</time>
      </trkpt>
      <trkpt lat="47.550666" lon="8.160174">
        <ele>409.009393</ele>
        <time>2021-11-19T08:57:52.599Z</time>
      </trkpt>
      <trkpt lat="47.551164" lon="8.159529">
        <ele>407.109951</ele>
        <time>2021-11-19T08:57:59.128Z</time>
      </trkpt>
      <trkpt lat="47.551332" lon="8.159279">
        <ele>406.426199</ele>
        <time>2021-11-19T08:58:01.405Z</time>
      </trkpt>
      <trkpt lat="47.551447" lon="8.159096">
        <ele>405.886607</ele>
        <time>2021-11-19T08:58:03.095Z</time>
      </trkpt>
      <trkpt lat="47.551526" lon="8.158964">
        <ele>405.496109</ele>
        <time>2021-11-19T08:58:04.278Z</time>
      </trkpt>
      <trkpt lat="47.551653" lon="8.158711">
        <ele>404.798207</ele>
        <time>2021-11-19T08:58:06.407Z</time>
      </trkpt>
      <trkpt lat="47.551779" lon="8.158427">
        <ele>404.045942</ele>
        <time>2021-11-19T08:58:08.653Z</time>
      </trkpt>
      <trkpt lat="47.552174" lon="8.157599">
        <ele>401.801640</ele>
        <time>2021-11-19T08:58:15.490Z</time>
      </trkpt>
      <trkpt lat="47.552319" lon="8.157405">
        <ele>401.160928</ele>
        <time>2021-11-19T08:58:17.502Z</time>
      </trkpt>
      <trkpt lat="47.552683" lon="8.157162">
        <ele>400.099457</ele>
        <time>2021-11-19T08:58:21.825Z</time>
      </trkpt>
      <trkpt lat="47.552741" lon="8.157139">
        <ele>399.986935</ele>
        <time>2021-11-19T08:58:22.458Z</time>
      </trkpt>
      <trkpt lat="47.552966" lon="8.157085">
        <ele>399.559774</ele>
        <time>2021-11-19T08:58:25.026Z</time>
      </trkpt>
      <trkpt lat="47.553415" lon="8.156908">
        <ele>398.689046</ele>
        <time>2021-11-19T08:58:30.393Z</time>
      </trkpt>
      <trkpt lat="47.554024" lon="8.156353">
        <ele>397.349143</ele>
        <time>2021-11-19T08:58:38.605Z</time>
      </trkpt>
      <trkpt lat="47.555146" lon="8.156028">
        <ele>394.207997</ele>
        <time>2021-11-19T08:58:50.744Z</time>
      </trkpt>
      <trkpt lat="47.555483" lon="8.155879">
        <ele>393.193632</ele>
        <time>2021-11-19T08:58:54.377Z</time>
      </trkpt>
      <trkpt lat="47.555852" lon="8.155715">
        <ele>392.082473</ele>
        <time>2021-11-19T08:58:58.153Z</time>
      </trkpt>
      <trkpt lat="47.556361" lon="8.155432">
        <ele>389.928107</ele>
        <time>2021-11-19T08:59:03.469Z</time>
      </trkpt>
      <trkpt lat="47.556702" lon="8.155008">
        <ele>388.089369</ele>
        <time>2021-11-19T08:59:07.662Z</time>
      </trkpt>
      <trkpt lat="47.556982" lon="8.154756">
        <ele>386.736182</ele>
        <time>2021-11-19T08:59:10.835Z</time>
      </trkpt>
      <trkpt lat="47.557020" lon="8.154736">
        <ele>386.569612</ele>
        <time>2021-11-19T08:59:11.184Z</time>
      </trkpt>
      <trkpt lat="47.557234" lon="8.154662">
        <ele>385.661912</ele>
        <time>2021-11-19T08:59:13.397Z</time>
      </trkpt>
      <trkpt lat="47.557607" lon="8.154562">
        <ele>384.206404</ele>
        <time>2021-11-19T08:59:17.165Z</time>
      </trkpt>
      <trkpt lat="47.557909" lon="8.154469">
        <ele>383.338622</ele>
        <time>2021-11-19T08:59:20.282Z</time>
      </trkpt>
      <trkpt lat="47.557974" lon="8.154446">
        <ele>383.150613</ele>
        <time>2021-11-19T08:59:20.976Z</time>
      </trkpt>
      <trkpt lat="47.558498" lon="8.154242">
        <ele>381.626394</ele>
        <time>2021-11-19T08:59:26.496Z</time>
      </trkpt>
      <trkpt lat="47.558848" lon="8.154194">
        <ele>380.637516</ele>
        <time>2021-11-19T08:59:30.256Z</time>
      </trkpt>
      <trkpt lat="47.558924" lon="8.154185">
        <ele>380.423020</ele>
        <time>2021-11-19T08:59:31.037Z</time>
      </trkpt>
      <trkpt lat="47.558979" lon="8.154180">
        <ele>380.267995</ele>
        <time>2021-11-19T08:59:31.594Z</time>
      </trkpt>
      <trkpt lat="47.559032" lon="8.154178">
        <ele>380.118840</ele>
        <time>2021-11-19T08:59:32.154Z</time>
      </trkpt>
      <trkpt lat="47.559156" lon="8.154177">
        <ele>379.769980</ele>
        <time>2021-11-19T08:59:33.569Z</time>
      </trkpt>
      <trkpt lat="47.559284" lon="8.154179">
        <ele>379.409852</ele>
        <time>2021-11-19T08:59:34.895Z</time>
      </trkpt>
      <trkpt lat="47.559455" lon="8.154165">
        <ele>379.094944</ele>
        <time>2021-11-19T08:59:36.816Z</time>
      </trkpt>
      <trkpt lat="47.559591" lon="8.154124">
        <ele>378.848171</ele>
        <time>2021-11-19T08:59:38.419Z</time>
      </trkpt>
      <trkpt lat="47.559651" lon="8.154104">
        <ele>378.738820</ele>
        <time>2021-11-19T08:59:39.055Z</time>
      </trkpt>
      <trkpt lat="47.559698" lon="8.154088">
        <ele>378.653073</ele>
        <time>2021-11-19T08:59:39.591Z</time>
      </trkpt>
      <trkpt lat="47.559841" lon="8.154003">
        <ele>378.379114</ele>
        <time>2021-11-19T08:59:41.636Z</time>
      </trkpt>
      <trkpt lat="47.559905" lon="8.153956">
        <ele>378.252109</ele>
        <time>2021-11-19T08:59:42.506Z</time>
      </trkpt>
      <trkpt lat="47.559938" lon="8.153925">
        <ele>378.182635</ele>
        <time>2021-11-19T08:59:42.921Z</time>
      </trkpt>
      <trkpt lat="47.559990" lon="8.153866">
        <ele>378.066185</ele>
        <time>2021-11-19T08:59:43.606Z</time>
      </trkpt>
      <trkpt lat="47.560053" lon="8.153772">
        <ele>377.907221</ele>
        <time>2021-11-19T08:59:44.689Z</time>
      </trkpt>
      <trkpt lat="47.560153" lon="8.153582">
        <ele>377.618102</ele>
        <time>2021-11-19T08:59:46.711Z</time>
      </trkpt>
      <trkpt lat="47.560212" lon="8.153476">
        <ele>377.453232</ele>
        <time>2021-11-19T08:59:47.678Z</time>
      </trkpt>
      <trkpt lat="47.560330" lon="8.153256">
        <ele>377.116031</ele>
        <time>2021-11-19T08:59:53.900Z</time>
      </trkpt>
      <trkpt lat="47.560379" lon="8.153152">
        <ele>376.963838</ele>
        <time>2021-11-19T08:59:56.678Z</time>
      </trkpt>
      <trkpt lat="47.560422" lon="8.153030">
        <ele>376.798689</ele>
        <time>2021-11-19T08:59:59.469Z</time>
      </trkpt>
      <trkpt lat="47.560456" lon="8.152909">
        <ele>376.641420</ele>
        <time>2021-11-19T09:00:02.261Z</time>
      </trkpt>
      <trkpt lat="47.560547" lon="8.152508">
        <ele>376.136356</ele>
        <time>2021-11-19T09:00:11.206Z</time>
      </trkpt>
      <trkpt lat="47.560622" lon="8.152294">
        <ele>375.861947</ele>
        <time>2021-11-19T09:00:16.465Z</time>
      </trkpt>
      <trkpt lat="47.560668" lon="8.152171">
        <ele>375.701920</ele>
        <time>2021-11-19T09:00:19.502Z</time>
      </trkpt>
      <trkpt lat="47.560710" lon="8.152072">
        <ele>375.568847</ele>
        <time>2021-11-19T09:00:21.825Z</time>
      </trkpt>
      <trkpt lat="47.560747" lon="8.151985">
        <ele>375.451824</ele>
        <time>2021-11-19T09:00:23.948Z</time>
      </trkpt>
      <trkpt lat="47.560859" lon="8.151728">
        <ele>375.103683</ele>
        <time>2021-11-19T09:00:30.770Z</time>
      </trkpt>
      <trkpt lat="47.560916" lon="8.151600">
        <ele>374.929167</ele>
        <time>2021-11-19T09:00:33.869Z</time>
      </trkpt>
      <trkpt lat="47.561003" lon="8.151403">
        <ele>374.661250</ele>
        <time>2021-11-19T09:00:39.137Z</time>
      </trkpt>
      <trkpt lat="47.561109" lon="8.151163">
        <ele>374.334844</ele>
        <time>2021-11-19T09:00:45.311Z</time>
      </trkpt>
      <trkpt lat="47.561257" lon="8.150909">
        <ele>373.952963</ele>
        <time>2021-11-19T09:00:52.864Z</time>
      </trkpt>
      <trkpt lat="47.561352" lon="8.150768">
        <ele>373.726227</ele>
        <time>2021-11-19T09:00:57.126Z</time>
      </trkpt>
      <trkpt lat="47.561471" lon="8.150574">
        <ele>373.427888</ele>
        <time>2021-11-19T09:01:02.843Z</time>
      </trkpt>
      <trkpt lat="47.561512" lon="8.150470">
        <ele>373.290826</ele>
        <time>2021-11-19T09:01:05.553Z</time>
      </trkpt>
      <trkpt lat="47.561555" lon="8.150316">
        <ele>373.124895</ele>
        <time>2021-11-19T09:01:09.057Z</time>
      </trkpt>
      <trkpt lat="47.561767" lon="8.149503">
        <ele>372.611642</ele>
        <time>2021-11-19T09:01:28.567Z</time>
      </trkpt>
      <trkpt lat="47.561915" lon="8.148980">
        <ele>372.277680</ele>
        <time>2021-11-19T09:01:41.688Z</time>
      </trkpt>
      <trkpt lat="47.561943" lon="8.148889">
        <ele>372.218785</ele>
        <time>2021-11-19T09:01:43.914Z</time>
      </trkpt>
      <trkpt lat="47.561980" lon="8.148763">
        <ele>372.137867</ele>
        <time>2021-11-19T09:01:47.186Z</time>
      </trkpt>
      <trkpt lat="47.561998" lon="8.148673">
        <ele>372.082590</ele>
        <time>2021-11-19T09:01:49.474Z</time>
      </trkpt>
      <trkpt lat="47.562009" lon="8.148597">
        <ele>372.036818</ele>
        <time>2021-11-19T09:01:50.287Z</time>
      </trkpt>
      <trkpt lat="47.562009" lon="8.148365">
        <ele>371.900202</ele>
        <time>2021-11-19T09:01:52.261Z</time>
      </trkpt>
      <trkpt lat="47.561978" lon="8.148254">
        <ele>371.829461</ele>
        <time>2021-11-19T09:01:53.338Z</time>
      </trkpt>
      <trkpt lat="47.561913" lon="8.148081">
        <ele>371.712860</ele>
        <time>2021-11-19T09:01:55.272Z</time>
      </trkpt>
      <trkpt lat="47.561833" lon="8.147845">
        <ele>371.553927</ele>
        <time>2021-11-19T09:01:57.680Z</time>
      </trkpt>
      <trkpt lat="47.561822" lon="8.147813">
        <ele>371.529695</ele>
        <time>2021-11-19T09:01:58.083Z</time>
      </trkpt>
      <trkpt lat="47.561781" lon="8.147568">
        <ele>371.359378</ele>
        <time>2021-11-19T09:02:00.510Z</time>
      </trkpt>
      <trkpt lat="47.561778" lon="8.147534">
        <ele>371.336242</ele>
        <time>2021-11-19T09:02:00.807Z</time>
      </trkpt>
      <trkpt lat="47.561759" lon="8.147209">
        <ele>371.116133</ele>
        <time>2021-11-19T09:02:03.665Z</time>
      </trkpt>
      <trkpt lat="47.561783" lon="8.146574">
        <ele>370.687007</ele>
        <time>2021-11-19T09:02:09.146Z</time>
      </trkpt>
      <trkpt lat="47.561789" lon="8.146405">
        <ele>370.572820</ele>
        <time>2021-11-19T09:02:10.522Z</time>
      </trkpt>
      <trkpt lat="47.561811" lon="8.145912">
        <ele>370.239451</ele>
        <time>2021-11-19T09:02:14.619Z</time>
      </trkpt>
      <trkpt lat="47.561827" lon="8.145709">
        <ele>370.101550</ele>
        <time>2021-11-19T09:02:16.284Z</time>
      </trkpt>
      <trkpt lat="47.561842" lon="8.145448">
        <ele>369.924808</ele>
        <time>2021-11-19T09:02:18.312Z</time>
      </trkpt>
      <trkpt lat="47.561847" lon="8.145230">
        <ele>369.773654</ele>
        <time>2021-11-19T09:02:19.931Z</time>
      </trkpt>
      <trkpt lat="47.561843" lon="8.145077">
        <ele>369.581491</ele>
        <time>2021-11-19T09:02:21.073Z</time>
      </trkpt>
      <trkpt lat="47.561830" lon="8.144934">
        <ele>369.400400</ele>
        <time>2021-11-19T09:02:22.129Z</time>
      </trkpt>
      <trkpt lat="47.561764" lon="8.144413">
        <ele>368.735108</ele>
        <time>2021-11-19T09:02:25.992Z</time>
      </trkpt>
      <trkpt lat="47.561737" lon="8.144240">
        <ele>368.512256</ele>
        <time>2021-11-19T09:02:27.253Z</time>
      </trkpt>
      <trkpt lat="47.561693" lon="8.143892">
        <ele>368.067905</ele>
        <time>2021-11-19T09:02:29.879Z</time>
      </trkpt>
      <trkpt lat="47.561629" lon="8.143405">
        <ele>367.445221</ele>
        <time>2021-11-19T09:02:33.557Z</time>
      </trkpt>
      <trkpt lat="47.561569" lon="8.142863">
        <ele>366.755900</ele>
        <time>2021-11-19T09:02:37.629Z</time>
      </trkpt>
      <trkpt lat="47.561548" lon="8.142491">
        <ele>366.420509</ele>
        <time>2021-11-19T09:02:40.509Z</time>
      </trkpt>
      <trkpt lat="47.561542" lon="8.142165">
        <ele>366.375355</ele>
        <time>2021-11-19T09:02:43.003Z</time>
      </trkpt>
      <trkpt lat="47.561548" lon="8.141908">
        <ele>366.339749</ele>
        <time>2021-11-19T09:02:45.248Z</time>
      </trkpt>
      <trkpt lat="47.561563" lon="8.141574">
        <ele>366.293401</ele>
        <time>2021-11-19T09:02:48.048Z</time>
      </trkpt>
      <trkpt lat="47.561574" lon="8.141379">
        <ele>366.266307</ele>
        <time>2021-11-19T09:02:49.909Z</time>
      </trkpt>
      <trkpt lat="47.561660" lon="8.140164">
        <ele>366.097156</ele>
        <time>2021-11-19T09:03:02.382Z</time>
      </trkpt>
      <trkpt lat="47.561507" lon="8.138771">
        <ele>367.013228</ele>
        <time>2021-11-19T09:03:23.527Z</time>
      </trkpt>
      <trkpt lat="47.561504" lon="8.138613">
        <ele>367.137691</ele>
        <time>2021-11-19T09:03:25.712Z</time>
      </trkpt>
      <trkpt lat="47.561520" lon="8.138020">
        <ele>367.605010</ele>
        <time>2021-11-19T09:03:34.421Z</time>
      </trkpt>
      <trkpt lat="47.561531" lon="8.137825">
        <ele>367.759095</ele>
        <time>2021-11-19T09:03:37.254Z</time>
      </trkpt>
      <trkpt lat="47.561548" lon="8.137622">
        <ele>367.920169</ele>
        <time>2021-11-19T09:03:39.376Z</time>
      </trkpt>
      <trkpt lat="47.561574" lon="8.137322">
        <ele>368.158338</ele>
        <time>2021-11-19T09:03:42.493Z</time>
      </trkpt>
      <trkpt lat="47.561604" lon="8.136996">
        <ele>367.634423</ele>
        <time>2021-11-19T09:03:45.750Z</time>
      </trkpt>
      <trkpt lat="47.561651" lon="8.136422">
        <ele>366.667151</ele>
        <time>2021-11-19T09:03:51.132Z</time>
      </trkpt>
      <trkpt lat="47.561673" lon="8.136111">
        <ele>366.144038</ele>
        <time>2021-11-19T09:03:53.958Z</time>
      </trkpt>
      <trkpt lat="47.561695" lon="8.135815">
        <ele>365.645874</ele>
        <time>2021-11-19T09:03:56.063Z</time>
      </trkpt>
      <trkpt lat="47.561699" lon="8.135702">
        <ele>365.456580</ele>
        <time>2021-11-19T09:03:56.864Z</time>
      </trkpt>
      <trkpt lat="47.561711" lon="8.135438">
        <ele>365.013942</ele>
        <time>2021-11-19T09:03:58.583Z</time>
      </trkpt>
      <trkpt lat="47.561720" lon="8.135210">
        <ele>364.631876</ele>
        <time>2021-11-19T09:04:00.069Z</time>
      </trkpt>
      <trkpt lat="47.561725" lon="8.133913">
        <ele>361.073199</ele>
        <time>2021-11-19T09:04:08.143Z</time>
      </trkpt>
      <trkpt lat="47.561698" lon="8.133720">
        <ele>360.375833</ele>
        <time>2021-11-19T09:04:09.413Z</time>
      </trkpt>
      <trkpt lat="47.561664" lon="8.133579">
        <ele>359.846071</ele>
        <time>2021-11-19T09:04:10.361Z</time>
      </trkpt>
      <trkpt lat="47.561623" lon="8.133432">
        <ele>359.283300</ele>
        <time>2021-11-19T09:04:11.290Z</time>
      </trkpt>
      <trkpt lat="47.561228" lon="8.132726">
        <ele>356.038510</ele>
        <time>2021-11-19T09:04:17.225Z</time>
      </trkpt>
      <trkpt lat="47.561195" lon="8.132668">
        <ele>355.770092</ele>
        <time>2021-11-19T09:04:17.685Z</time>
      </trkpt>
      <trkpt lat="47.561161" lon="8.132610">
        <ele>355.498265</ele>
        <time>2021-11-19T09:04:18.120Z</time>
      </trkpt>
      <trkpt lat="47.561056" lon="8.132422">
        <ele>354.634826</ele>
        <time>2021-11-19T09:04:19.832Z</time>
      </trkpt>
      <trkpt lat="47.561185" lon="8.132211">
        <ele>353.923988</ele>
        <time>2021-11-19T09:04:21.567Z</time>
      </trkpt>
      <trkpt lat="47.561796" lon="8.130897">
        <ele>350.854465</ele>
        <time>2021-11-19T09:04:32.531Z</time>
      </trkpt>
      <trkpt lat="47.562119" lon="8.130197">
        <ele>349.223289</ele>
        <time>2021-11-19T09:04:39.211Z</time>
      </trkpt>
      <trkpt lat="47.562169" lon="8.130101">
        <ele>349.072206</ele>
        <time>2021-11-19T09:04:40.212Z</time>
      </trkpt>
      <trkpt lat="47.562200" lon="8.130042">
        <ele>349.002195</ele>
        <time>2021-11-19T09:04:40.840Z</time>
      </trkpt>
      <trkpt lat="47.562419" lon="8.129559">
        <ele>348.457374</ele>
        <time>2021-11-19T09:04:45.452Z</time>
      </trkpt>
      <trkpt lat="47.562839" lon="8.128684">
        <ele>347.452026</ele>
        <time>2021-11-19T09:04:53.734Z</time>
      </trkpt>
      <trkpt lat="47.562984" lon="8.128403">
        <ele>347.120830</ele>
        <time>2021-11-19T09:04:56.536Z</time>
      </trkpt>
      <trkpt lat="47.563096" lon="8.128178">
        <ele>346.859058</ele>
        <time>2021-11-19T09:04:58.988Z</time>
      </trkpt>
      <trkpt lat="47.563232" lon="8.127932">
        <ele>346.539991</ele>
        <time>2021-11-19T09:05:01.451Z</time>
      </trkpt>
      <trkpt lat="47.563398" lon="8.127697">
        <ele>346.148627</ele>
        <time>2021-11-19T09:05:04.065Z</time>
      </trkpt>
      <trkpt lat="47.563589" lon="8.127466">
        <ele>345.728344</ele>
        <time>2021-11-19T09:05:08.043Z</time>
      </trkpt>
      <trkpt lat="47.563627" lon="8.127420">
        <ele>345.644698</ele>
        <time>2021-11-19T09:05:08.481Z</time>
      </trkpt>
      <trkpt lat="47.563751" lon="8.127247">
        <ele>345.354367</ele>
        <time>2021-11-19T09:05:10.303Z</time>
      </trkpt>
      <trkpt lat="47.563829" lon="8.127101">
        <ele>345.140150</ele>
        <time>2021-11-19T09:05:12.944Z</time>
      </trkpt>
      <trkpt lat="47.563898" lon="8.126936">
        <ele>344.916849</ele>
        <time>2021-11-19T09:05:16.588Z</time>
      </trkpt>
      <trkpt lat="47.563932" lon="8.126822">
        <ele>344.773472</ele>
        <time>2021-11-19T09:05:19.146Z</time>
      </trkpt>
      <trkpt lat="47.563935" lon="8.126813">
        <ele>344.761925</ele>
        <time>2021-11-19T09:05:19.333Z</time>
      </trkpt>
      <trkpt lat="47.563988" lon="8.126616">
        <ele>344.517960</ele>
        <time>2021-11-19T09:05:25.547Z</time>
      </trkpt>
      <trkpt lat="47.564016" lon="8.126515">
        <ele>344.392353</ele>
        <time>2021-11-19T09:05:27.453Z</time>
      </trkpt>
      <trkpt lat="47.564050" lon="8.126343">
        <ele>344.186180</ele>
        <time>2021-11-19T09:05:31.207Z</time>
      </trkpt>
      <trkpt lat="47.564078" lon="8.126253">
        <ele>344.072176</ele>
        <time>2021-11-19T09:05:33.695Z</time>
      </trkpt>
      <trkpt lat="47.564142" lon="8.126069">
        <ele>343.834048</ele>
        <time>2021-11-19T09:05:38.210Z</time>
      </trkpt>
      <trkpt lat="47.564204" lon="8.125933">
        <ele>343.645245</ele>
        <time>2021-11-19T09:05:39.313Z</time>
      </trkpt>
      <trkpt lat="47.564281" lon="8.125780">
        <ele>343.349254</ele>
        <time>2021-11-19T09:05:40.895Z</time>
      </trkpt>
      <trkpt lat="47.564404" lon="8.125557">
        <ele>342.862153</ele>
        <time>2021-11-19T09:05:42.942Z</time>
      </trkpt>
      <trkpt lat="47.564445" lon="8.125480">
        <ele>342.696269</ele>
        <time>2021-11-19T09:05:43.586Z</time>
      </trkpt>
      <trkpt lat="47.564862" lon="8.124663">
        <ele>340.963811</ele>
        <time>2021-11-19T09:05:50.963Z</time>
      </trkpt>
      <trkpt lat="47.565033" lon="8.124341">
        <ele>340.270826</ele>
        <time>2021-11-19T09:05:53.922Z</time>
      </trkpt>
      <trkpt lat="47.565098" lon="8.124202">
        <ele>339.984820</ele>
        <time>2021-11-19T09:05:55.033Z</time>
      </trkpt>
      <trkpt lat="47.565268" lon="8.123888">
        <ele>339.303989</ele>
        <time>2021-11-19T09:05:57.829Z</time>
      </trkpt>
      <trkpt lat="47.565326" lon="8.123776">
        <ele>339.070937</ele>
        <time>2021-11-19T09:05:58.739Z</time>
      </trkpt>
      <trkpt lat="47.565434" lon="8.123568">
        <ele>338.796379</ele>
        <time>2021-11-19T09:06:00.655Z</time>
      </trkpt>
      <trkpt lat="47.565629" lon="8.123189">
        <ele>338.297790</ele>
        <time>2021-11-19T09:06:04.154Z</time>
      </trkpt>
      <trkpt lat="47.565933" lon="8.122582">
        <ele>337.507005</ele>
        <time>2021-11-19T09:06:10.102Z</time>
      </trkpt>
      <trkpt lat="47.565954" lon="8.122541">
        <ele>337.453157</ele>
        <time>2021-11-19T09:06:10.481Z</time>
      </trkpt>
      <trkpt lat="47.566102" lon="8.122133">
        <ele>336.968580</ele>
        <time>2021-11-19T09:06:14.412Z</time>
      </trkpt>
      <trkpt lat="47.566119" lon="8.122027">
        <ele>336.854605</ele>
        <time>2021-11-19T09:06:15.223Z</time>
      </trkpt>
      <trkpt lat="47.566151" lon="8.121930">
        <ele>336.741654</ele>
        <time>2021-11-19T09:06:16.339Z</time>
      </trkpt>
      <trkpt lat="47.566318" lon="8.120964">
        <ele>335.905990</ele>
        <time>2021-11-19T09:06:24.537Z</time>
      </trkpt>
      <trkpt lat="47.566366" lon="8.120637">
        <ele>335.678385</ele>
        <time>2021-11-19T09:06:27.393Z</time>
      </trkpt>
      <trkpt lat="47.566398" lon="8.120421">
        <ele>335.527977</ele>
        <time>2021-11-19T09:06:29.402Z</time>
      </trkpt>
      <trkpt lat="47.566431" lon="8.120180">
        <ele>335.360724</ele>
        <time>2021-11-19T09:06:31.401Z</time>
      </trkpt>
      <trkpt lat="47.566474" lon="8.119870">
        <ele>335.145474</ele>
        <time>2021-11-19T09:06:34.262Z</time>
      </trkpt>
      <trkpt lat="47.566566" lon="8.119245">
        <ele>334.710395</ele>
        <time>2021-11-19T09:06:39.584Z</time>
      </trkpt>
      <trkpt lat="47.566580" lon="8.119152">
        <ele>334.645587</ele>
        <time>2021-11-19T09:06:40.255Z</time>
      </trkpt>
      <trkpt lat="47.566644" lon="8.118715">
        <ele>334.323661</ele>
        <time>2021-11-19T09:06:43.867Z</time>
      </trkpt>
      <trkpt lat="47.566733" lon="8.118099">
        <ele>333.839631</ele>
        <time>2021-11-19T09:06:48.531Z</time>
      </trkpt>
      <trkpt lat="47.566811" lon="8.117556">
        <ele>333.413071</ele>
        <time>2021-11-19T09:06:52.703Z</time>
      </trkpt>
      <trkpt lat="47.566944" lon="8.116530">
        <ele>332.610336</ele>
        <time>2021-11-19T09:07:01.746Z</time>
      </trkpt>
      <trkpt lat="47.566983" lon="8.116203">
        <ele>332.390344</ele>
        <time>2021-11-19T09:07:04.688Z</time>
      </trkpt>
      <trkpt lat="47.567009" lon="8.116010">
        <ele>332.309786</ele>
        <time>2021-11-19T09:07:07.363Z</time>
      </trkpt>
      <trkpt lat="47.567157" lon="8.115310">
        <ele>332.009525</ele>
        <time>2021-11-19T09:07:13.622Z</time>
      </trkpt>
      <trkpt lat="47.567411" lon="8.114753">
        <ele>331.734347</ele>
        <time>2021-11-19T09:07:19.284Z</time>
      </trkpt>
      <trkpt lat="47.567654" lon="8.114290">
        <ele>331.494251</ele>
        <time>2021-11-19T09:07:24.603Z</time>
      </trkpt>
      <trkpt lat="47.567881" lon="8.113862">
        <ele>331.100810</ele>
        <time>2021-11-19T09:07:29.603Z</time>
      </trkpt>
      <trkpt lat="47.568167" lon="8.113323">
        <ele>330.114520</ele>
        <time>2021-11-19T09:07:35.551Z</time>
      </trkpt>
      <trkpt lat="47.568835" lon="8.112063">
        <ele>327.809672</ele>
        <time>2021-11-19T09:07:46.887Z</time>
      </trkpt>
      <trkpt lat="47.569083" lon="8.111567">
        <ele>326.601495</ele>
        <time>2021-11-19T09:07:51.075Z</time>
      </trkpt>
      <trkpt lat="47.569107" lon="8.111522">
        <ele>326.473691</ele>
        <time>2021-11-19T09:07:51.403Z</time>
      </trkpt>
      <trkpt lat="47.569423" lon="8.110628">
        <ele>324.225041</ele>
        <time>2021-11-19T09:07:58.219Z</time>
      </trkpt>
      <trkpt lat="47.569495" lon="8.110499">
        <ele>323.852029</ele>
        <time>2021-11-19T09:07:59.215Z</time>
      </trkpt>
      <trkpt lat="47.569574" lon="8.110385">
        <ele>323.487926</ele>
        <time>2021-11-19T09:08:00.280Z</time>
      </trkpt>
      <trkpt lat="47.569664" lon="8.110262">
        <ele>323.083660</ele>
        <time>2021-11-19T09:08:02.629Z</time>
      </trkpt>
      <trkpt lat="47.569787" lon="8.110094">
        <ele>322.531314</ele>
        <time>2021-11-19T09:08:04.185Z</time>
      </trkpt>
      <trkpt lat="47.569974" lon="8.109825">
        <ele>321.670771</ele>
        <time>2021-11-19T09:08:07.076Z</time>
      </trkpt>
      <trkpt lat="47.570263" lon="8.109376">
        <ele>322.030151</ele>
        <time>2021-11-19T09:08:11.657Z</time>
      </trkpt>
      <trkpt lat="47.570283" lon="8.109343">
        <ele>322.066118</ele>
        <time>2021-11-19T09:08:11.956Z</time>
      </trkpt>
      <trkpt lat="47.570582" lon="8.108889">
        <ele>322.580531</ele>
        <time>2021-11-19T09:08:17.541Z</time>
      </trkpt>
      <trkpt lat="47.570830" lon="8.108502">
        <ele>323.013297</ele>
        <time>2021-11-19T09:08:27.867Z</time>
      </trkpt>
      <trkpt lat="47.571253" lon="8.107823">
        <ele>323.751531</ele>
        <time>2021-11-19T09:08:47.228Z</time>
      </trkpt>
      <trkpt lat="47.571440" lon="8.107260">
        <ele>324.102205</ele>
        <time>2021-11-19T09:09:00.067Z</time>
      </trkpt>
      <trkpt lat="47.571458" lon="8.107087">
        <ele>324.200023</ele>
        <time>2021-11-19T09:09:04.191Z</time>
      </trkpt>
      <trkpt lat="47.571460" lon="8.106995">
        <ele>324.251460</ele>
        <time>2021-11-19T09:09:05.823Z</time>
      </trkpt>
      <trkpt lat="47.571461" lon="8.106820">
        <ele>324.349256</ele>
        <time>2021-11-19T09:09:07.409Z</time>
      </trkpt>
      <trkpt lat="47.571440" lon="8.106588">
        <ele>324.480063</ele>
        <time>2021-11-19T09:09:10.237Z</time>
      </trkpt>
      <trkpt lat="47.571298" lon="8.105561">
        <ele>325.065895</ele>
        <time>2021-11-19T09:09:18.549Z</time>
      </trkpt>
      <trkpt lat="47.571251" lon="8.105188">
        <ele>325.116333</ele>
        <time>2021-11-19T09:09:21.456Z</time>
      </trkpt>
      <trkpt lat="47.571234" lon="8.105037">
        <ele>324.976169</ele>
        <time>2021-11-19T09:09:23.094Z</time>
      </trkpt>
      <trkpt lat="47.571214" lon="8.104836">
        <ele>324.790148</ele>
        <time>2021-11-19T09:09:24.740Z</time>
      </trkpt>
      <trkpt lat="47.571252" lon="8.104668">
        <ele>324.627917</ele>
        <time>2021-11-19T09:09:26.243Z</time>
      </trkpt>
      <trkpt lat="47.571285" lon="8.104547">
        <ele>324.508423</ele>
        <time>2021-11-19T09:09:27.164Z</time>
      </trkpt>
      <trkpt lat="47.571319" lon="8.104520">
        <ele>324.456078</ele>
        <time>2021-11-19T09:09:27.582Z</time>
      </trkpt>
      <trkpt lat="47.571345" lon="8.104476">
        <ele>324.402525</ele>
        <time>2021-11-19T09:09:27.970Z</time>
      </trkpt>
      <trkpt lat="47.571359" lon="8.104422">
        <ele>324.349560</ele>
        <time>2021-11-19T09:09:28.343Z</time>
      </trkpt>
      <trkpt lat="47.571359" lon="8.104365">
        <ele>324.297372</ele>
        <time>2021-11-19T09:09:28.779Z</time>
      </trkpt>
      <trkpt lat="47.571346" lon="8.104311">
        <ele>324.244878</ele>
        <time>2021-11-19T09:09:29.163Z</time>
      </trkpt>
      <trkpt lat="47.571354" lon="8.104222">
        <ele>324.162672</ele>
        <time>2021-11-19T09:09:30.193Z</time>
      </trkpt>
      <trkpt lat="47.571310" lon="8.104135">
        <ele>324.063121</ele>
        <time>2021-11-19T09:09:30.934Z</time>
      </trkpt>
      <trkpt lat="47.571041" lon="8.104109">
        <ele>323.697295</ele>
        <time>2021-11-19T09:09:33.806Z</time>
      </trkpt>
      <trkpt lat="47.570788" lon="8.103933">
        <ele>323.318022</ele>
        <time>2021-11-19T09:09:36.784Z</time>
      </trkpt>
      <trkpt lat="47.570667" lon="8.103884">
        <ele>323.147799</ele>
        <time>2021-11-19T09:09:38.487Z</time>
      </trkpt>
      <trkpt lat="47.570391" lon="8.103841">
        <ele>322.782803</ele>
        <time>2021-11-19T09:09:47.340Z</time>
      </trkpt>
      <trkpt lat="47.570159" lon="8.103813">
        <ele>323.260595</ele>
        <time>2021-11-19T09:09:51.428Z</time>
      </trkpt>
      <trkpt lat="47.569557" lon="8.103677">
        <ele>324.510565</ele>
        <time>2021-11-19T09:10:07.768Z</time>
      </trkpt>
      <trkpt lat="47.567683" lon="8.103272">
        <ele>328.975265</ele>
        <time>2021-11-19T09:10:56.034Z</time>
      </trkpt>
      <trkpt lat="47.566684" lon="8.102974">
        <ele>331.621115</ele>
        <time>2021-11-19T09:11:22.182Z</time>
      </trkpt>
      <trkpt lat="47.565727" lon="8.102512">
        <ele>333.856852</ele>
        <time>2021-11-19T09:11:47.454Z</time>
      </trkpt>
      <trkpt lat="47.564165" lon="8.101615">
        <ele>337.397409</ele>
        <time>2021-11-19T09:12:22.645Z</time>
      </trkpt>
      <trkpt lat="47.563202" lon="8.101042">
        <ele>339.865933</ele>
        <time>2021-11-19T09:12:48.458Z</time>
      </trkpt>
      <trkpt lat="47.563031" lon="8.100935">
        <ele>340.471226</ele>
        <time>2021-11-19T09:12:55.341Z</time>
      </trkpt>
      <trkpt lat="47.562207" lon="8.100413">
        <ele>343.393467</ele>
        <time>2021-11-19T09:13:25.782Z</time>
      </trkpt>
      <trkpt lat="47.561466" lon="8.099697">
        <ele>344.978170</ele>
        <time>2021-11-19T09:13:56.682Z</time>
      </trkpt>
      <trkpt lat="47.560787" lon="8.098864">
        <ele>345.308998</ele>
        <time>2021-11-19T09:14:16.351Z</time>
      </trkpt>
      <trkpt lat="47.560171" lon="8.097877">
        <ele>343.398028</ele>
        <time>2021-11-19T09:14:29.932Z</time>
      </trkpt>
      <trkpt lat="47.559606" lon="8.096837">
        <ele>339.131680</ele>
        <time>2021-11-19T09:14:41.943Z</time>
      </trkpt>
      <trkpt lat="47.558983" lon="8.095482">
        <ele>333.851449</ele>
        <time>2021-11-19T09:14:56.471Z</time>
      </trkpt>
      <trkpt lat="47.558857" lon="8.095293">
        <ele>332.991194</ele>
        <time>2021-11-19T09:14:58.964Z</time>
      </trkpt>
      <trkpt lat="47.558776" lon="8.095210">
        <ele>332.518664</ele>
        <time>2021-11-19T09:15:00.213Z</time>
      </trkpt>
      <trkpt lat="47.558531" lon="8.094661">
        <ele>330.387444</ele>
        <time>2021-11-19T09:15:04.494Z</time>
      </trkpt>
      <trkpt lat="47.557677" lon="8.092776">
        <ele>324.074969</ele>
        <time>2021-11-19T09:15:19.919Z</time>
      </trkpt>
      <trkpt lat="47.556850" lon="8.091457">
        <ele>318.854141</ele>
        <time>2021-11-19T09:15:31.543Z</time>
      </trkpt>
      <trkpt lat="47.556692" lon="8.091113">
        <ele>317.483249</ele>
        <time>2021-11-19T09:15:34.146Z</time>
      </trkpt>
      <trkpt lat="47.556527" lon="8.090721">
        <ele>315.961184</ele>
        <time>2021-11-19T09:15:37.027Z</time>
      </trkpt>
      <trkpt lat="47.556259" lon="8.090058">
        <ele>313.415051</ele>
        <time>2021-11-19T09:15:41.939Z</time>
      </trkpt>
      <trkpt lat="47.556193" lon="8.089926">
        <ele>312.873817</ele>
        <time>2021-11-19T09:15:43.071Z</time>
      </trkpt>
      <trkpt lat="47.556110" lon="8.089809">
        <ele>312.537662</ele>
        <time>2021-11-19T09:15:44.149Z</time>
      </trkpt>
      <trkpt lat="47.556137" lon="8.089730">
        <ele>312.460615</ele>
        <time>2021-11-19T09:15:44.702Z</time>
      </trkpt>
      <trkpt lat="47.556151" lon="8.089459">
        <ele>312.224137</ele>
        <time>2021-11-19T09:15:46.545Z</time>
      </trkpt>
      <trkpt lat="47.556111" lon="8.089266">
        <ele>312.048474</ele>
        <time>2021-11-19T09:15:47.834Z</time>
      </trkpt>
      <trkpt lat="47.556065" lon="8.089084">
        <ele>311.879381</ele>
        <time>2021-11-19T09:15:49.144Z</time>
      </trkpt>
      <trkpt lat="47.555997" lon="8.088801">
        <ele>311.618010</ele>
        <time>2021-11-19T09:15:51.453Z</time>
      </trkpt>
      <trkpt lat="47.555991" lon="8.088778">
        <ele>311.596556</ele>
        <time>2021-11-19T09:15:51.691Z</time>
      </trkpt>
      <trkpt lat="47.555939" lon="8.088552">
        <ele>311.388806</ele>
        <time>2021-11-19T09:15:53.521Z</time>
      </trkpt>
      <trkpt lat="47.555887" lon="8.088299">
        <ele>311.158696</ele>
        <time>2021-11-19T09:15:56.032Z</time>
      </trkpt>
      <trkpt lat="47.555829" lon="8.087941">
        <ele>310.838360</ele>
        <time>2021-11-19T09:15:59.848Z</time>
      </trkpt>
      <trkpt lat="47.555809" lon="8.087783">
        <ele>310.698492</ele>
        <time>2021-11-19T09:16:01.459Z</time>
      </trkpt>
      <trkpt lat="47.555780" lon="8.087557">
        <ele>310.498332</ele>
        <time>2021-11-19T09:16:03.636Z</time>
      </trkpt>
      <trkpt lat="47.555737" lon="8.087083">
        <ele>310.923390</ele>
        <time>2021-11-19T09:16:11.263Z</time>
      </trkpt>
      <trkpt lat="47.555733" lon="8.086819">
        <ele>311.585787</ele>
        <time>2021-11-19T09:16:16.285Z</time>
      </trkpt>
      <trkpt lat="47.555764" lon="8.085769">
        <ele>314.222172</ele>
        <time>2021-11-19T09:16:38.121Z</time>
      </trkpt>
      <trkpt lat="47.555899" lon="8.084472">
        <ele>317.710624</ele>
        <time>2021-11-19T09:17:07.532Z</time>
      </trkpt>
      <trkpt lat="47.555956" lon="8.084115">
        <ele>318.972202</ele>
        <time>2021-11-19T09:17:16.286Z</time>
      </trkpt>
      <trkpt lat="47.556083" lon="8.083354">
        <ele>321.668027</ele>
        <time>2021-11-19T09:17:34.484Z</time>
      </trkpt>
      <trkpt lat="47.556470" lon="8.081563">
        <ele>327.673303</ele>
        <time>2021-11-19T09:18:21.213Z</time>
      </trkpt>
      <trkpt lat="47.556853" lon="8.080477">
        <ele>330.907156</ele>
        <time>2021-11-19T09:18:47.286Z</time>
      </trkpt>
      <trkpt lat="47.557099" lon="8.079786">
        <ele>332.968972</ele>
        <time>2021-11-19T09:19:01.611Z</time>
      </trkpt>
      <trkpt lat="47.557256" lon="8.079416">
        <ele>333.235091</ele>
        <time>2021-11-19T09:19:08.331Z</time>
      </trkpt>
      <trkpt lat="47.557793" lon="8.078299">
        <ele>333.434639</ele>
        <time>2021-11-19T09:19:24.632Z</time>
      </trkpt>
      <trkpt lat="47.558613" lon="8.076826">
        <ele>332.493052</ele>
        <time>2021-11-19T09:19:39.196Z</time>
      </trkpt>
      <trkpt lat="47.559046" lon="8.076086">
        <ele>331.406236</ele>
        <time>2021-11-19T09:19:46.576Z</time>
      </trkpt>
      <trkpt lat="47.559426" lon="8.075372">
        <ele>330.418624</ele>
        <time>2021-11-19T09:19:53.573Z</time>
      </trkpt>
      <trkpt lat="47.559811" lon="8.074398">
        <ele>329.290000</ele>
        <time>2021-11-19T09:20:02.467Z</time>
      </trkpt>
      <trkpt lat="47.560318" lon="8.072316">
        <ele>326.741710</ele>
        <time>2021-11-19T09:20:19.739Z</time>
      </trkpt>
      <trkpt lat="47.560524" lon="8.071179">
        <ele>325.111976</ele>
        <time>2021-11-19T09:20:28.305Z</time>
      </trkpt>
      <trkpt lat="47.560553" lon="8.071099">
        <ele>324.986261</ele>
        <time>2021-11-19T09:20:28.916Z</time>
      </trkpt>
      <trkpt lat="47.560584" lon="8.070919">
        <ele>324.729094</ele>
        <time>2021-11-19T09:20:30.226Z</time>
      </trkpt>
      <trkpt lat="47.560739" lon="8.070551">
        <ele>324.138160</ele>
        <time>2021-11-19T09:20:33.313Z</time>
      </trkpt>
      <trkpt lat="47.560864" lon="8.070015">
        <ele>323.410895</ele>
        <time>2021-11-19T09:20:37.335Z</time>
      </trkpt>
      <trkpt lat="47.560904" lon="8.069780">
        <ele>323.100088</ele>
        <time>2021-11-19T09:20:39.080Z</time>
      </trkpt>
      <trkpt lat="47.560998" lon="8.069237">
        <ele>322.381191</ele>
        <time>2021-11-19T09:20:43.160Z</time>
      </trkpt>
      <trkpt lat="47.561130" lon="8.068650">
        <ele>321.587720</ele>
        <time>2021-11-19T09:20:47.830Z</time>
      </trkpt>
      <trkpt lat="47.561187" lon="8.068256">
        <ele>321.070971</ele>
        <time>2021-11-19T09:20:51.105Z</time>
      </trkpt>
      <trkpt lat="47.561229" lon="8.067903">
        <ele>320.813187</ele>
        <time>2021-11-19T09:20:54.143Z</time>
      </trkpt>
      <trkpt lat="47.561265" lon="8.067435">
        <ele>320.740837</ele>
        <time>2021-11-19T09:20:58.125Z</time>
      </trkpt>
      <trkpt lat="47.561276" lon="8.067022">
        <ele>320.677352</ele>
        <time>2021-11-19T09:21:02.042Z</time>
      </trkpt>
      <trkpt lat="47.561253" lon="8.066385">
        <ele>320.579370</ele>
        <time>2021-11-19T09:21:08.557Z</time>
      </trkpt>
      <trkpt lat="47.561108" lon="8.065242">
        <ele>320.365255</ele>
        <time>2021-11-19T09:21:20.923Z</time>
      </trkpt>
      <trkpt lat="47.561017" lon="8.064820">
        <ele>320.218108</ele>
        <time>2021-11-19T09:21:25.563Z</time>
      </trkpt>
      <trkpt lat="47.560887" lon="8.064271">
        <ele>320.024860</ele>
        <time>2021-11-19T09:21:30.760Z</time>
      </trkpt>
      <trkpt lat="47.560806" lon="8.064037">
        <ele>319.937509</ele>
        <time>2021-11-19T09:21:33.029Z</time>
      </trkpt>
      <trkpt lat="47.560719" lon="8.063873">
        <ele>319.868220</ele>
        <time>2021-11-19T09:21:34.813Z</time>
      </trkpt>
      <trkpt lat="47.560392" lon="8.063300">
        <ele>319.618967</ele>
        <time>2021-11-19T09:21:41.110Z</time>
      </trkpt>
      <trkpt lat="47.560335" lon="8.063169">
        <ele>319.567195</ele>
        <time>2021-11-19T09:21:42.457Z</time>
      </trkpt>
      <trkpt lat="47.560443" lon="8.063042">
        <ele>319.469974</ele>
        <time>2021-11-19T09:21:44.126Z</time>
      </trkpt>
      <trkpt lat="47.560545" lon="8.062928">
        <ele>319.367483</ele>
        <time>2021-11-19T09:21:45.693Z</time>
      </trkpt>
      <trkpt lat="47.560580" lon="8.062890">
        <ele>319.332675</ele>
        <time>2021-11-19T09:21:46.228Z</time>
      </trkpt>
      <trkpt lat="47.560673" lon="8.062786">
        <ele>319.239208</ele>
        <time>2021-11-19T09:21:48.299Z</time>
      </trkpt>
      <trkpt lat="47.560765" lon="8.062729">
        <ele>319.159213</ele>
        <time>2021-11-19T09:21:50.051Z</time>
      </trkpt>
      <trkpt lat="47.560570" lon="8.061926">
        <ele>318.697216</ele>
        <time>2021-11-19T09:21:57.407Z</time>
      </trkpt>
      <trkpt lat="47.560335" lon="8.060984">
        <ele>318.153529</ele>
        <time>2021-11-19T09:22:05.736Z</time>
      </trkpt>
      <trkpt lat="47.560293" lon="8.060828">
        <ele>318.083437</ele>
        <time>2021-11-19T09:22:07.166Z</time>
      </trkpt>
      <trkpt lat="47.560262" lon="8.060729">
        <ele>318.054809</ele>
        <time>2021-11-19T09:22:08.121Z</time>
      </trkpt>
      <trkpt lat="47.560130" lon="8.060196">
        <ele>317.905880</ele>
        <time>2021-11-19T09:22:13.321Z</time>
      </trkpt>
      <trkpt lat="47.560069" lon="8.059943">
        <ele>317.835407</ele>
        <time>2021-11-19T09:22:15.733Z</time>
      </trkpt>
      <trkpt lat="47.560040" lon="8.059827">
        <ele>317.802958</ele>
        <time>2021-11-19T09:22:16.950Z</time>
      </trkpt>
      <trkpt lat="47.560019" lon="8.059741">
        <ele>317.778968</ele>
        <time>2021-11-19T09:22:17.840Z</time>
      </trkpt>
      <trkpt lat="47.559979" lon="8.059591">
        <ele>317.736660</ele>
        <time>2021-11-19T09:22:19.302Z</time>
      </trkpt>
      <trkpt lat="47.559859" lon="8.059093">
        <ele>317.597951</ele>
        <time>2021-11-19T09:22:24.324Z</time>
      </trkpt>
      <trkpt lat="47.559725" lon="8.058554">
        <ele>317.447276</ele>
        <time>2021-11-19T09:22:29.734Z</time>
      </trkpt>
      <trkpt lat="47.559654" lon="8.058257">
        <ele>317.381904</ele>
        <time>2021-11-19T09:22:32.686Z</time>
      </trkpt>
      <trkpt lat="47.559579" lon="8.057955">
        <ele>317.334662</ele>
        <time>2021-11-19T09:22:35.590Z</time>
      </trkpt>
      <trkpt lat="47.559548" lon="8.057827">
        <ele>317.314697</ele>
        <time>2021-11-19T09:22:36.885Z</time>
      </trkpt>
      <trkpt lat="47.559447" lon="8.057490">
        <ele>317.260564</ele>
        <time>2021-11-19T09:22:40.313Z</time>
      </trkpt>
      <trkpt lat="47.559294" lon="8.057130">
        <ele>317.198106</ele>
        <time>2021-11-19T09:22:44.452Z</time>
      </trkpt>
      <trkpt lat="47.559116" lon="8.056760">
        <ele>317.131398</ele>
        <time>2021-11-19T09:22:48.890Z</time>
      </trkpt>
      <trkpt lat="47.558662" lon="8.056061">
        <ele>317.016008</ele>
        <time>2021-11-19T09:22:58.227Z</time>
      </trkpt>
      <trkpt lat="47.558447" lon="8.055831">
        <ele>317.024394</ele>
        <time>2021-11-19T09:23:01.759Z</time>
      </trkpt>
      <trkpt lat="47.558239" lon="8.055639">
        <ele>317.032144</ele>
        <time>2021-11-19T09:23:05.440Z</time>
      </trkpt>
      <trkpt lat="47.558012" lon="8.055477">
        <ele>317.040112</ele>
        <time>2021-11-19T09:23:09.085Z</time>
      </trkpt>
      <trkpt lat="47.557918" lon="8.055409">
        <ele>317.043420</ele>
        <time>2021-11-19T09:23:10.883Z</time>
      </trkpt>
      <trkpt lat="47.557710" lon="8.055283">
        <ele>317.050527</ele>
        <time>2021-11-19T09:23:14.248Z</time>
      </trkpt>
      <trkpt lat="47.557500" lon="8.055133">
        <ele>317.057899</ele>
        <time>2021-11-19T09:23:18.073Z</time>
      </trkpt>
      <trkpt lat="47.557273" lon="8.054941">
        <ele>317.066165</ele>
        <time>2021-11-19T09:23:22.313Z</time>
      </trkpt>
      <trkpt lat="47.557097" lon="8.054768">
        <ele>317.062592</ele>
        <time>2021-11-19T09:23:25.277Z</time>
      </trkpt>
      <trkpt lat="47.557019" lon="8.054678">
        <ele>317.056251</ele>
        <time>2021-11-19T09:23:27.083Z</time>
      </trkpt>
      <trkpt lat="47.556494" lon="8.054073">
        <ele>317.013591</ele>
        <time>2021-11-19T09:23:35.934Z</time>
      </trkpt>
      <trkpt lat="47.556239" lon="8.053780">
        <ele>316.992893</ele>
        <time>2021-11-19T09:23:40.340Z</time>
      </trkpt>
      <trkpt lat="47.556032" lon="8.053510">
        <ele>316.975204</ele>
        <time>2021-11-19T09:23:44.564Z</time>
      </trkpt>
      <trkpt lat="47.555890" lon="8.053286">
        <ele>316.961900</ele>
        <time>2021-11-19T09:23:48.201Z</time>
      </trkpt>
      <trkpt lat="47.555773" lon="8.053070">
        <ele>317.000788</ele>
        <time>2021-11-19T09:23:51.142Z</time>
      </trkpt>
      <trkpt lat="47.555603" lon="8.052757">
        <ele>317.195208</ele>
        <time>2021-11-19T09:23:55.364Z</time>
      </trkpt>
      <trkpt lat="47.555259" lon="8.052135">
        <ele>317.584355</ele>
        <time>2021-11-19T09:24:04.061Z</time>
      </trkpt>
      <trkpt lat="47.554988" lon="8.051475">
        <ele>317.958203</ele>
        <time>2021-11-19T09:24:13.052Z</time>
      </trkpt>
      <trkpt lat="47.554715" lon="8.050527">
        <ele>318.805535</ele>
        <time>2021-11-19T09:24:27.842Z</time>
      </trkpt>
      <trkpt lat="47.554412" lon="8.049127">
        <ele>320.680190</ele>
        <time>2021-11-19T09:24:50.403Z</time>
      </trkpt>
      <trkpt lat="47.554309" lon="8.048719">
        <ele>321.235629</ele>
        <time>2021-11-19T09:24:57.420Z</time>
      </trkpt>
      <trkpt lat="47.553996" lon="8.047557">
        <ele>322.255144</ele>
        <time>2021-11-19T09:25:16.650Z</time>
      </trkpt>
      <trkpt lat="47.553619" lon="8.046372">
        <ele>323.116626</ele>
        <time>2021-11-19T09:25:33.087Z</time>
      </trkpt>
      <trkpt lat="47.552844" lon="8.044355">
        <ele>321.942869</ele>
        <time>2021-11-19T09:25:53.016Z</time>
      </trkpt>
      <trkpt lat="47.551627" lon="8.041127">
        <ele>317.126711</ele>
        <time>2021-11-19T09:26:19.769Z</time>
      </trkpt>
      <trkpt lat="47.551167" lon="8.039905">
        <ele>315.795720</ele>
        <time>2021-11-19T09:26:30.400Z</time>
      </trkpt>
      <trkpt lat="47.551001" lon="8.039426">
        <ele>315.283517</ele>
        <time>2021-11-19T09:26:34.755Z</time>
      </trkpt>
      <trkpt lat="47.550515" lon="8.038174">
        <ele>315.174397</ele>
        <time>2021-11-19T09:26:48.458Z</time>
      </trkpt>
      <trkpt lat="47.550424" lon="8.037956">
        <ele>315.260386</ele>
        <time>2021-11-19T09:26:51.429Z</time>
      </trkpt>
      <trkpt lat="47.550111" lon="8.037123">
        <ele>315.580218</ele>
        <time>2021-11-19T09:27:03.796Z</time>
      </trkpt>
      <trkpt lat="47.549832" lon="8.036349">
        <ele>315.912378</ele>
        <time>2021-11-19T09:27:15.079Z</time>
      </trkpt>
      <trkpt lat="47.549753" lon="8.036077">
        <ele>316.039334</ele>
        <time>2021-11-19T09:27:18.851Z</time>
      </trkpt>
      <trkpt lat="47.549699" lon="8.035900">
        <ele>316.122613</ele>
        <time>2021-11-19T09:27:21.184Z</time>
      </trkpt>
      <trkpt lat="47.549632" lon="8.035633">
        <ele>316.244742</ele>
        <time>2021-11-19T09:27:24.501Z</time>
      </trkpt>
      <trkpt lat="47.549554" lon="8.035288">
        <ele>316.400736</ele>
        <time>2021-11-19T09:27:28.793Z</time>
      </trkpt>
      <trkpt lat="47.549494" lon="8.034935">
        <ele>316.556807</ele>
        <time>2021-11-19T09:27:33.251Z</time>
      </trkpt>
      <trkpt lat="47.549442" lon="8.034584">
        <ele>316.710878</ele>
        <time>2021-11-19T09:27:36.655Z</time>
      </trkpt>
      <trkpt lat="47.549395" lon="8.034029">
        <ele>316.876785</ele>
        <time>2021-11-19T09:27:42.717Z</time>
      </trkpt>
      <trkpt lat="47.549394" lon="8.034003">
        <ele>316.876081</ele>
        <time>2021-11-19T09:27:44.193Z</time>
      </trkpt>
      <trkpt lat="47.549386" lon="8.033799">
        <ele>316.870556</ele>
        <time>2021-11-19T09:27:45.725Z</time>
      </trkpt>
      <trkpt lat="47.549374" lon="8.033423">
        <ele>316.860380</ele>
        <time>2021-11-19T09:27:50.240Z</time>
      </trkpt>
      <trkpt lat="47.549363" lon="8.032869">
        <ele>316.845397</ele>
        <time>2021-11-19T09:27:55.401Z</time>
      </trkpt>
      <trkpt lat="47.549368" lon="8.032544">
        <ele>316.836609</ele>
        <time>2021-11-19T09:27:57.998Z</time>
      </trkpt>
      <trkpt lat="47.549372" lon="8.031883">
        <ele>316.818738</ele>
        <time>2021-11-19T09:28:05.016Z</time>
      </trkpt>
      <trkpt lat="47.549378" lon="8.030790">
        <ele>316.979341</ele>
        <time>2021-11-19T09:28:15.677Z</time>
      </trkpt>
      <trkpt lat="47.549380" lon="8.030702">
        <ele>316.999662</ele>
        <time>2021-11-19T09:28:16.516Z</time>
      </trkpt>
      <trkpt lat="47.549418" lon="8.028906">
        <ele>317.414365</ele>
        <time>2021-11-19T09:28:37.224Z</time>
      </trkpt>
      <trkpt lat="47.549431" lon="8.028306">
        <ele>317.653760</ele>
        <time>2021-11-19T09:28:43.968Z</time>
      </trkpt>
      <trkpt lat="47.549445" lon="8.027599">
        <ele>317.944849</ele>
        <time>2021-11-19T09:28:52.146Z</time>
      </trkpt>
      <trkpt lat="47.549454" lon="8.027138">
        <ele>318.134652</ele>
        <time>2021-11-19T09:28:57.671Z</time>
      </trkpt>
      <trkpt lat="47.549436" lon="8.026046">
        <ele>318.544371</ele>
        <time>2021-11-19T09:29:10.955Z</time>
      </trkpt>
      <trkpt lat="47.549322" lon="8.024323">
        <ele>318.808890</ele>
        <time>2021-11-19T09:29:29.560Z</time>
      </trkpt>
      <trkpt lat="47.549268" lon="8.023385">
        <ele>318.861324</ele>
        <time>2021-11-19T09:29:39.007Z</time>
      </trkpt>
      <trkpt lat="47.549201" lon="8.022146">
        <ele>318.348798</ele>
        <time>2021-11-19T09:29:50.224Z</time>
      </trkpt>
      <trkpt lat="47.549191" lon="8.021436">
        <ele>318.055974</ele>
        <time>2021-11-19T09:29:56.191Z</time>
      </trkpt>
      <trkpt lat="47.549186" lon="8.021006">
        <ele>317.878641</ele>
        <time>2021-11-19T09:29:59.775Z</time>
      </trkpt>
      <trkpt lat="47.549208" lon="8.019997">
        <ele>316.955694</ele>
        <time>2021-11-19T09:30:08.009Z</time>
      </trkpt>
      <trkpt lat="47.549261" lon="8.017878">
        <ele>314.910346</ele>
        <time>2021-11-19T09:30:24.131Z</time>
      </trkpt>
      <trkpt lat="47.549256" lon="8.017769">
        <ele>314.814683</ele>
        <time>2021-11-19T09:30:24.995Z</time>
      </trkpt>
      <trkpt lat="47.549291" lon="8.017761">
        <ele>314.768740</ele>
        <time>2021-11-19T09:30:25.392Z</time>
      </trkpt>
      <trkpt lat="47.549324" lon="8.017738">
        <ele>314.721428</ele>
        <time>2021-11-19T09:30:25.781Z</time>
      </trkpt>
      <trkpt lat="47.549351" lon="8.017702">
        <ele>314.674305</ele>
        <time>2021-11-19T09:30:26.184Z</time>
      </trkpt>
      <trkpt lat="47.549370" lon="8.017656">
        <ele>314.627082</ele>
        <time>2021-11-19T09:30:26.643Z</time>
      </trkpt>
      <trkpt lat="47.549379" lon="8.017603">
        <ele>314.579228</ele>
        <time>2021-11-19T09:30:27.048Z</time>
      </trkpt>
      <trkpt lat="47.549377" lon="8.017547">
        <ele>314.530124</ele>
        <time>2021-11-19T09:30:27.606Z</time>
      </trkpt>
      <trkpt lat="47.549310" lon="8.017418">
        <ele>314.387597</ele>
        <time>2021-11-19T09:30:28.953Z</time>
      </trkpt>
      <trkpt lat="47.549274" lon="8.017401">
        <ele>314.338579</ele>
        <time>2021-11-19T09:30:29.435Z</time>
      </trkpt>
      <trkpt lat="47.549281" lon="8.017304">
        <ele>314.253159</ele>
        <time>2021-11-19T09:30:30.150Z</time>
      </trkpt>
      <trkpt lat="47.549431" lon="8.015998">
        <ele>313.093152</ele>
        <time>2021-11-19T09:30:40.895Z</time>
      </trkpt>
      <trkpt lat="47.549589" lon="8.015316">
        <ele>312.440861</ele>
        <time>2021-11-19T09:30:46.739Z</time>
      </trkpt>
      <trkpt lat="47.549795" lon="8.014667">
        <ele>311.781417</ele>
        <time>2021-11-19T09:30:52.554Z</time>
      </trkpt>
      <trkpt lat="47.549871" lon="8.014427">
        <ele>311.537658</ele>
        <time>2021-11-19T09:30:54.689Z</time>
      </trkpt>
      <trkpt lat="47.550001" lon="8.014034">
        <ele>311.135235</ele>
        <time>2021-11-19T09:30:58.077Z</time>
      </trkpt>
      <trkpt lat="47.550565" lon="8.012461">
        <ele>309.787750</ele>
        <time>2021-11-19T09:31:11.685Z</time>
      </trkpt>
      <trkpt lat="47.550764" lon="8.011985">
        <ele>309.433356</ele>
        <time>2021-11-19T09:31:16.184Z</time>
      </trkpt>
      <trkpt lat="47.551187" lon="8.011080">
        <ele>308.747388</ele>
        <time>2021-11-19T09:31:26.302Z</time>
      </trkpt>
      <trkpt lat="47.551275" lon="8.010934">
        <ele>308.860967</ele>
        <time>2021-11-19T09:31:28.112Z</time>
      </trkpt>
      <trkpt lat="47.551902" lon="8.009884">
        <ele>309.674439</ele>
        <time>2021-11-19T09:31:45.066Z</time>
      </trkpt>
      <trkpt lat="47.552604" lon="8.008677">
        <ele>310.347610</ele>
        <time>2021-11-19T09:32:07.547Z</time>
      </trkpt>
      <trkpt lat="47.552640" lon="8.008615">
        <ele>310.356643</ele>
        <time>2021-11-19T09:32:09.132Z</time>
      </trkpt>
      <trkpt lat="47.552935" lon="8.007851">
        <ele>310.453852</ele>
        <time>2021-11-19T09:32:18.731Z</time>
      </trkpt>
      <trkpt lat="47.553173" lon="8.006642">
        <ele>310.538640</ele>
        <time>2021-11-19T09:32:29.534Z</time>
      </trkpt>
      <trkpt lat="47.553211" lon="8.006270">
        <ele>310.356515</ele>
        <time>2021-11-19T09:32:32.747Z</time>
      </trkpt>
      <trkpt lat="47.553220" lon="8.006182">
        <ele>310.313430</ele>
        <time>2021-11-19T09:32:33.338Z</time>
      </trkpt>
      <trkpt lat="47.553251" lon="8.005657">
        <ele>310.058322</ele>
        <time>2021-11-19T09:32:37.586Z</time>
      </trkpt>
      <trkpt lat="47.553256" lon="8.004837">
        <ele>309.661368</ele>
        <time>2021-11-19T09:32:44.511Z</time>
      </trkpt>
      <trkpt lat="47.553266" lon="8.003502">
        <ele>309.548172</ele>
        <time>2021-11-19T09:32:57.098Z</time>
      </trkpt>
      <trkpt lat="47.553270" lon="8.002465">
        <ele>310.009834</ele>
        <time>2021-11-19T09:33:09.769Z</time>
      </trkpt>
      <trkpt lat="47.553271" lon="8.002109">
        <ele>310.168321</ele>
        <time>2021-11-19T09:33:14.748Z</time>
      </trkpt>
      <trkpt lat="47.553273" lon="8.001687">
        <ele>310.356193</ele>
        <time>2021-11-19T09:33:20.428Z</time>
      </trkpt>
      <trkpt lat="47.553275" lon="7.999860">
        <ele>310.742140</ele>
        <time>2021-11-19T09:33:42.614Z</time>
      </trkpt>
      <trkpt lat="47.553278" lon="7.999508">
        <ele>310.801829</ele>
        <time>2021-11-19T09:33:46.161Z</time>
      </trkpt>
      <trkpt lat="47.553287" lon="7.998380">
        <ele>310.525271</ele>
        <time>2021-11-19T09:33:55.928Z</time>
      </trkpt>
      <trkpt lat="47.553287" lon="7.997190">
        <ele>309.204849</ele>
        <time>2021-11-19T09:34:05.227Z</time>
      </trkpt>
      <trkpt lat="47.553279" lon="7.996528">
        <ele>308.470177</ele>
        <time>2021-11-19T09:34:10.243Z</time>
      </trkpt>
      <trkpt lat="47.553268" lon="7.996252">
        <ele>308.163395</ele>
        <time>2021-11-19T09:34:12.315Z</time>
      </trkpt>
      <trkpt lat="47.553246" lon="7.995617">
        <ele>307.436911</ele>
        <time>2021-11-19T09:34:16.497Z</time>
      </trkpt>
      <trkpt lat="47.553164" lon="7.993925">
        <ele>305.478188</ele>
        <time>2021-11-19T09:34:30.016Z</time>
      </trkpt>
      <trkpt lat="47.553156" lon="7.993696">
        <ele>305.213415</ele>
        <time>2021-11-19T09:34:31.417Z</time>
      </trkpt>
      <trkpt lat="47.553137" lon="7.993190">
        <ele>304.851165</ele>
        <time>2021-11-19T09:34:36.030Z</time>
      </trkpt>
      <trkpt lat="47.553130" lon="7.993014">
        <ele>304.816599</ele>
        <time>2021-11-19T09:34:40.215Z</time>
      </trkpt>
      <trkpt lat="47.553107" lon="7.992226">
        <ele>304.661964</ele>
        <time>2021-11-19T09:34:46.930Z</time>
      </trkpt>
      <trkpt lat="47.553091" lon="7.991915">
        <ele>304.600815</ele>
        <time>2021-11-19T09:34:51.161Z</time>
      </trkpt>
      <trkpt lat="47.553050" lon="7.990744">
        <ele>304.341519</ele>
        <time>2021-11-19T09:35:03.984Z</time>
      </trkpt>
      <trkpt lat="47.553126" lon="7.990240">
        <ele>303.348592</ele>
        <time>2021-11-19T09:35:07.896Z</time>
      </trkpt>
      <trkpt lat="47.553146" lon="7.990113">
        <ele>303.097852</ele>
        <time>2021-11-19T09:35:08.825Z</time>
      </trkpt>
      <trkpt lat="47.553163" lon="7.990004">
        <ele>302.882756</ele>
        <time>2021-11-19T09:35:09.610Z</time>
      </trkpt>
      <trkpt lat="47.553214" lon="7.989758">
        <ele>302.387964</ele>
        <time>2021-11-19T09:35:11.389Z</time>
      </trkpt>
      <trkpt lat="47.553253" lon="7.989578">
        <ele>302.024484</ele>
        <time>2021-11-19T09:35:12.678Z</time>
      </trkpt>
      <trkpt lat="47.553352" lon="7.989142">
        <ele>301.140024</ele>
        <time>2021-11-19T09:35:15.774Z</time>
      </trkpt>
      <trkpt lat="47.553424" lon="7.988762">
        <ele>300.381161</ele>
        <time>2021-11-19T09:35:18.421Z</time>
      </trkpt>
      <trkpt lat="47.553410" lon="7.988607">
        <ele>300.080489</ele>
        <time>2021-11-19T09:35:19.452Z</time>
      </trkpt>
      <trkpt lat="47.553343" lon="7.988401">
        <ele>299.640825</ele>
        <time>2021-11-19T09:35:20.974Z</time>
      </trkpt>
      <trkpt lat="47.553232" lon="7.988247">
        <ele>299.201632</ele>
        <time>2021-11-19T09:35:22.445Z</time>
      </trkpt>
      <trkpt lat="47.552867" lon="7.987810">
        <ele>297.676961</ele>
        <time>2021-11-19T09:35:27.014Z</time>
      </trkpt>
      <trkpt lat="47.552713" lon="7.987638">
        <ele>297.050378</ele>
        <time>2021-11-19T09:35:28.851Z</time>
      </trkpt>
      <trkpt lat="47.552504" lon="7.987369">
        <ele>296.150902</ele>
        <time>2021-11-19T09:35:31.562Z</time>
      </trkpt>
      <trkpt lat="47.552436" lon="7.987273">
        <ele>295.845734</ele>
        <time>2021-11-19T09:35:32.506Z</time>
      </trkpt>
      <trkpt lat="47.552224" lon="7.986975">
        <ele>294.896282</ele>
        <time>2021-11-19T09:35:35.490Z</time>
      </trkpt>
      <trkpt lat="47.552152" lon="7.986883">
        <ele>294.587374</ele>
        <time>2021-11-19T09:35:36.471Z</time>
      </trkpt>
      <trkpt lat="47.551971" lon="7.986555">
        <ele>293.658310</ele>
        <time>2021-11-19T09:35:39.469Z</time>
      </trkpt>
      <trkpt lat="47.551917" lon="7.986288">
        <ele>293.500313</ele>
        <time>2021-11-19T09:35:41.549Z</time>
      </trkpt>
      <trkpt lat="47.551915" lon="7.986209">
        <ele>293.545637</ele>
        <time>2021-11-19T09:35:42.110Z</time>
      </trkpt>
      <trkpt lat="47.551898" lon="7.985654">
        <ele>293.864159</ele>
        <time>2021-11-19T09:35:47.617Z</time>
      </trkpt>
      <trkpt lat="47.551939" lon="7.985151">
        <ele>294.154635</ele>
        <time>2021-11-19T09:35:53.773Z</time>
      </trkpt>
      <trkpt lat="47.551934" lon="7.984260">
        <ele>294.665483</ele>
        <time>2021-11-19T09:36:07.355Z</time>
      </trkpt>
      <trkpt lat="47.551993" lon="7.984014">
        <ele>294.815160</ele>
        <time>2021-11-19T09:36:10.960Z</time>
      </trkpt>
      <trkpt lat="47.552007" lon="7.983931">
        <ele>294.864210</ele>
        <time>2021-11-19T09:36:12.534Z</time>
      </trkpt>
      <trkpt lat="47.552005" lon="7.983849">
        <ele>294.911253</ele>
        <time>2021-11-19T09:36:14.616Z</time>
      </trkpt>
      <trkpt lat="47.551911" lon="7.983632">
        <ele>295.336480</ele>
        <time>2021-11-19T09:36:18.809Z</time>
      </trkpt>
      <trkpt lat="47.551892" lon="7.983447">
        <ele>295.682190</ele>
        <time>2021-11-19T09:36:22.153Z</time>
      </trkpt>
      <trkpt lat="47.551861" lon="7.981113">
        <ele>299.876003</ele>
        <time>2021-11-19T09:37:05.443Z</time>
      </trkpt>
      <trkpt lat="47.551865" lon="7.980584">
        <ele>300.006814</ele>
        <time>2021-11-19T09:37:12.083Z</time>
      </trkpt>
      <trkpt lat="47.551873" lon="7.980135">
        <ele>300.117873</ele>
        <time>2021-11-19T09:37:16.839Z</time>
      </trkpt>
      <trkpt lat="47.551933" lon="7.979363">
        <ele>300.310022</ele>
        <time>2021-11-19T09:37:25.198Z</time>
      </trkpt>
      <trkpt lat="47.551923" lon="7.979308">
        <ele>300.324106</ele>
        <time>2021-11-19T09:37:25.566Z</time>
      </trkpt>
      <trkpt lat="47.551901" lon="7.979190">
        <ele>300.354376</ele>
        <time>2021-11-19T09:37:26.537Z</time>
      </trkpt>
      <trkpt lat="47.551829" lon="7.976305">
        <ele>299.871106</ele>
        <time>2021-11-19T09:37:51.586Z</time>
      </trkpt>
      <trkpt lat="47.551793" lon="7.974325">
        <ele>299.920621</ele>
        <time>2021-11-19T09:38:13.698Z</time>
      </trkpt>
      <trkpt lat="47.551755" lon="7.972603">
        <ele>299.843493</ele>
        <time>2021-11-19T09:38:30.997Z</time>
      </trkpt>
      <trkpt lat="47.551725" lon="7.970823">
        <ele>299.243774</ele>
        <time>2021-11-19T09:38:46.226Z</time>
      </trkpt>
      <trkpt lat="47.551734" lon="7.970034">
        <ele>299.084172</ele>
        <time>2021-11-19T09:38:53.186Z</time>
      </trkpt>
      <trkpt lat="47.551750" lon="7.968659">
        <ele>298.907614</ele>
        <time>2021-11-19T09:39:06.375Z</time>
      </trkpt>
      <trkpt lat="47.551825" lon="7.968445">
        <ele>298.876656</ele>
        <time>2021-11-19T09:39:08.628Z</time>
      </trkpt>
      <trkpt lat="47.551847" lon="7.968315">
        <ele>298.859449</ele>
        <time>2021-11-19T09:39:10.098Z</time>
      </trkpt>
      <trkpt lat="47.551839" lon="7.968208">
        <ele>298.845628</ele>
        <time>2021-11-19T09:39:11.300Z</time>
      </trkpt>
      <trkpt lat="47.551767" lon="7.967910">
        <ele>298.812240</ele>
        <time>2021-11-19T09:39:14.533Z</time>
      </trkpt>
      <trkpt lat="47.551902" lon="7.964650">
        <ele>299.472652</ele>
        <time>2021-11-19T09:39:50.934Z</time>
      </trkpt>
      <trkpt lat="47.551918" lon="7.963725">
        <ele>299.460223</ele>
        <time>2021-11-19T09:40:00.332Z</time>
      </trkpt>
      <trkpt lat="47.551906" lon="7.962453">
        <ele>299.394457</ele>
        <time>2021-11-19T09:40:12.262Z</time>
      </trkpt>
      <trkpt lat="47.551859" lon="7.961133">
        <ele>298.955184</ele>
        <time>2021-11-19T09:40:23.846Z</time>
      </trkpt>
      <trkpt lat="47.551894" lon="7.960729">
        <ele>298.819825</ele>
        <time>2021-11-19T09:40:27.597Z</time>
      </trkpt>
      <trkpt lat="47.551882" lon="7.960631">
        <ele>298.786726</ele>
        <time>2021-11-19T09:40:28.367Z</time>
      </trkpt>
      <trkpt lat="47.551865" lon="7.960528">
        <ele>298.751488</ele>
        <time>2021-11-19T09:40:29.313Z</time>
      </trkpt>
      <trkpt lat="47.551677" lon="7.960100">
        <ele>298.581785</ele>
        <time>2021-11-19T09:40:33.837Z</time>
      </trkpt>
      <trkpt lat="47.551300" lon="7.958844">
        <ele>298.433393</ele>
        <time>2021-11-19T09:40:46.748Z</time>
      </trkpt>
      <trkpt lat="47.550869" lon="7.957700">
        <ele>298.306986</ele>
        <time>2021-11-19T09:41:00.112Z</time>
      </trkpt>
      <trkpt lat="47.550745" lon="7.957569">
        <ele>298.317700</ele>
        <time>2021-11-19T09:41:02.351Z</time>
      </trkpt>
      <trkpt lat="47.550735" lon="7.957541">
        <ele>298.320405</ele>
        <time>2021-11-19T09:41:02.793Z</time>
      </trkpt>
      <trkpt lat="47.550613" lon="7.957254">
        <ele>298.349367</ele>
        <time>2021-11-19T09:41:06.131Z</time>
      </trkpt>
      <trkpt lat="47.550549" lon="7.957126">
        <ele>298.362969</ele>
        <time>2021-11-19T09:41:07.679Z</time>
      </trkpt>
      <trkpt lat="47.550445" lon="7.956918">
        <ele>298.385072</ele>
        <time>2021-11-19T09:41:10.352Z</time>
      </trkpt>
      <trkpt lat="47.550380" lon="7.956806">
        <ele>298.397685</ele>
        <time>2021-11-19T09:41:11.836Z</time>
      </trkpt>
      <trkpt lat="47.550205" lon="7.956552">
        <ele>298.428677</ele>
        <time>2021-11-19T09:41:15.546Z</time>
      </trkpt>
      <trkpt lat="47.549444" lon="7.955496">
        <ele>298.565680</ele>
        <time>2021-11-19T09:41:31.912Z</time>
      </trkpt>
      <trkpt lat="47.549157" lon="7.955099">
        <ele>298.623629</ele>
        <time>2021-11-19T09:41:37.713Z</time>
      </trkpt>
      <trkpt lat="47.549042" lon="7.954942">
        <ele>298.646708</ele>
        <time>2021-11-19T09:41:40.065Z</time>
      </trkpt>
      <trkpt lat="47.548833" lon="7.954652">
        <ele>298.688969</ele>
        <time>2021-11-19T09:41:44.421Z</time>
      </trkpt>
      <trkpt lat="47.548542" lon="7.954269">
        <ele>298.746415</ele>
        <time>2021-11-19T09:41:50.439Z</time>
      </trkpt>
      <trkpt lat="47.548342" lon="7.954009">
        <ele>298.785684</ele>
        <time>2021-11-19T09:41:54.621Z</time>
      </trkpt>
      <trkpt lat="47.548251" lon="7.953895">
        <ele>298.815793</ele>
        <time>2021-11-19T09:41:56.549Z</time>
      </trkpt>
      <trkpt lat="47.548115" lon="7.953729">
        <ele>298.883430</ele>
        <time>2021-11-19T09:41:59.418Z</time>
      </trkpt>
      <trkpt lat="47.547994" lon="7.953584">
        <ele>298.943166</ele>
        <time>2021-11-19T09:42:01.980Z</time>
      </trkpt>
      <trkpt lat="47.547871" lon="7.953437">
        <ele>299.003826</ele>
        <time>2021-11-19T09:42:04.571Z</time>
      </trkpt>
      <trkpt lat="47.547797" lon="7.953355">
        <ele>299.039296</ele>
        <time>2021-11-19T09:42:06.075Z</time>
      </trkpt>
      <trkpt lat="47.547624" lon="7.953160">
        <ele>299.122735</ele>
        <time>2021-11-19T09:42:09.568Z</time>
      </trkpt>
      <trkpt lat="47.547550" lon="7.953078">
        <ele>299.158206</ele>
        <time>2021-11-19T09:42:11.092Z</time>
      </trkpt>
      <trkpt lat="47.547458" lon="7.952975">
        <ele>299.202469</ele>
        <time>2021-11-19T09:42:13.105Z</time>
      </trkpt>
      <trkpt lat="47.547400" lon="7.952910">
        <ele>299.230384</ele>
        <time>2021-11-19T09:42:14.387Z</time>
      </trkpt>
      <trkpt lat="47.547090" lon="7.952543">
        <ele>299.382700</ele>
        <time>2021-11-19T09:42:20.835Z</time>
      </trkpt>
      <trkpt lat="47.546935" lon="7.952372">
        <ele>299.456880</ele>
        <time>2021-11-19T09:42:23.727Z</time>
      </trkpt>
      <trkpt lat="47.546776" lon="7.952185">
        <ele>299.503778</ele>
        <time>2021-11-19T09:42:27.051Z</time>
      </trkpt>
      <trkpt lat="47.546695" lon="7.952091">
        <ele>299.518242</ele>
        <time>2021-11-19T09:42:28.859Z</time>
      </trkpt>
      <trkpt lat="47.546634" lon="7.952024">
        <ele>299.528916</ele>
        <time>2021-11-19T09:42:30.302Z</time>
      </trkpt>
      <trkpt lat="47.546421" lon="7.951793">
        <ele>299.566024</ele>
        <time>2021-11-19T09:42:34.713Z</time>
      </trkpt>
      <trkpt lat="47.546231" lon="7.951558">
        <ele>299.600817</ele>
        <time>2021-11-19T09:42:39.266Z</time>
      </trkpt>
      <trkpt lat="47.546212" lon="7.951535">
        <ele>299.604266</ele>
        <time>2021-11-19T09:42:39.512Z</time>
      </trkpt>
      <trkpt lat="47.546135" lon="7.951406">
        <ele>299.620606</ele>
        <time>2021-11-19T09:42:41.321Z</time>
      </trkpt>
      <trkpt lat="47.545886" lon="7.951110">
        <ele>299.665484</ele>
        <time>2021-11-19T09:42:46.141Z</time>
      </trkpt>
      <trkpt lat="47.545824" lon="7.951061">
        <ele>299.675362</ele>
        <time>2021-11-19T09:42:47.282Z</time>
      </trkpt>
      <trkpt lat="47.545759" lon="7.950982">
        <ele>299.687181</ele>
        <time>2021-11-19T09:42:48.688Z</time>
      </trkpt>
      <trkpt lat="47.545727" lon="7.950947">
        <ele>299.692772</ele>
        <time>2021-11-19T09:42:49.489Z</time>
      </trkpt>
      <trkpt lat="47.545625" lon="7.950829">
        <ele>299.710965</ele>
        <time>2021-11-19T09:42:51.044Z</time>
      </trkpt>
      <trkpt lat="47.545567" lon="7.950765">
        <ele>299.721131</ele>
        <time>2021-11-19T09:42:52.078Z</time>
      </trkpt>
      <trkpt lat="47.545494" lon="7.950684">
        <ele>299.733952</ele>
        <time>2021-11-19T09:42:53.446Z</time>
      </trkpt>
      <trkpt lat="47.545434" lon="7.950668">
        <ele>299.725989</ele>
        <time>2021-11-19T09:42:54.531Z</time>
      </trkpt>
      <trkpt lat="47.545166" lon="7.950366">
        <ele>299.569041</ele>
        <time>2021-11-19T09:42:58.872Z</time>
      </trkpt>
      <trkpt lat="47.544901" lon="7.950044">
        <ele>299.409288</ele>
        <time>2021-11-19T09:43:03.005Z</time>
      </trkpt>
      <trkpt lat="47.544521" lon="7.949558">
        <ele>299.175293</ele>
        <time>2021-11-19T09:43:09.194Z</time>
      </trkpt>
      <trkpt lat="47.544239" lon="7.949202">
        <ele>299.002598</ele>
        <time>2021-11-19T09:43:14.102Z</time>
      </trkpt>
      <trkpt lat="47.543864" lon="7.948694">
        <ele>299.349959</ele>
        <time>2021-11-19T09:43:22.065Z</time>
      </trkpt>
      <trkpt lat="47.543760" lon="7.948548">
        <ele>299.573085</ele>
        <time>2021-11-19T09:43:24.308Z</time>
      </trkpt>
      <trkpt lat="47.543579" lon="7.948287">
        <ele>299.966439</ele>
        <time>2021-11-19T09:43:30.025Z</time>
      </trkpt>
      <trkpt lat="47.543532" lon="7.948214">
        <ele>300.072486</ele>
        <time>2021-11-19T09:43:31.151Z</time>
      </trkpt>
      <trkpt lat="47.543435" lon="7.948000">
        <ele>300.343456</ele>
        <time>2021-11-19T09:43:34.213Z</time>
      </trkpt>
      <trkpt lat="47.543407" lon="7.947938">
        <ele>300.421873</ele>
        <time>2021-11-19T09:43:36.071Z</time>
      </trkpt>
      <trkpt lat="47.543280" lon="7.947656">
        <ele>300.778235</ele>
        <time>2021-11-19T09:43:40.557Z</time>
      </trkpt>
      <trkpt lat="47.543142" lon="7.947250">
        <ele>301.256083</ele>
        <time>2021-11-19T09:43:48.021Z</time>
      </trkpt>
      <trkpt lat="47.543086" lon="7.947052">
        <ele>301.481756</ele>
        <time>2021-11-19T09:43:51.451Z</time>
      </trkpt>
      <trkpt lat="47.543056" lon="7.946935">
        <ele>301.613324</ele>
        <time>2021-11-19T09:43:54.292Z</time>
      </trkpt>
      <trkpt lat="47.543045" lon="7.946881">
        <ele>301.672618</ele>
        <time>2021-11-19T09:43:55.449Z</time>
      </trkpt>
      <trkpt lat="47.542982" lon="7.946547">
        <ele>302.240773</ele>
        <time>2021-11-19T09:44:00.848Z</time>
      </trkpt>
      <trkpt lat="47.542974" lon="7.946495">
        <ele>302.330826</ele>
        <time>2021-11-19T09:44:02.489Z</time>
      </trkpt>
      <trkpt lat="47.542960" lon="7.946400">
        <ele>302.495011</ele>
        <time>2021-11-19T09:44:04.555Z</time>
      </trkpt>
      <trkpt lat="47.542916" lon="7.945730">
        <ele>303.631644</ele>
        <time>2021-11-19T09:44:17.220Z</time>
      </trkpt>
      <trkpt lat="47.542913" lon="7.945267">
        <ele>304.413453</ele>
        <time>2021-11-19T09:44:25.715Z</time>
      </trkpt>
      <trkpt lat="47.543007" lon="7.943867">
        <ele>306.261432</ele>
        <time>2021-11-19T09:44:46.882Z</time>
      </trkpt>
      <trkpt lat="47.543161" lon="7.942213">
        <ele>306.554023</ele>
        <time>2021-11-19T09:45:05.289Z</time>
      </trkpt>
      <trkpt lat="47.543435" lon="7.940670">
        <ele>305.721813</ele>
        <time>2021-11-19T09:45:18.237Z</time>
      </trkpt>
      <trkpt lat="47.543826" lon="7.939433">
        <ele>304.361423</ele>
        <time>2021-11-19T09:45:28.638Z</time>
      </trkpt>
      <trkpt lat="47.544472" lon="7.937932">
        <ele>302.275511</ele>
        <time>2021-11-19T09:45:41.962Z</time>
      </trkpt>
      <trkpt lat="47.544705" lon="7.937395">
        <ele>301.500085</ele>
        <time>2021-11-19T09:45:46.801Z</time>
      </trkpt>
      <trkpt lat="47.544903" lon="7.936917">
        <ele>300.818856</ele>
        <time>2021-11-19T09:45:51.062Z</time>
      </trkpt>
      <trkpt lat="47.545074" lon="7.936484">
        <ele>300.344143</ele>
        <time>2021-11-19T09:45:54.893Z</time>
      </trkpt>
      <trkpt lat="47.545457" lon="7.935110">
        <ele>298.967042</ele>
        <time>2021-11-19T09:46:06.261Z</time>
      </trkpt>
      <trkpt lat="47.545674" lon="7.933625">
        <ele>298.561060</ele>
        <time>2021-11-19T09:46:19.341Z</time>
      </trkpt>
      <trkpt lat="47.545702" lon="7.933290">
        <ele>298.666588</ele>
        <time>2021-11-19T09:46:22.921Z</time>
      </trkpt>
      <trkpt lat="47.545724" lon="7.932758">
        <ele>298.833214</ele>
        <time>2021-11-19T09:46:29.188Z</time>
      </trkpt>
      <trkpt lat="47.545721" lon="7.931992">
        <ele>299.072685</ele>
        <time>2021-11-19T09:46:39.228Z</time>
      </trkpt>
      <trkpt lat="47.545696" lon="7.931497">
        <ele>299.500556</ele>
        <time>2021-11-19T09:46:46.433Z</time>
      </trkpt>
      <trkpt lat="47.545661" lon="7.930955">
        <ele>300.207435</ele>
        <time>2021-11-19T09:46:55.128Z</time>
      </trkpt>
      <trkpt lat="47.545563" lon="7.929641">
        <ele>301.923753</ele>
        <time>2021-11-19T09:47:17.468Z</time>
      </trkpt>
      <trkpt lat="47.545475" lon="7.928419">
        <ele>302.127092</ele>
        <time>2021-11-19T09:47:33.771Z</time>
      </trkpt>
      <trkpt lat="47.545421" lon="7.927686">
        <ele>301.633315</ele>
        <time>2021-11-19T09:47:39.874Z</time>
      </trkpt>
      <trkpt lat="47.545406" lon="7.927306">
        <ele>301.378409</ele>
        <time>2021-11-19T09:47:42.778Z</time>
      </trkpt>
      <trkpt lat="47.545407" lon="7.927001">
        <ele>301.174160</ele>
        <time>2021-11-19T09:47:45.065Z</time>
      </trkpt>
      <trkpt lat="47.545409" lon="7.926773">
        <ele>301.021464</ele>
        <time>2021-11-19T09:47:46.694Z</time>
      </trkpt>
      <trkpt lat="47.545417" lon="7.925848">
        <ele>299.250037</ele>
        <time>2021-11-19T09:47:53.029Z</time>
      </trkpt>
      <trkpt lat="47.545446" lon="7.925350">
        <ele>297.984931</ele>
        <time>2021-11-19T09:47:56.321Z</time>
      </trkpt>
      <trkpt lat="47.545466" lon="7.924880">
        <ele>296.793013</ele>
        <time>2021-11-19T09:47:59.374Z</time>
      </trkpt>
      <trkpt lat="47.545481" lon="7.924396">
        <ele>295.566732</ele>
        <time>2021-11-19T09:48:02.457Z</time>
      </trkpt>
      <trkpt lat="47.545521" lon="7.923709">
        <ele>293.937149</ele>
        <time>2021-11-19T09:48:06.983Z</time>
      </trkpt>
      <trkpt lat="47.545536" lon="7.923407">
        <ele>293.524142</ele>
        <time>2021-11-19T09:48:09.372Z</time>
      </trkpt>
      <trkpt lat="47.545553" lon="7.923142">
        <ele>293.161083</ele>
        <time>2021-11-19T09:48:11.093Z</time>
      </trkpt>
      <trkpt lat="47.545587" lon="7.922895">
        <ele>292.817270</ele>
        <time>2021-11-19T09:48:13.494Z</time>
      </trkpt>
      <trkpt lat="47.545641" lon="7.922610">
        <ele>292.413540</ele>
        <time>2021-11-19T09:48:15.493Z</time>
      </trkpt>
      <trkpt lat="47.545690" lon="7.922369">
        <ele>292.070257</ele>
        <time>2021-11-19T09:48:18.184Z</time>
      </trkpt>
      <trkpt lat="47.545699" lon="7.922325">
        <ele>292.007551</ele>
        <time>2021-11-19T09:48:18.445Z</time>
      </trkpt>
      <trkpt lat="47.545714" lon="7.922249">
        <ele>291.899556</ele>
        <time>2021-11-19T09:48:19.035Z</time>
      </trkpt>
      <trkpt lat="47.545778" lon="7.921947">
        <ele>291.467841</ele>
        <time>2021-11-19T09:48:22.191Z</time>
      </trkpt>
      <trkpt lat="47.545810" lon="7.921755">
        <ele>291.198112</ele>
        <time>2021-11-19T09:48:23.549Z</time>
      </trkpt>
      <trkpt lat="47.545881" lon="7.921096">
        <ele>290.404719</ele>
        <time>2021-11-19T09:48:28.897Z</time>
      </trkpt>
      <trkpt lat="47.545913" lon="7.920765">
        <ele>290.303495</ele>
        <time>2021-11-19T09:48:31.764Z</time>
      </trkpt>
      <trkpt lat="47.545973" lon="7.920313">
        <ele>290.164043</ele>
        <time>2021-11-19T09:48:36.912Z</time>
      </trkpt>
      <trkpt lat="47.546128" lon="7.919617">
        <ele>289.942176</ele>
        <time>2021-11-19T09:48:43.374Z</time>
      </trkpt>
      <trkpt lat="47.546262" lon="7.919081">
        <ele>289.769145</ele>
        <time>2021-11-19T09:48:49.373Z</time>
      </trkpt>
      <trkpt lat="47.546821" lon="7.916867">
        <ele>288.967730</ele>
        <time>2021-11-19T09:49:10.126Z</time>
      </trkpt>
      <trkpt lat="47.547032" lon="7.916218">
        <ele>288.717268</ele>
        <time>2021-11-19T09:49:16.617Z</time>
      </trkpt>
      <trkpt lat="47.547091" lon="7.916039">
        <ele>288.705787</ele>
        <time>2021-11-19T09:49:18.434Z</time>
      </trkpt>
      <trkpt lat="47.547113" lon="7.915971">
        <ele>288.706204</ele>
        <time>2021-11-19T09:49:19.033Z</time>
      </trkpt>
      <trkpt lat="47.547423" lon="7.915080">
        <ele>288.711741</ele>
        <time>2021-11-19T09:49:28.677Z</time>
      </trkpt>
      <trkpt lat="47.547994" lon="7.913433">
        <ele>288.982701</ele>
        <time>2021-11-19T09:49:48.397Z</time>
      </trkpt>
      <trkpt lat="47.548027" lon="7.913334">
        <ele>289.050541</ele>
        <time>2021-11-19T09:49:49.756Z</time>
      </trkpt>
      <trkpt lat="47.548412" lon="7.912168">
        <ele>289.848068</ele>
        <time>2021-11-19T09:50:06.159Z</time>
      </trkpt>
      <trkpt lat="47.549012" lon="7.910340">
        <ele>291.340559</ele>
        <time>2021-11-19T09:50:33.112Z</time>
      </trkpt>
      <trkpt lat="47.549102" lon="7.910058">
        <ele>291.595296</ele>
        <time>2021-11-19T09:50:37.259Z</time>
      </trkpt>
      <trkpt lat="47.549195" lon="7.909756">
        <ele>291.866375</ele>
        <time>2021-11-19T09:50:41.526Z</time>
      </trkpt>
      <trkpt lat="47.549261" lon="7.909535">
        <ele>292.063727</ele>
        <time>2021-11-19T09:50:44.709Z</time>
      </trkpt>
      <trkpt lat="47.549350" lon="7.909241">
        <ele>292.326858</ele>
        <time>2021-11-19T09:50:48.841Z</time>
      </trkpt>
      <trkpt lat="47.549520" lon="7.908678">
        <ele>293.036909</ele>
        <time>2021-11-19T09:50:56.835Z</time>
      </trkpt>
      <trkpt lat="47.549539" lon="7.908625">
        <ele>293.119914</ele>
        <time>2021-11-19T09:50:57.587Z</time>
      </trkpt>
      <trkpt lat="47.550497" lon="7.905558">
        <ele>298.693307</ele>
        <time>2021-11-19T09:51:52.456Z</time>
      </trkpt>
      <trkpt lat="47.550283" lon="7.905413">
        <ele>299.450741</ele>
        <time>2021-11-19T09:52:00.622Z</time>
      </trkpt>
      <trkpt lat="47.550067" lon="7.905245">
        <ele>300.235977</ele>
        <time>2021-11-19T09:52:09.308Z</time>
      </trkpt>
      <trkpt lat="47.549867" lon="7.905155">
        <ele>300.908773</ele>
        <time>2021-11-19T09:52:16.937Z</time>
      </trkpt>
      <trkpt lat="47.549868" lon="7.905010">
        <ele>301.223804</ele>
        <time>2021-11-19T09:52:20.342Z</time>
      </trkpt>
      <trkpt lat="47.550025" lon="7.904774">
        <ele>301.943702</ele>
        <time>2021-11-19T09:52:28.493Z</time>
      </trkpt>
      <trkpt lat="47.550302" lon="7.904164">
        <ele>303.797540</ele>
        <time>2021-11-19T09:52:46.792Z</time>
      </trkpt>
      <trkpt lat="47.550498" lon="7.903445">
        <ele>305.764209</ele>
        <time>2021-11-19T09:53:06.364Z</time>
      </trkpt>
      <trkpt lat="47.550688" lon="7.902451">
        <ele>308.384365</ele>
        <time>2021-11-19T09:53:28.912Z</time>
      </trkpt>
      <trkpt lat="47.550757" lon="7.901591">
        <ele>310.736685</ele>
        <time>2021-11-19T09:53:48.709Z</time>
      </trkpt>
      <trkpt lat="47.550769" lon="7.901362">
        <ele>311.369273</ele>
        <time>2021-11-19T09:53:54.617Z</time>
      </trkpt>
      <trkpt lat="47.550801" lon="7.900244">
        <ele>314.451127</ele>
        <time>2021-11-19T09:54:19.014Z</time>
      </trkpt>
      <trkpt lat="47.550819" lon="7.898109">
        <ele>319.784847</ele>
        <time>2021-11-19T09:55:06.054Z</time>
      </trkpt>
      <trkpt lat="47.550648" lon="7.896481">
        <ele>322.960953</ele>
        <time>2021-11-19T09:55:33.709Z</time>
      </trkpt>
      <trkpt lat="47.550639" lon="7.896345">
        <ele>323.083838</ele>
        <time>2021-11-19T09:55:36.085Z</time>
      </trkpt>
      <trkpt lat="47.550660" lon="7.896255">
        <ele>323.169472</ele>
        <time>2021-11-19T09:55:36.885Z</time>
      </trkpt>
      <trkpt lat="47.550838" lon="7.895509">
        <ele>323.881004</ele>
        <time>2021-11-19T09:55:47.053Z</time>
      </trkpt>
      <trkpt lat="47.550878" lon="7.895158">
        <ele>324.201110</ele>
        <time>2021-11-19T09:55:51.115Z</time>
      </trkpt>
      <trkpt lat="47.550908" lon="7.894308">
        <ele>325.047973</ele>
        <time>2021-11-19T09:56:01.588Z</time>
      </trkpt>
      <trkpt lat="47.550892" lon="7.893176">
        <ele>327.189356</ele>
        <time>2021-11-19T09:56:16.305Z</time>
      </trkpt>
      <trkpt lat="47.550904" lon="7.891725">
        <ele>329.934965</ele>
        <time>2021-11-19T09:56:46.067Z</time>
      </trkpt>
      <trkpt lat="47.550915" lon="7.890600">
        <ele>334.457071</ele>
        <time>2021-11-19T09:57:14.907Z</time>
      </trkpt>
      <trkpt lat="47.550833" lon="7.889069">
        <ele>340.629859</ele>
        <time>2021-11-19T09:57:57.541Z</time>
      </trkpt>
      <trkpt lat="47.550831" lon="7.888611">
        <ele>342.481366</ele>
        <time>2021-11-19T09:58:10.111Z</time>
      </trkpt>
      <trkpt lat="47.550789" lon="7.887816">
        <ele>345.705131</ele>
        <time>2021-11-19T09:58:30.723Z</time>
      </trkpt>
      <trkpt lat="47.550758" lon="7.887295">
        <ele>347.819540</ele>
        <time>2021-11-19T09:58:44.544Z</time>
      </trkpt>
      <trkpt lat="47.550677" lon="7.886476">
        <ele>351.165863</ele>
        <time>2021-11-19T09:59:06.033Z</time>
      </trkpt>
      <trkpt lat="47.550548" lon="7.885799">
        <ele>353.526956</ele>
        <time>2021-11-19T09:59:23.236Z</time>
      </trkpt>
      <trkpt lat="47.550391" lon="7.885109">
        <ele>355.922522</ele>
        <time>2021-11-19T09:59:40.874Z</time>
      </trkpt>
      <trkpt lat="47.550332" lon="7.884727">
        <ele>357.211758</ele>
        <time>2021-11-19T09:59:49.564Z</time>
      </trkpt>
      <trkpt lat="47.550234" lon="7.883221">
        <ele>361.633399</ele>
        <time>2021-11-19T10:00:22.396Z</time>
      </trkpt>
      <trkpt lat="47.549927" lon="7.881490">
        <ele>365.888935</ele>
        <time>2021-11-19T10:00:54.659Z</time>
      </trkpt>
      <trkpt lat="47.549726" lon="7.880786">
        <ele>367.939830</ele>
        <time>2021-11-19T10:01:10.636Z</time>
      </trkpt>
      <trkpt lat="47.549327" lon="7.879547">
        <ele>371.846359</ele>
        <time>2021-11-19T10:01:40.420Z</time>
      </trkpt>
      <trkpt lat="47.549318" lon="7.879398">
        <ele>372.272059</ele>
        <time>2021-11-19T10:01:43.608Z</time>
      </trkpt>
      <trkpt lat="47.549140" lon="7.879391">
        <ele>373.022787</ele>
        <time>2021-11-19T10:01:50.479Z</time>
      </trkpt>
      <trkpt lat="47.548718" lon="7.879258">
        <ele>374.539350</ele>
        <time>2021-11-19T10:02:04.149Z</time>
      </trkpt>
      <trkpt lat="47.548422" lon="7.878959">
        <ele>375.430755</ele>
        <time>2021-11-19T10:02:14.796Z</time>
      </trkpt>
      <trkpt lat="47.548234" lon="7.878638">
        <ele>376.144516</ele>
        <time>2021-11-19T10:02:23.228Z</time>
      </trkpt>
      <trkpt lat="47.547992" lon="7.877974">
        <ele>377.411863</ele>
        <time>2021-11-19T10:02:36.325Z</time>
      </trkpt>
      <trkpt lat="47.547574" lon="7.876801">
        <ele>377.614382</ele>
        <time>2021-11-19T10:02:50.089Z</time>
      </trkpt>
      <trkpt lat="47.547126" lon="7.875801">
        <ele>375.780227</ele>
        <time>2021-11-19T10:02:58.871Z</time>
      </trkpt>
      <trkpt lat="47.546309" lon="7.874154">
        <ele>369.759061</ele>
        <time>2021-11-19T10:03:12.060Z</time>
      </trkpt>
      <trkpt lat="47.546135" lon="7.873859">
        <ele>368.222813</ele>
        <time>2021-11-19T10:03:14.442Z</time>
      </trkpt>
      <trkpt lat="47.546077" lon="7.873763">
        <ele>367.717583</ele>
        <time>2021-11-19T10:03:15.253Z</time>
      </trkpt>
      <trkpt lat="47.545934" lon="7.873549">
        <ele>366.536736</ele>
        <time>2021-11-19T10:03:17.057Z</time>
      </trkpt>
      <trkpt lat="47.545746" lon="7.873302">
        <ele>365.076920</ele>
        <time>2021-11-19T10:03:19.346Z</time>
      </trkpt>
      <trkpt lat="47.545515" lon="7.873015">
        <ele>363.196879</ele>
        <time>2021-11-19T10:03:22.044Z</time>
      </trkpt>
      <trkpt lat="47.545478" lon="7.872968">
        <ele>362.864011</ele>
        <time>2021-11-19T10:03:22.486Z</time>
      </trkpt>
      <trkpt lat="47.545375" lon="7.872836">
        <ele>361.933882</ele>
        <time>2021-11-19T10:03:23.680Z</time>
      </trkpt>
      <trkpt lat="47.545131" lon="7.872664">
        <ele>360.088429</ele>
        <time>2021-11-19T10:03:26.138Z</time>
      </trkpt>
      <trkpt lat="47.544883" lon="7.872555">
        <ele>358.321719</ele>
        <time>2021-11-19T10:03:28.461Z</time>
      </trkpt>
      <trkpt lat="47.544390" lon="7.872423">
        <ele>354.900176</ele>
        <time>2021-11-19T10:03:32.923Z</time>
      </trkpt>
      <trkpt lat="47.543332" lon="7.872237">
        <ele>348.739223</ele>
        <time>2021-11-19T10:03:42.685Z</time>
      </trkpt>
      <trkpt lat="47.543251" lon="7.872152">
        <ele>348.243514</ele>
        <time>2021-11-19T10:03:43.635Z</time>
      </trkpt>
      <trkpt lat="47.543233" lon="7.872082">
        <ele>347.991001</ele>
        <time>2021-11-19T10:03:44.056Z</time>
      </trkpt>
      <trkpt lat="47.543013" lon="7.872182">
        <ele>346.841794</ele>
        <time>2021-11-19T10:03:46.283Z</time>
      </trkpt>
      <trkpt lat="47.542919" lon="7.872226">
        <ele>346.349494</ele>
        <time>2021-11-19T10:03:47.212Z</time>
      </trkpt>
      <trkpt lat="47.542814" lon="7.872280">
        <ele>345.794437</ele>
        <time>2021-11-19T10:03:48.265Z</time>
      </trkpt>
      <trkpt lat="47.542714" lon="7.872334">
        <ele>345.262906</ele>
        <time>2021-11-19T10:03:49.335Z</time>
      </trkpt>
      <trkpt lat="47.542537" lon="7.872430">
        <ele>344.321610</ele>
        <time>2021-11-19T10:03:51.076Z</time>
      </trkpt>
      <trkpt lat="47.542436" lon="7.872494">
        <ele>343.773022</ele>
        <time>2021-11-19T10:03:52.406Z</time>
      </trkpt>
      <trkpt lat="47.542394" lon="7.872341">
        <ele>343.216231</ele>
        <time>2021-11-19T10:03:53.493Z</time>
      </trkpt>
      <trkpt lat="47.542218" lon="7.871866">
        <ele>342.791520</ele>
        <time>2021-11-19T10:03:57.190Z</time>
      </trkpt>
      <trkpt lat="47.542091" lon="7.871721">
        <ele>342.791520</ele>
        <time>2021-11-19T10:03:58.727Z</time>
      </trkpt>
      <trkpt lat="47.542067" lon="7.871664">
        <ele>342.791520</ele>
        <time>2021-11-19T10:03:59.460Z</time>
      </trkpt>
      <trkpt lat="47.542039" lon="7.871556">
        <ele>342.791520</ele>
        <time>2021-11-19T10:04:00.343Z</time>
      </trkpt>
      <trkpt lat="47.541953" lon="7.871286">
        <ele>342.791520</ele>
        <time>2021-11-19T10:04:02.585Z</time>
      </trkpt>
      <trkpt lat="47.541796" lon="7.871042">
        <ele>342.791520</ele>
        <time>2021-11-19T10:04:05.151Z</time>
      </trkpt>
      <trkpt lat="47.541576" lon="7.870664">
        <ele>342.791520</ele>
        <time>2021-11-19T10:04:08.966Z</time>
      </trkpt>
      <trkpt lat="47.541427" lon="7.870778">
        <ele>342.791520</ele>
        <time>2021-11-19T10:04:10.799Z</time>
      </trkpt>
    </trkseg>
  </trk>
</gpx>